[[{"header":{"parameterUnit":"m.s-1","parameterCategory":1,"la1":31.0,"la2":29.5877,"lo1":-88.7671,"lo2":-86.6584,"dy":0.0162,"dx":0.0185,"nx":115,"ny":88,"refTime":"2024-04-07T06:00:00:Z","depth":0,"parameterNumber":2,"parameterNumberName":"U-component_of_WINDS"},"data":[0.0,0.0,0.0,0.0,0.0,0.0,0.0,0.0,0.0,0.0,0.0,0.0,0.0,0.0,0.0,0.0,0.0,0.0,0.0,0.0,0.0,0.0,0.0,0.0,0.0,0.0,0.0,0.0,0.0,0.0,0.0,0.0,0.0,0.0,0.0,0.0,0.0,0.0,0.0,0.0,0.0,0.0,0.0,0.0,0.0,0.0,0.0,0.0,0.0,0.0,0.0,0.0,0.0,0.0,0.0,0.0,0.0,0.0,0.0,0.0,0.0,0.0,0.0,0.0,0.0,0.0,0.0,0.0,0.0,0.0,0.0,0.0,0.0,0.0,0.0,0.0,0.0,0.0,0.0,0.0,0.0,0.0,0.0,0.0,0.0,0.0,0.0,0.0,0.0,0.0,0.0,0.0,0.0,0.0,0.0,0.0,0.0,0.0,0.0,0.0,0.0,0.0,0.0,0.0,0.0,0.0,0.0,0.0,0.0,0.0,0.0,0.0,0.0,0.0,0.0,0.0,0.0,0.0,0.0,0.0,0.0,0.0,0.0,0.0,0.0,0.0,0.0,0.0,0.0,0.0,0.0,0.0,0.0,0.0,0.0,0.0,0.0,0.0,0.0,0.0,0.0,0.0,0.0,0.0,0.0,0.0,0.0,0.0,0.0,0.0,0.0,0.0,0.0,0.0,0.0,0.0,0.0,0.0,0.0,0.0,0.0,0.0,0.0,0.0,0.0,0.0,0.0,0.0,0.0,0.0,0.0,0.0,0.0,0.0,0.0,0.0,0.0,0.0,0.0,0.0,0.0,0.0,0.0,0.0,0.0,0.0,0.0,0.0,0.0,0.0,0.0,0.0,0.0,0.0,0.0,0.0,0.0,0.0,0.0,0.0,0.0,0.0,0.0,0.0,0.0,0.0,0.0,0.0,0.0,0.0,0.0,0.0,0.0,0.0,0.0,0.0,0.0,0.0,0.0,0.0,0.0,0.0,0.0,0.0,0.0,0.0,0.0,0.0,0.0,0.0,0.0,0.0,0.0,0.0,0.0,0.0,0.0,0.0,0.0,0.0,0.0,0.0,0.0,0.0,0.0,0.0,0.0,0.0,0.0,0.0,0.0,0.0,0.0,0.0,0.0,0.0,0.0,0.0,0.0,0.0,0.0,0.0,0.0,0.0,0.0,0.0,0.0,0.0,0.0,0.0,0.0,0.0,0.0,0.0,0.0,0.0,0.0,0.0,0.0,0.0,0.0,0.0,0.0,0.0,0.0,0.0,0.0,0.0,0.0,0.0,0.0,0.0,0.0,0.0,0.0,0.0,0.0,0.0,0.0,0.0,0.0,0.0,0.0,0.0,0.0,0.0,0.0,0.0,0.0,0.0,0.0,0.0,0.0,0.0,0.0,0.0,0.0,0.0,0.0,0.0,0.0,0.0,0.0,0.0,0.0,0.0,0.0,0.0,0.0,0.0,0.0,0.0,0.0,0.0,0.0,0.0,0.0,0.0,0.0,0.0,0.0,0.0,0.0,0.0,0.0,0.0,0.0,0.0,0.0,0.0,0.0,0.0,0.0,0.0,0.0,0.0,0.0,0.0,0.0,0.0,0.0,0.0,0.0,0.0,0.0,0.0,0.0,0.0,0.0,0.0,0.0,0.0,0.0,0.0,0.0,0.0,0.0,0.0,0.0,0.0,0.0,0.0,0.0,0.0,0.0,0.0,0.0,0.0,0.0,0.0,0.0,0.0,0.0,0.0,0.0,0.0,0.0,0.0,0.0,0.0,0.0,0.0,0.0,0.0,0.0,0.0,0.0,0.0,0.0,0.0,0.0,0.0,0.0,0.0,0.0,0.0,0.0,0.0,0.0,0.0,0.0,0.0,0.0,0.0,0.0,0.0,0.0,0.0,0.0,0.0,0.0,0.0,0.0,0.0,0.0,0.0,0.0,0.0,0.0,0.0,0.0,0.0,0.0,0.0,0.0,0.0,0.0,0.0,0.0,0.0,0.0,0.0,0.0,0.0,0.0,0.0,0.0,0.0,0.0,0.0,0.0,0.0,0.0,0.0,0.0,0.0,0.0,0.0,0.0,0.0,0.0,0.0,0.0,0.0,0.0,0.0,0.0,0.0,0.0,0.0,0.0,0.0,0.0,0.0,0.0,0.0,0.0,0.0,0.0,0.0,0.0,0.0,0.0,0.0,0.0,0.0,0.0,0.0,0.0,0.0,0.0,0.0,0.0,0.0,0.0,0.0,0.0,0.0,0.0,0.0,0.0,0.0,0.0,0.0,0.0,0.0,0.0,0.0,0.0,0.0,0.0,0.0,0.0,0.0,0.0,0.0,0.0,0.0,0.0,0.0,0.0,0.0,0.0,0.0,0.0,0.0,0.0,0.0,0.0,0.0,0.0,0.0,0.0,0.0,0.0,0.0,0.0,0.0,0.0,0.0,0.0,0.0,0.0,0.0,0.0,0.0,0.0,0.0,0.0,0.0,0.0,0.0,0.0,0.0,0.0,0.0,0.0,0.0,0.0,0.0,0.0,0.0,0.0,0.0,0.0,0.0,0.0,0.0,0.0,0.0,0.0,0.0,0.0,0.0,0.0,0.0,0.0,0.0,0.0,0.0,0.0,0.0,0.0,0.0,0.0,0.0,0.0,0.0,0.0,0.0,0.0,0.0,0.0,0.0,0.0,0.0,0.0,0.0,0.0,0.0,0.0,0.0,0.0,0.0,0.0,0.0,0.0,0.0,0.0,0.0,0.0,0.0,0.0,0.0,0.0,0.0,0.0,0.0,0.0,0.0,0.0,0.0,0.0,0.0,0.0,0.0,0.0,0.0,0.0,0.0,0.0,0.0,0.0,0.0,0.0,0.0,0.0,0.0,0.0,0.0,0.0,0.0,0.0,0.0,0.0,0.0,0.0,0.0,0.0,0.0,0.0,0.0,0.0,0.0,0.0,0.0,0.0,0.0,0.0,0.0,0.0,0.0,0.0,0.0,0.0,0.0,0.0,0.0,0.0,0.0,0.0,0.0,0.0,0.0,0.0,0.0,0.0,0.0,0.0,0.0,0.0,0.0,0.0,0.0,0.0,0.0,0.0,0.0,0.0,0.0,0.0,0.0,0.0,0.0,0.0,0.0,0.0,0.0,0.0,0.0,0.0,0.0,0.0,0.0,0.0,0.0,0.0,0.0,0.0,0.0,0.0,0.0,0.0,0.0,0.0,0.0,0.0,0.0,0.0,0.0,0.0,0.0,0.0,0.0,0.0,0.0,0.0,0.0,0.0,0.0,0.0,0.0,0.0,0.0,0.0,0.0,0.0,0.0,0.0,0.0,0.0,0.0,0.0,0.0,0.0,0.0,0.0,0.0,0.0,0.0,0.0,0.0,0.0,0.0,0.0,0.0,0.0,0.0,0.0,0.0,0.0,0.0,0.0,0.0,0.0,0.0,0.0,0.0,0.0,0.0,0.0,0.0,0.0,0.0,0.0,0.0,0.0,0.0,0.0,0.0,0.0,0.0,0.0,0.0,0.0,0.0,0.0,0.0,0.0,0.0,0.0,0.0,0.0,0.0,0.0,0.0,0.0,0.0,0.0,0.0,0.0,0.0,0.0,0.0,0.0,0.0,0.0,0.0,0.0,0.0,0.0,0.0,0.0,0.0,0.0,0.0,0.0,0.0,0.0,0.0,0.0,0.0,0.0,0.0,0.0,0.0,0.0,0.0,0.0,0.0,0.0,0.0,0.0,0.0,0.0,0.0,0.0,0.0,0.0,0.0,0.0,0.0,0.0,0.0,0.0,0.0,0.0,0.0,0.0,0.0,0.0,0.0,0.0,0.0,0.0,0.0,0.0,0.0,0.0,0.0,0.0,0.0,0.0,0.0,0.0,0.0,0.0,0.0,0.0,0.0,0.0,0.0,0.0,0.0,0.0,0.0,0.0,0.0,0.0,0.0,0.0,0.0,0.0,0.0,0.0,0.0,0.0,0.0,0.0,0.0,0.0,0.0,0.0,0.0,0.0,0.0,0.0,0.0,0.0,0.0,0.0,0.0,0.0,0.0,0.0,0.0,0.0,0.0,0.0,0.0,0.0,0.0,0.0,0.0,0.0,0.0,0.0,0.0,0.0,0.0,0.0,0.0,0.0,0.0,0.0,0.0,0.0,0.0,0.0,0.0,0.0,0.0,0.0,0.0,0.0,0.0,0.0,0.0,0.0,0.0,0.0,0.0,0.0,0.0,0.0,0.0,0.0,0.0,0.0,0.0,0.0,0.0,0.0,0.0,0.0,0.0,1.955,0.0,0.0,0.0,0.0,0.0,0.0,0.0,0.0,0.0,0.0,0.0,0.0,0.0,0.0,0.0,0.0,0.0,0.0,0.0,0.0,0.0,0.0,0.0,0.0,0.0,0.0,0.0,0.0,0.0,0.0,0.0,0.0,0.0,0.0,0.0,0.0,0.0,0.0,0.0,0.0,0.0,0.0,0.0,0.0,0.0,0.0,0.0,0.0,0.0,0.0,0.0,0.0,0.0,0.0,0.0,0.0,0.0,0.0,0.0,0.0,0.0,0.0,0.0,0.0,0.0,0.0,0.0,0.0,0.0,0.0,0.0,0.0,0.0,0.0,0.0,0.0,0.0,0.0,0.0,0.0,0.0,0.0,0.0,0.0,0.0,0.0,0.0,0.0,0.0,0.0,0.0,0.0,0.0,0.0,0.0,0.0,0.0,0.0,0.0,0.0,0.0,0.0,0.0,0.0,0.0,0.0,0.0,0.0,0.0,0.0,1.9813,1.9878,2.0009,2.0074,2.0205,0.0,0.0,0.0,0.0,0.0,0.0,0.0,0.0,0.0,0.0,0.0,0.0,0.0,0.0,0.0,0.0,0.0,0.0,0.0,0.0,0.0,0.0,0.0,0.0,0.0,0.0,0.0,0.0,0.0,0.0,0.0,0.0,0.0,0.0,0.0,0.0,0.0,0.0,0.0,0.0,0.0,0.0,0.0,0.0,0.0,0.0,0.0,0.0,0.0,0.0,0.0,0.0,0.0,0.0,0.0,0.0,0.0,0.0,0.0,0.0,0.0,0.0,0.0,0.0,0.0,0.0,0.0,0.0,0.0,0.0,0.0,0.0,0.0,0.0,0.0,0.0,0.0,0.0,0.0,0.0,0.0,0.0,0.0,0.0,0.0,0.0,0.0,0.0,0.0,0.0,0.0,0.0,0.0,0.0,0.0,0.0,0.0,0.0,0.0,0.0,0.0,0.0,0.0,0.0,0.0,0.0,0.0,0.0,0.0,0.0,0.0,0.0,2.0744,2.0809,2.0786,0.0,0.0,0.0,0.0,0.0,0.0,0.0,0.0,0.0,0.0,0.0,0.0,0.0,0.0,0.0,0.0,0.0,0.0,0.0,0.0,0.0,0.0,0.0,0.0,0.0,0.0,0.0,0.0,0.0,0.0,0.0,0.0,0.0,0.0,0.0,0.0,0.0,0.0,0.0,0.0,0.0,0.0,0.0,0.0,0.0,0.0,0.0,0.0,0.0,0.0,0.0,0.0,0.0,0.0,0.0,0.0,0.0,0.0,0.0,0.0,0.0,0.0,0.0,0.0,0.0,0.0,0.0,0.0,0.0,0.0,0.0,0.0,0.0,0.0,0.0,0.0,0.0,0.0,0.0,0.0,0.0,0.0,0.0,0.0,0.0,0.0,0.0,0.0,0.0,0.0,0.0,0.0,0.0,0.0,0.0,0.0,0.0,0.0,0.0,0.0,0.0,0.0,0.0,0.0,0.0,0.0,0.0,0.0,0.0,0.0,2.1106,2.1169,2.1169,0.0,2.1169,0.0,0.0,0.0,0.0,0.0,0.0,0.0,0.0,0.0,0.0,0.0,0.0,0.0,0.0,0.0,0.0,0.0,0.0,0.0,0.0,0.0,0.0,0.0,0.0,0.0,0.0,0.0,0.0,0.0,0.0,0.0,0.0,0.0,0.0,0.0,0.0,0.0,0.0,0.0,0.0,0.0,0.0,0.0,0.0,0.0,0.0,0.0,0.0,0.0,0.0,0.0,0.0,0.0,0.0,0.0,0.0,0.0,0.0,0.0,0.0,0.0,0.0,0.0,0.0,0.0,0.0,0.0,0.0,0.0,0.0,0.0,0.0,0.0,0.0,0.0,0.0,0.0,0.0,0.0,0.0,0.0,0.0,0.0,0.0,0.0,0.0,0.0,0.0,0.0,0.0,0.0,0.0,0.0,0.0,0.0,0.0,0.0,0.0,0.0,0.0,0.0,0.0,0.0,0.0,0.0,0.0,0.0,0.0,0.0,0.0,2.1509,2.1486,2.1486,2.1486,0.0,0.0,0.0,0.0,0.0,0.0,0.0,0.0,0.0,0.0,0.0,0.0,0.0,0.0,0.0,0.0,0.0,0.0,0.0,0.0,0.0,0.0,0.0,0.0,0.0,0.0,0.0,0.0,0.0,0.0,0.0,0.0,0.0,0.0,0.0,0.0,0.0,0.0,0.0,0.0,0.0,0.0,0.0,0.0,0.0,0.0,0.0,0.0,0.0,0.0,0.0,0.0,0.0,0.0,0.0,0.0,0.0,0.0,0.0,0.0,0.0,0.0,0.0,0.0,0.0,0.0,0.0,0.0,0.0,0.0,0.0,0.0,0.0,0.0,0.0,0.0,0.0,0.0,0.0,0.0,0.0,0.0,0.0,0.0,0.0,0.0,0.0,0.0,0.0,0.0,0.0,0.0,0.0,0.0,0.0,0.0,0.0,0.0,0.0,0.0,0.0,0.0,0.0,0.0,0.0,0.0,0.0,0.0,0.0,0.0,2.1737,2.1824,2.1824,2.1824,2.1824,2.1824,0.0,0.0,0.0,0.0,0.0,0.0,0.0,0.0,0.0,0.0,0.0,0.0,0.0,0.0,0.0,0.0,0.0,0.0,0.0,0.0,0.0,0.0,0.0,0.0,0.0,0.0,0.0,0.0,0.0,0.0,0.0,0.0,0.0,0.0,0.0,0.0,0.0,0.0,0.0,0.0,0.0,0.0,0.0,0.0,0.0,0.0,0.0,0.0,0.0,0.0,0.0,0.0,0.0,0.0,0.0,0.0,0.0,0.0,0.0,0.0,0.0,0.0,0.0,0.0,0.0,0.0,0.0,0.0,0.0,0.0,0.0,0.0,0.0,0.0,0.0,0.0,0.0,0.0,0.0,0.0,0.0,0.0,0.0,0.0,0.0,0.0,0.0,0.0,0.0,0.0,0.0,0.0,0.0,0.0,0.0,0.0,0.0,0.0,0.0,0.0,0.0,0.0,0.0,0.0,0.0,0.0,0.0,0.0,2.1862,2.2049,2.2197,2.2135,2.2197,2.2197,0.0,0.0,0.0,0.0,0.0,0.0,0.0,0.0,0.0,0.0,0.0,0.0,0.0,0.0,0.0,0.0,0.0,0.0,0.0,0.0,0.0,0.0,0.0,0.0,0.0,0.0,0.0,0.0,0.0,0.0,0.0,0.0,0.0,0.0,0.0,0.0,0.0,0.0,0.0,0.0,0.0,0.0,0.0,0.0,0.0,0.0,0.0,0.0,0.0,0.0,0.0,0.0,0.0,0.0,0.0,0.0,0.0,0.0,0.0,0.0,0.0,0.0,0.0,0.0,0.0,0.0,0.0,0.0,0.0,0.0,0.0,0.0,0.0,0.0,0.0,0.0,0.0,0.0,0.0,0.0,0.0,0.0,0.0,0.0,0.0,0.0,0.0,0.0,0.0,0.0,0.0,0.0,0.0,0.0,0.0,0.0,0.0,0.0,0.0,0.0,0.0,0.0,0.0,0.0,0.0,0.0,0.0,0.0,0.0,2.2073,2.2173,2.2197,2.2197,2.2197,2.2197,0.0,0.0,0.0,0.0,0.0,0.0,0.0,0.0,0.0,0.0,0.0,0.0,0.0,0.0,0.0,0.0,0.0,0.0,0.0,0.0,0.0,0.0,0.0,0.0,0.0,0.0,0.0,0.0,0.0,0.0,0.0,0.0,0.0,0.0,0.0,0.0,0.0,0.0,0.0,0.0,0.0,0.0,0.0,0.0,0.0,0.0,0.0,0.0,0.0,0.0,0.0,0.0,0.0,0.0,0.0,0.0,0.0,0.0,0.0,0.0,0.0,0.0,0.0,0.0,0.0,0.0,0.0,0.0,0.0,0.0,0.0,0.0,0.0,0.0,0.0,0.0,0.0,0.0,0.0,0.0,0.0,0.0,0.0,0.0,0.0,0.0,0.0,0.0,0.0,0.0,0.0,0.0,0.0,0.0,0.0,0.0,0.0,0.0,0.0,0.0,0.0,0.0,0.0,0.0,0.0,0.0,0.0,0.0,0.0,2.2438,0.0,2.2462,2.2438,2.2438,2.2366,0.0,0.0,0.0,0.0,0.0,0.0,0.0,0.0,0.0,0.0,0.0,0.0,0.0,0.0,0.0,0.0,0.0,0.0,0.0,0.0,0.0,0.0,0.0,0.0,0.0,0.0,0.0,0.0,0.0,0.0,0.0,0.0,0.0,0.0,0.0,0.0,0.0,0.0,0.0,0.0,0.0,0.0,0.0,0.0,0.0,0.0,0.0,0.0,0.0,0.0,0.0,0.0,0.0,0.0,0.0,0.0,0.0,0.0,0.0,0.0,0.0,0.0,0.0,0.0,0.0,0.0,0.0,0.0,0.0,0.0,0.0,0.0,0.0,0.0,0.0,0.0,0.0,0.0,0.0,0.0,0.0,0.0,0.0,0.0,0.0,0.0,0.0,0.0,0.0,0.0,0.0,0.0,0.0,0.0,0.0,0.0,0.0,0.0,0.0,0.0,0.0,0.0,0.0,0.0,0.0,0.0,0.0,0.0,2.2462,2.2943,2.2967,2.2991,2.2991,2.2991,2.2751,0.0,0.0,0.0,0.0,0.0,0.0,0.0,0.0,0.0,0.0,0.0,0.0,0.0,0.0,0.0,0.0,0.0,0.0,0.0,0.0,0.0,0.0,0.0,0.0,0.0,0.0,0.0,0.0,0.0,0.0,0.0,0.0,0.0,0.0,0.0,0.0,0.0,0.0,0.0,0.0,0.0,0.0,0.0,0.0,0.0,0.0,0.0,0.0,0.0,0.0,0.0,0.0,0.0,0.0,0.0,0.0,0.0,0.0,0.0,0.0,0.0,0.0,0.0,0.0,0.0,0.0,0.0,0.0,0.0,0.0,0.0,0.0,0.0,0.0,0.0,0.0,0.0,0.0,0.0,0.0,0.0,0.0,0.0,0.0,0.0,0.0,0.0,0.0,0.0,0.0,0.0,0.0,0.0,0.0,0.0,0.0,0.0,0.0,0.0,0.0,0.0,0.0,0.0,0.0,0.0,0.0,0.0,0.0,0.0,2.2991,2.3328,2.352,2.352,2.352,2.328,0.0,0.0,0.0,0.0,0.0,0.0,0.0,0.0,0.0,0.0,0.0,0.0,0.0,0.0,0.0,0.0,0.0,0.0,0.0,0.0,0.0,0.0,0.0,0.0,0.0,0.0,0.0,0.0,0.0,0.0,0.0,0.0,0.0,0.0,0.0,0.0,0.0,0.0,0.0,0.0,0.0,0.0,0.0,0.0,0.0,0.0,0.0,0.0,0.0,0.0,0.0,0.0,0.0,0.0,0.0,0.0,0.0,0.0,0.0,0.0,0.0,0.0,0.0,0.0,0.0,0.0,0.0,0.0,0.0,0.0,0.0,0.0,0.0,0.0,0.0,0.0,0.0,0.0,0.0,0.0,0.0,0.0,0.0,0.0,0.0,0.0,0.0,0.0,0.0,0.0,0.0,0.0,0.0,0.0,0.0,0.0,0.0,0.0,0.0,0.0,0.0,0.0,0.0,0.0,0.0,0.0,0.0,0.0,0.0,2.3857,2.4169,2.4338,2.4338,2.4338,2.4001,2.3304,0.0,0.0,0.0,0.0,0.0,0.0,0.0,0.0,0.0,0.0,0.0,0.0,0.0,0.0,0.0,0.0,0.0,0.0,0.0,0.0,0.0,0.0,0.0,0.0,0.0,0.0,0.0,0.0,0.0,0.0,0.0,0.0,0.0,0.0,0.0,0.0,0.0,0.0,0.0,0.0,0.0,0.0,0.0,0.0,0.0,0.0,0.0,0.0,0.0,0.0,0.0,0.0,0.0,0.0,0.0,0.0,0.0,0.0,0.0,0.0,0.0,0.0,0.0,0.0,0.0,0.0,0.0,0.0,0.0,0.0,0.0,0.0,0.0,0.0,0.0,0.0,0.0,0.0,0.0,0.0,0.0,0.0,0.0,0.0,0.0,0.0,0.0,0.0,0.0,0.0,0.0,0.0,0.0,0.0,0.0,0.0,0.0,0.0,0.0,0.0,0.0,0.0,0.0,0.0,0.0,0.0,0.0,0.0,2.5444,2.5468,2.5468,2.5396,2.5372,2.4867,0.0,0.0,0.0,0.0,0.0,0.0,0.0,0.0,0.0,0.0,0.0,0.0,0.0,0.0,0.0,0.0,0.0,0.0,0.0,0.0,0.0,0.0,0.0,0.0,0.0,0.0,0.0,0.0,0.0,0.0,0.0,0.0,0.0,0.0,0.0,0.0,0.0,0.0,0.0,0.0,0.0,0.0,0.0,0.0,0.0,0.0,0.0,0.0,0.0,0.0,0.0,0.0,0.0,0.0,0.0,0.0,0.0,0.0,0.0,0.0,0.0,0.0,0.0,0.0,0.0,0.0,0.0,0.0,0.0,0.0,0.0,0.0,0.0,0.0,0.0,0.0,0.0,0.0,0.0,0.0,0.0,0.0,0.0,0.0,0.0,0.0,0.0,0.0,0.0,0.0,0.0,0.0,0.0,0.0,0.0,0.0,0.0,0.0,0.0,0.0,0.0,0.0,0.0,0.0,0.0,0.0,0.0,0.0,0.0,2.7031,2.7464,2.7296,2.655,2.6117,2.5564,0.0,0.0,0.0,0.0,0.0,0.0,0.0,0.0,0.0,0.0,0.0,0.0,0.0,0.0,0.0,0.0,0.0,0.0,0.0,0.0,0.0,0.0,0.0,0.0,0.0,0.0,0.0,0.0,0.0,0.0,0.0,0.0,0.0,0.0,0.0,0.0,0.0,0.0,0.0,0.0,0.0,0.0,0.0,0.0,0.0,0.0,0.0,0.0,0.0,0.0,0.0,0.0,0.0,0.0,0.0,0.0,0.0,0.0,0.0,0.0,0.0,0.0,0.0,0.0,0.0,0.0,0.0,0.0,0.0,0.0,0.0,0.0,0.0,0.0,0.0,0.0,0.0,0.0,0.0,0.0,0.0,0.0,0.0,0.0,0.0,0.0,0.0,0.0,0.0,0.0,0.0,0.0,0.0,0.0,0.0,0.0,0.0,0.0,0.0,0.0,0.0,0.0,0.0,0.0,0.0,0.0,0.0,0.0,2.6887,2.8041,2.8787,2.8883,2.8282,2.7512,2.6647,0.0,0.0,0.0,0.0,0.0,0.0,0.0,0.0,0.0,0.0,0.0,0.0,0.0,0.0,0.0,0.0,0.0,0.0,0.0,0.0,0.0,0.0,0.0,0.0,0.0,0.0,0.0,0.0,0.0,0.0,0.0,0.0,0.0,0.0,0.0,0.0,0.0,0.0,0.0,0.0,0.0,0.0,0.0,0.0,0.0,0.0,0.0,0.0,0.0,0.0,0.0,0.0,0.0,0.0,0.0,0.0,0.0,0.0,0.0,0.0,0.0,0.0,0.0,0.0,0.0,0.0,0.0,0.0,0.0,0.0,0.0,0.0,0.0,0.0,0.0,0.0,0.0,0.0,0.0,0.0,0.0,0.0,0.0,0.0,0.0,0.0,0.0,0.0,0.0,0.0,0.0,0.0,0.0,0.0,0.0,0.0,0.0,0.0,0.0,0.0,0.0,0.0,0.0,0.0,0.0,0.0,0.0,0.0,2.7993,2.8595,2.9629,3.0158,3.0134,2.91,2.7801,0.0,0.0,0.0,0.0,0.0,0.0,0.0,0.0,0.0,0.0,0.0,0.0,0.0,0.0,0.0,0.0,0.0,0.0,0.0,0.0,0.0,0.0,0.0,0.0,0.0,0.0,0.0,0.0,0.0,0.0,0.0,0.0,0.0,0.0,0.0,0.0,0.0,0.0,0.0,0.0,0.0,0.0,0.0,0.0,0.0,0.0,0.0,0.0,0.0,0.0,0.0,0.0,0.0,0.0,0.0,0.0,0.0,0.0,0.0,0.0,0.0,0.0,0.0,0.0,0.0,0.0,0.0,0.0,0.0,0.0,0.0,0.0,0.0,0.0,0.0,0.0,0.0,0.0,0.0,0.0,0.0,0.0,0.0,0.0,0.0,0.0,0.0,0.0,0.0,0.0,0.0,0.0,0.0,0.0,0.0,0.0,0.0,0.0,0.0,0.0,0.0,0.0,0.0,0.0,0.0,0.0,0.0,0.0,2.8186,2.9124,3.0158,3.0711,3.0687,2.9292,2.8138,0.0,0.0,0.0,0.0,0.0,0.0,0.0,0.0,0.0,0.0,0.0,0.0,0.0,0.0,0.0,0.0,0.0,0.0,0.0,0.0,0.0,0.0,0.0,0.0,0.0,0.0,0.0,0.0,0.0,0.0,0.0,0.0,0.0,0.0,0.0,0.0,0.0,0.0,0.0,0.0,0.0,0.0,0.0,0.0,0.0,0.0,0.0,0.0,2.542,0.0,0.0,0.0,0.0,0.0,0.0,0.0,0.0,0.0,0.0,0.0,0.0,0.0,0.0,0.0,0.0,0.0,0.0,0.0,0.0,0.0,0.0,0.0,0.0,0.0,0.0,0.0,0.0,0.0,0.0,0.0,0.0,0.0,0.0,0.0,0.0,0.0,0.0,0.0,0.0,0.0,0.0,0.0,0.0,0.0,0.0,0.0,0.0,0.0,0.0,0.0,0.0,0.0,0.0,0.0,0.0,0.0,0.0,0.0,2.91,3.0374,3.1216,3.1649,3.1601,3.0567,2.9388,0.0,0.0,0.0,0.0,0.0,0.0,0.0,0.0,0.0,0.0,0.0,0.0,0.0,0.0,0.0,0.0,0.0,0.0,0.0,0.0,0.0,0.0,0.0,0.0,0.0,0.0,0.0,0.0,0.0,0.0,0.0,0.0,0.0,0.0,0.0,0.0,0.0,0.0,0.0,0.0,0.0,0.0,0.0,0.0,0.0,0.0,0.0,0.0,0.0,0.0,0.0,0.0,0.0,0.0,0.0,0.0,0.0,0.0,0.0,0.0,0.0,0.0,0.0,0.0,0.0,0.0,0.0,0.0,0.0,0.0,0.0,0.0,0.0,0.0,0.0,0.0,0.0,0.0,0.0,0.0,0.0,0.0,0.0,0.0,0.0,0.0,0.0,0.0,0.0,0.0,0.0,0.0,0.0,0.0,0.0,0.0,0.0,0.0,0.0,0.0,0.0,0.0,0.0,0.0,0.0,0.0,0.0,2.8619,3.0158,3.1601,3.2298,3.2587,3.2491,3.1889,3.0663,2.8835,0.0,0.0,0.0,0.0,0.0,0.0,0.0,0.0,0.0,0.0,0.0,0.0,0.0,0.0,0.0,0.0,0.0,0.0,0.0,0.0,0.0,0.0,0.0,0.0,0.0,0.0,0.0,0.0,0.0,0.0,0.0,0.0,0.0,0.0,0.0,0.0,0.0,0.0,2.3304,2.4626,0.0,0.0,0.0,0.0,0.0,0.0,0.0,0.0,2.6713,0.0,0.0,0.0,0.0,0.0,0.0,0.0,0.0,0.0,0.0,0.0,0.0,0.0,0.0,0.0,0.0,0.0,0.0,0.0,0.0,0.0,0.0,0.0,0.0,0.0,0.0,0.0,0.0,0.0,0.0,0.0,0.0,0.0,0.0,0.0,0.0,0.0,0.0,0.0,0.0,0.0,0.0,0.0,0.0,0.0,0.0,0.0,0.0,0.0,0.0,0.0,0.0,0.0,0.0,0.0,0.0,2.7584,2.9148,3.0518,3.1649,3.2635,3.2947,3.2515,3.1529,3.0639,2.9821,0.0,0.0,0.0,0.0,0.0,0.0,0.0,0.0,0.0,0.0,0.0,0.0,0.0,0.0,0.0,0.0,0.0,0.0,0.0,0.0,0.0,0.0,0.0,0.0,0.0,0.0,0.0,0.0,0.0,0.0,0.0,0.0,0.0,0.0,0.0,0.0,0.0,0.0,0.0,2.5925,2.6695,0.0,0.0,0.0,0.0,0.0,0.0,0.0,0.0,2.7908,0.0,0.0,0.0,0.0,0.0,0.0,0.0,0.0,0.0,0.0,0.0,0.0,0.0,0.0,0.0,0.0,0.0,0.0,0.0,0.0,0.0,0.0,0.0,0.0,0.0,0.0,0.0,0.0,0.0,0.0,0.0,0.0,0.0,0.0,0.0,0.0,0.0,0.0,0.0,0.0,0.0,0.0,0.0,0.0,0.0,0.0,0.0,0.0,0.0,0.0,0.0,0.0,0.0,0.0,0.0,2.8498,3.0086,3.1432,3.2491,3.3284,3.3522,3.3083,3.2309,3.1331,0.0,0.0,0.0,0.0,0.0,0.0,0.0,0.0,0.0,0.0,0.0,0.0,0.0,0.0,0.0,0.0,0.0,0.0,0.0,0.0,0.0,0.0,0.0,0.0,0.0,0.0,0.0,0.0,0.0,0.0,0.0,0.0,0.0,0.0,0.0,0.0,0.0,0.0,0.0,0.0,2.7079,2.7753,2.7753,0.0,0.0,0.0,0.0,0.0,0.0,2.9148,2.9051,0.0,0.0,0.0,0.0,0.0,0.0,0.0,0.0,0.0,0.0,0.0,0.0,0.0,0.0,0.0,0.0,0.0,0.0,0.0,0.0,0.0,0.0,0.0,0.0,0.0,0.0,0.0,0.0,0.0,0.0,0.0,0.0,0.0,0.0,0.0,0.0,0.0,0.0,0.0,0.0,0.0,0.0,0.0,0.0,0.0,0.0,0.0,0.0,0.0,0.0,0.0,0.0,0.0,0.0,0.0,2.9412,3.1023,3.237,3.3404,3.3933,3.4004,3.3655,3.3022,3.1796,0.0,0.0,0.0,0.0,0.0,0.0,0.0,0.0,0.0,0.0,0.0,0.0,0.0,0.0,0.0,0.0,0.0,0.0,0.0,0.0,0.0,0.0,0.0,0.0,0.0,0.0,0.0,0.0,0.0,0.0,0.0,0.0,0.0,0.0,0.0,0.0,0.0,0.0,0.0,0.0,0.0,2.8667,2.8667,2.8763,0.0,0.0,0.0,0.0,2.9701,3.0134,0.0,0.0,0.0,0.0,0.0,0.0,0.0,0.0,0.0,0.0,0.0,0.0,0.0,0.0,0.0,0.0,0.0,0.0,0.0,0.0,0.0,0.0,0.0,0.0,0.0,0.0,0.0,0.0,0.0,0.0,0.0,0.0,0.0,0.0,0.0,0.0,0.0,0.0,0.0,0.0,0.0,0.0,0.0,0.0,0.0,0.0,0.0,0.0,0.0,0.0,0.0,0.0,0.0,0.0,0.0,0.0,2.9965,3.1577,3.2899,3.3909,3.4655,3.4556,3.3655,3.2836,3.1687,0.0,0.0,0.0,0.0,0.0,0.0,0.0,0.0,0.0,0.0,0.0,0.0,0.0,0.0,0.0,0.0,0.0,0.0,0.0,0.0,0.0,0.0,0.0,0.0,0.0,0.0,0.0,0.0,0.0,0.0,0.0,0.0,0.0,0.0,0.0,0.0,0.0,0.0,0.0,0.0,0.0,2.922,2.9196,2.9605,2.9893,0.0,0.0,3.1312,3.1384,3.1456,0.0,0.0,0.0,0.0,0.0,0.0,0.0,0.0,0.0,0.0,0.0,0.0,0.0,0.0,0.0,0.0,0.0,0.0,0.0,0.0,0.0,0.0,0.0,0.0,0.0,0.0,0.0,0.0,0.0,0.0,0.0,0.0,0.0,0.0,0.0,0.0,0.0,0.0,0.0,0.0,0.0,0.0,0.0,0.0,0.0,0.0,0.0,0.0,0.0,0.0,0.0,0.0,0.0,0.0,0.0,2.8426,3.0494,3.2309,3.347,3.4219,3.5039,3.5157,3.449,3.3677,3.2571,0.0,0.0,0.0,0.0,0.0,0.0,0.0,0.0,0.0,0.0,0.0,0.0,0.0,0.0,0.0,0.0,0.0,0.0,0.0,0.0,0.0,0.0,0.0,0.0,0.0,0.0,0.0,0.0,0.0,0.0,0.0,0.0,0.0,0.0,0.0,0.0,0.0,0.0,0.0,0.0,0.0,0.0,3.0591,3.112,0.0,0.0,0.0,3.225,3.2539,0.0,0.0,0.0,0.0,0.0,0.0,0.0,0.0,0.0,0.0,0.0,0.0,0.0,0.0,0.0,0.0,0.0,0.0,0.0,0.0,0.0,0.0,0.0,0.0,0.0,0.0,0.0,0.0,0.0,0.0,0.0,0.0,0.0,0.0,0.0,0.0,0.0,0.0,0.0,0.0,0.0,0.0,0.0,0.0,0.0,0.0,0.0,0.0,0.0,0.0,0.0,0.0,0.0,0.0,0.0,0.0,0.0,3.1134,3.2876,3.4039,3.4698,3.5399,3.5635,3.5369,3.4539,0.0,0.0,0.0,0.0,0.0,0.0,0.0,0.0,0.0,0.0,0.0,0.0,0.0,0.0,0.0,0.0,0.0,0.0,0.0,0.0,0.0,0.0,0.0,0.0,0.0,0.0,0.0,2.2125,0.0,0.0,0.0,0.0,0.0,0.0,0.0,0.0,0.0,0.0,0.0,0.0,0.0,0.0,3.1048,3.1577,3.225,3.2827,0.0,0.0,3.302,3.3428,3.314,3.2659,0.0,0.0,0.0,0.0,0.0,0.0,0.0,0.0,0.0,0.0,0.0,0.0,0.0,0.0,0.0,0.0,0.0,0.0,0.0,0.0,0.0,0.0,0.0,0.0,0.0,0.0,0.0,0.0,0.0,0.0,0.0,0.0,0.0,0.0,0.0,0.0,0.0,0.0,0.0,0.0,0.0,0.0,0.0,0.0,0.0,0.0,0.0,0.0,0.0,0.0,0.0,0.0,0.0,0.0,0.0,3.2016,3.3342,3.4514,3.5522,3.6073,3.62,3.5897,3.5161,3.4543,0.0,0.0,0.0,0.0,0.0,0.0,0.0,0.0,0.0,0.0,0.0,0.0,0.0,0.0,0.0,0.0,0.0,0.0,0.0,0.0,0.0,0.0,0.0,0.0,0.0,0.0,0.0,0.0,0.0,0.0,0.0,0.0,0.0,0.0,0.0,0.0,0.0,0.0,0.0,0.0,0.0,3.1072,3.1601,3.2563,3.326,0.0,0.0,3.3958,3.3982,3.3958,3.3597,3.2611,0.0,0.0,0.0,0.0,0.0,0.0,0.0,0.0,0.0,0.0,0.0,0.0,0.0,0.0,0.0,0.0,0.0,0.0,0.0,0.0,0.0,0.0,0.0,0.0,0.0,0.0,0.0,0.0,0.0,0.0,0.0,0.0,0.0,0.0,0.0,0.0,0.0,0.0,0.0,0.0,0.0,0.0,0.0,0.0,0.0,0.0,0.0,0.0,0.0,0.0,0.0,0.0,0.0,3.035,3.2476,3.3945,3.5228,3.6496,3.6989,3.7165,3.7025,3.6813,3.6373,0.0,0.0,0.0,0.0,0.0,0.0,0.0,0.0,0.0,0.0,0.0,0.0,0.0,0.0,0.0,0.0,0.0,0.0,0.0,0.0,0.0,0.0,0.0,0.0,0.0,0.0,0.0,0.0,2.6983,2.7368,2.7248,0.0,0.0,0.0,0.0,0.0,0.0,0.0,0.0,0.0,0.0,3.2178,3.302,3.3765,0.0,0.0,3.439,3.4535,3.4535,3.4246,3.3885,3.3525,3.2755,0.0,0.0,0.0,0.0,0.0,0.0,0.0,0.0,0.0,0.0,0.0,0.0,0.0,0.0,0.0,0.0,0.0,0.0,0.0,0.0,0.0,0.0,0.0,0.0,0.0,0.0,0.0,0.0,0.0,0.0,0.0,0.0,0.0,0.0,0.0,0.0,0.0,0.0,0.0,0.0,0.0,0.0,0.0,0.0,0.0,0.0,0.0,0.0,0.0,0.0,0.0,0.0,3.1065,3.2993,3.4805,3.6315,3.7453,3.807,3.8424,3.8515,3.8505,3.8378,0.0,0.0,0.0,0.0,0.0,0.0,0.0,0.0,0.0,0.0,0.0,0.0,0.0,0.0,0.0,0.0,0.0,0.0,0.0,0.0,0.0,0.0,0.0,0.0,0.0,0.0,0.0,0.0,2.7729,2.7753,2.7224,0.0,0.0,0.0,0.0,0.0,0.0,0.0,0.0,0.0,0.0,3.3068,3.3933,3.4631,3.5064,3.5064,3.5208,3.5304,3.5304,3.4871,3.4511,3.4511,0.0,0.0,0.0,0.0,0.0,0.0,0.0,0.0,0.0,0.0,0.0,0.0,0.0,0.0,0.0,0.0,0.0,0.0,0.0,0.0,0.0,0.0,0.0,0.0,0.0,0.0,0.0,0.0,0.0,0.0,2.4771,0.0,0.0,0.0,0.0,0.0,0.0,0.0,0.0,0.0,0.0,0.0,0.0,0.0,0.0,0.0,0.0,0.0,0.0,0.0,0.0,0.0,0.0,3.2275,3.381,3.6184,3.7606,3.8213,3.92,3.986,4.016,4.0404,4.0487,4.0284,0.0,0.0,0.0,0.0,0.0,0.0,0.0,0.0,0.0,0.0,0.0,0.0,0.0,0.0,0.0,0.0,0.0,0.0,0.0,0.0,0.0,0.0,0.0,0.0,0.0,0.0,2.833,2.8474,2.8258,0.0,0.0,0.0,0.0,0.0,0.0,0.0,0.0,0.0,0.0,3.2274,3.3477,3.4006,3.4944,3.5593,3.5593,3.6026,3.6362,3.6338,3.5905,3.5593,0.0,0.0,0.0,0.0,0.0,0.0,0.0,0.0,0.0,0.0,0.0,0.0,0.0,0.0,0.0,0.0,0.0,0.0,0.0,0.0,0.0,0.0,0.0,0.0,0.0,0.0,0.0,2.6387,2.6654,0.0,0.0,0.0,0.0,0.0,0.0,0.0,0.0,0.0,0.0,0.0,3.3122,3.3122,0.0,0.0,0.0,0.0,0.0,0.0,0.0,0.0,0.0,0.0,0.0,0.0,3.3993,3.6066,3.7853,3.9303,4.034,4.095,4.1242,4.1361,4.1605,4.148,4.1247,0.0,0.0,0.0,0.0,0.0,0.0,0.0,0.0,0.0,0.0,0.0,0.0,0.0,0.0,0.0,0.0,0.0,0.0,0.0,0.0,0.0,0.0,0.0,0.0,0.0,2.8114,0.0,0.0,0.0,0.0,0.0,0.0,0.0,0.0,0.0,0.0,0.0,3.0999,3.2755,3.3741,3.4631,3.5497,3.5905,3.6146,0.0,0.0,0.0,0.0,0.0,0.0,0.0,0.0,0.0,0.0,0.0,0.0,0.0,0.0,3.4535,3.2803,3.2491,3.2418,3.225,0.0,0.0,0.0,0.0,0.0,0.0,0.0,0.0,0.0,0.0,0.0,0.0,0.0,0.0,0.0,0.0,2.839,0.0,0.0,0.0,0.0,0.0,0.0,0.0,0.0,3.3819,3.4516,3.5735,3.5735,3.5735,0.0,3.5735,3.4795,0.0,0.0,0.0,0.0,0.0,0.0,0.0,0.0,3.5628,3.783,3.9344,4.0646,4.1672,4.2223,4.2453,4.2425,4.2607,4.2502,4.2289,4.1081,3.9648,0.0,0.0,0.0,0.0,0.0,0.0,0.0,0.0,0.0,0.0,0.0,0.0,0.0,0.0,0.0,0.0,0.0,0.0,0.0,0.0,0.0,0.0,0.0,2.9512,0.0,0.0,0.0,0.0,0.0,0.0,0.0,0.0,0.0,3.0398,3.1312,3.2611,3.4366,3.504,3.5641,3.6314,0.0,0.0,0.0,0.0,0.0,0.0,0.0,3.7084,3.7445,3.7372,3.718,3.7036,3.7012,3.7228,3.7926,0.0,0.0,3.5304,3.4919,3.4919,3.4919,3.4919,3.5016,3.5352,3.54,3.5569,0.0,0.0,0.0,0.0,0.0,0.0,0.0,0.0,3.0974,3.1032,0.0,3.0974,0.0,0.0,0.0,0.0,0.0,3.2658,0.0,0.0,3.6373,3.7041,3.8202,3.8231,3.8231,3.826,3.8231,3.8231,3.8086,3.5652,0.0,0.0,0.0,0.0,0.0,0.0,3.7071,3.8968,4.0586,4.1653,4.2328,4.3125,4.3526,4.3526,4.3526,4.3526,4.3469,4.2317,4.1109,3.9901,3.8074,0.0,0.0,0.0,0.0,0.0,0.0,0.0,0.0,0.0,0.0,0.0,0.0,0.0,0.0,0.0,0.0,0.0,0.0,0.0,0.0,3.1353,0.0,0.0,0.0,0.0,0.0,0.0,0.0,0.0,0.0,0.0,3.2611,3.3477,3.4463,3.5521,0.0,0.0,0.0,0.0,3.7252,3.7276,3.7709,3.8214,3.8743,3.8383,3.8383,3.9393,0.0,0.0,3.9513,3.9609,3.9561,3.9633,3.9633,3.932,3.8262,3.795,3.7926,3.795,3.7902,3.7998,3.7998,3.7878,3.807,3.3761,0.0,0.0,0.0,0.0,3.2919,3.3674,3.4225,3.3587,3.3674,3.4225,3.3587,0.0,0.0,0.0,0.0,0.0,0.0,3.6344,3.8347,3.8376,3.8812,3.9538,3.9567,3.9538,3.9567,3.9567,3.9799,4.0205,3.9538,3.7947,3.5581,0.0,0.0,0.0,0.0,3.9424,4.0793,4.2139,4.3181,4.377,4.4059,4.4144,4.4144,4.4144,4.4144,4.4144,4.3385,4.2598,4.1783,4.0013,0.0,0.0,0.0,0.0,0.0,0.0,0.0,0.0,0.0,0.0,0.0,0.0,0.0,0.0,0.0,0.0,0.0,0.0,0.0,3.2993,3.2685,3.2166,0.0,0.0,0.0,0.0,0.0,0.0,0.0,0.0,0.0,3.5665,3.5449,3.5545,0.0,0.0,3.7252,3.8022,3.8262,3.8479,3.8864,0.0,0.0,0.0,3.9248,3.9248,3.9561,3.9465,3.9561,4.009,4.0186,4.0282,4.0667,4.0739,4.0619,4.0306,3.9633,3.9176,3.9152,3.9152,3.9128,3.9152,3.9128,3.92,3.6025,3.4457,3.4951,3.4719,3.4109,3.4835,3.5532,3.6112,3.5735,3.5909,3.646,3.6083,3.5909,3.5909,3.5909,0.0,0.0,0.0,3.8347,3.9944,3.9944,4.0292,4.0873,4.1134,4.125,4.125,4.1512,4.186,4.2237,4.2266,4.1319,3.947,0.0,0.0,3.8686,3.99,4.1109,4.2317,4.3104,4.3891,4.4762,4.5015,4.5043,4.479,4.4762,4.4678,4.4425,4.4059,4.3582,4.2964,4.1643,4.0041,0.0,0.0,0.0,0.0,0.0,0.0,0.0,0.0,0.0,0.0,0.0,3.0052,3.1523,0.0,0.0,0.0,3.4017,3.4685,3.5002,3.4776,0.0,0.0,0.0,0.0,0.0,0.0,0.0,3.4939,3.5649,3.6594,3.8032,3.7861,3.7733,3.807,3.8142,3.8383,3.9032,0.0,3.9248,3.9561,3.9609,3.9681,3.9874,3.9922,4.0066,4.0475,4.0739,4.0956,4.1268,4.1341,4.1437,4.1725,4.1822,4.1798,4.1798,4.1268,4.0691,4.0331,4.0234,4.0234,4.0234,4.0234,4.0234,3.8028,3.7476,3.6867,3.6548,3.646,3.6577,3.6954,3.7506,3.7535,3.7854,3.8347,3.8347,3.8318,3.8289,3.8289,0.0,3.9276,3.9276,3.9973,4.125,4.125,4.1599,4.2266,4.2789,4.3079,4.3079,4.3689,4.4008,4.4037,4.4037,4.4008,4.3863,4.2453,4.1568,4.1227,4.1562,4.2345,4.3469,4.3582,4.4228,4.538,4.5998,4.5998,4.5436,4.5352,4.5043,4.4509,4.4425,4.4144,4.3582,4.2992,4.184,4.0097,0.0,0.0,0.0,0.0,0.0,0.0,0.0,0.0,0.0,0.0,0.0,0.0,0.0,0.0,0.0,3.7456,0.0,3.6936,3.736,0.0,0.0,0.0,3.6004,3.5584,3.578,3.6363,3.7543,0.0,0.0,3.9734,0.0,4.0428,3.9951,3.9768,3.972,3.9768,3.9792,3.9792,3.9985,3.9937,4.0105,4.0708,4.0781,4.107,4.1914,4.2565,4.2758,4.2782,4.2782,4.2855,4.2687,4.2735,4.2711,4.2735,4.2639,4.2471,4.1461,4.1317,4.1317,4.1317,4.1293,4.1317,3.9567,3.9421,3.9276,3.8638,3.7854,3.8783,3.9276,3.9421,3.945,3.9509,3.9654,3.9654,3.9392,3.8986,3.8957,3.9305,3.9886,3.9886,4.0844,4.2498,4.2557,4.2905,4.3544,4.3689,4.3747,4.3776,4.3921,4.4211,4.4647,4.4676,4.5169,4.5949,4.4985,4.3856,4.2531,4.2829,4.3188,4.3497,4.4425,4.5268,4.6026,4.6223,4.6223,4.6055,4.5577,4.5268,4.5127,4.465,4.434,4.4172,4.361,4.2851,4.1952,4.0154,0.0,0.0,0.0,0.0,0.0,0.0,0.0,0.0,0.0,3.4706,3.5981,0.0,3.7758,0.0,3.9311,3.9951,4.0005,3.9553,0.0,0.0,3.8463,3.8543,3.8871,3.9143,3.9599,4.0312,4.027,4.055,4.1464,4.1529,4.1668,4.2066,4.109,4.0392,4.0807,4.0881,4.1174,4.1907,4.2054,4.2274,4.2714,4.2861,4.2934,4.3203,4.3374,4.3423,4.3093,4.3093,4.3093,4.2879,4.276,4.276,4.2784,4.276,4.2711,4.2447,4.2375,4.2399,4.2375,4.2351,4.2375,4.0089,4.0118,4.0408,4.0147,3.9538,3.9915,4.0089,4.0118,4.0408,4.0554,4.0554,4.0844,4.0786,4.0525,4.0757,4.1076,4.1395,4.1686,4.2411,4.3427,4.3427,4.3631,4.4008,4.4269,4.4385,4.4414,4.4966,4.543,4.575,4.604,4.6534,4.7259,4.6605,4.578,4.4755,4.428,4.4124,4.4312,4.5521,4.6335,4.6701,4.6982,4.6841,4.6307,4.5942,4.5493,4.4931,4.4593,4.4425,4.4397,4.4088,4.361,4.302,4.1755,4.0182,0.0,0.0,0.0,0.0,0.0,0.0,0.0,0.0,0.0,0.0,0.0,3.9787,4.0594,4.1202,4.155,4.1581,4.1462,4.1223,4.1066,4.1248,4.1516,4.1716,4.1881,4.2136,4.2632,4.2442,4.2531,4.3201,4.3373,4.3628,4.407,4.3568,4.2897,4.2326,4.2298,4.2692,4.3375,4.3357,4.3339,4.3634,4.4116,4.4383,4.4171,4.4368,4.4516,4.4157,4.4037,4.382,4.3699,4.3602,4.3457,4.3457,4.3457,4.3457,4.3457,4.3457,4.3289,4.2856,4.276,4.276,4.0583,4.0641,4.1221,4.1482,4.1424,4.0844,4.0495,4.0379,4.0989,4.1221,4.125,4.1831,4.2063,4.2005,4.2615,4.2876,4.2934,4.3573,4.395,4.4095,4.4095,4.4182,4.4385,4.4879,4.5169,4.5285,4.6417,4.694,4.6969,4.7491,4.7811,4.7898,4.7623,4.7338,4.7148,4.5779,4.5242,4.5577,4.6645,4.7263,4.7347,4.7853,4.7572,4.6476,4.6335,4.5745,4.4593,4.4453,4.4425,4.4425,4.4425,4.4172,4.3638,4.302,4.1924,0.0,3.9648,0.0,0.0,0.0,0.0,0.0,0.0,0.0,0.0,4.1025,4.1671,4.2823,4.302,4.2957,4.2747,4.3222,4.3464,4.3305,4.3932,4.4398,4.4157,4.4118,4.4273,4.4625,4.4388,4.4413,4.4964,4.549,4.5805,4.5936,4.633,4.5987,4.4459,4.4036,4.4286,4.4577,4.4419,4.4543,4.4593,4.5246,4.5641,4.5216,4.5515,4.5914,4.55,4.5159,4.4915,4.4792,4.4645,4.4422,4.4347,4.4323,4.4323,4.4275,4.4251,4.401,4.3289,4.3048,4.2952,4.3253,4.3253,4.3398,4.3456,4.3427,4.3311,4.2673,4.1744,4.186,4.1889,4.1918,4.2034,4.1802,4.1366,4.1976,4.2266,4.2295,4.2905,4.3718,4.4705,4.4705,4.5285,4.6272,4.6417,4.6737,4.723,4.7491,4.7608,4.7608,4.7724,4.8043,4.8508,4.8014,4.7854,4.8028,0.0,0.0,0.0,4.7094,4.7459,4.7937,4.8078,4.7769,4.7066,4.656,0.0,4.5183,4.4678,4.4425,4.4425,4.4425,0.0,0.0,0.0,0.0,0.0,0.0,0.0,0.0,0.0,0.0,0.0,4.2907,4.257,4.1587,4.2823,4.4031,4.4734,4.5268,4.5577,4.5481,4.5593,4.5649,4.5677,4.5581,4.5718,4.6162,4.5852,4.582,4.6315,4.5951,4.5981,4.6759,4.6732,4.6974,4.7676,4.8104,4.8065,4.7734,4.6656,4.6176,4.6564,4.6888,4.7341,4.7393,4.7445,4.7587,4.7548,4.7365,4.7112,4.661,4.6155,4.5817,4.5331,4.5208,4.4963,4.4717,4.4717,4.4594,4.4347,4.4347,4.4299,4.4082,4.4034,4.4058,4.4008,0.0,4.4008,4.4008,0.0,4.4008,4.3631,4.3021,4.3021,4.305,4.3021,4.3021,4.2847,4.2557,4.3195,4.3485,4.3515,4.4443,4.5227,4.5837,4.6156,4.665,4.7288,4.7317,4.7462,4.7782,4.8101,4.8246,4.8275,4.8566,4.8885,4.9175,4.8856,4.8789,4.8816,4.8081,4.7546,4.7207,4.7516,4.7825,4.8106,4.8134,4.7853,4.7235,0.0,0.0,0.0,0.0,0.0,0.0,0.0,0.0,0.0,0.0,0.0,4.3975,4.3919,4.3807,4.3497,4.4059,4.4537,4.4846,4.5155,4.4818,4.3554,4.4621,4.5464,4.5774,4.6111,4.6307,4.6307,4.656,4.6757,4.6757,4.6911,4.7119,4.7298,4.705,4.7094,4.7619,4.7311,4.7425,4.8133,4.8381,4.8627,4.9091,4.9501,4.9745,4.9633,4.8605,4.7872,4.8136,4.8744,4.8957,4.8753,4.8983,4.8983,4.8753,4.8521,4.8262,4.7769,4.7087,4.6636,4.6155,4.5793,4.5453,4.4963,4.484,4.4717,4.4347,4.4347,4.4347,4.4347,4.4347,4.4347,4.4327,4.4327,4.4327,4.4327,4.4327,4.4327,4.4327,4.4327,0.0,0.0,0.0,4.4269,4.4327,4.4356,4.4966,4.5227,4.5314,4.6475,4.6998,4.7027,4.755,4.784,4.7956,4.7956,4.8014,4.8159,4.8653,4.8885,4.8914,4.9436,4.9698,4.9698,4.9698,4.9571,4.9305,4.8881,4.8311,4.7672,4.7937,4.8134,4.8134,4.8134,4.7825,4.7235,4.7207,4.6673,4.5549,4.5493,4.5268,4.479,4.5212,4.5493,4.5521,4.5998,4.6055,4.5549,4.5605,4.5661,4.5661,4.5774,4.6055,4.6588,4.6616,4.6335,4.5717,4.6139,4.6504,4.6616,4.6616,4.6616,4.6616,4.7066,4.7375,4.7375,4.7909,4.8274,4.8302,4.8182,4.8359,4.8674,4.868,4.8797,4.9301,4.9879,5.0159,5.0297,5.0657,5.1017,5.0906,5.0014,4.9422,4.9475,4.987,4.9983,4.9643,4.9756,4.987,4.9529,4.9522,4.9347,4.9001,4.8355,4.7725,4.747,4.6793,4.6116,4.5503,4.5305,4.4984,4.4635,4.4635,4.4635,4.4635,4.4635,4.4587,4.5634,4.5634,4.5605,4.5605,4.5634,4.5605,4.5634,4.5576,4.5024,4.4763,4.4792,4.5372,4.5634,4.5663,4.6272,4.6563,4.6592,4.7317,4.7637,0.0,4.7753,4.8072,4.8566,4.8595,4.8885,4.9378,4.9494,4.9553,4.9553,4.964,4.9698,4.9698,4.9698,4.96,4.9305,4.9207,4.9109,4.9133,4.8432,4.8134,4.8134,4.8134,4.7825,4.7263,4.7235,4.6897,4.6195,4.6167,4.6111,4.6026,4.6111,4.6167,4.6167,4.6279,4.6251,4.6195,4.6645,4.6954,4.6954,4.7431,4.7769,4.7853,4.7881,4.76,4.701,4.7038,4.7291,4.7797,4.7797,4.7853,4.7881,4.7937,4.7993,4.805,4.8555,4.8921,4.8921,4.9342,4.9679,4.9792,4.982,4.9967,5.0528,5.0724,5.1005,5.1425,5.1484,5.1677,5.1568,5.1128,5.0656,5.0683,5.0683,5.0767,5.0738,5.0683,5.0766,5.0656,5.0925,5.0999,5.0655,5.0281,4.993,4.9557,4.8755,4.7951,4.7085,4.6808,4.6357,4.5827,4.57,4.5597,4.5573,4.5597,4.5381,4.6911,4.6911,4.6911,4.6911,4.6911,4.6911,4.6911,4.694,4.6969,4.6563,4.5982,4.6272,4.6592,4.694,4.723,4.7346,4.7375,4.8014,4.8304,4.8333,4.8653,4.8972,4.9233,4.9233,4.9407,4.9669,4.9698,4.9698,4.9698,4.9698,4.9698,4.9698,5.0017,5.0394,5.0514,5.0443,5.0385,5.0309,4.9303,4.8883,4.9089,4.9117,4.8977,4.8696,4.8696,4.8415,4.7825,4.7769,4.7628,4.7291,4.76,4.7797,4.7797,4.8078,4.8274,4.8274,4.8246,4.8218,4.819,4.8162,4.8134,4.8134,4.8134,4.8021,4.774,4.7712,4.7825,4.8106,4.8134,4.8134,4.8134,4.8415,4.8612,4.8612,4.9174,4.9539,4.9567,4.9764,5.0073,5.0382,5.0466,5.0691,5.1281,5.1365,5.145,5.1759,5.1787,5.1787,5.1815,5.1876,5.1711,5.146,5.1627,5.1822,5.185,5.2156,5.2436,5.2463,5.2348,5.2287,5.2086,5.1782,5.1159,5.0592,4.975,4.8897,4.7933,4.7432,4.7055,4.6675,4.6548,4.6421,4.6294,4.6038,4.5742,4.7782,4.7782,4.7782,4.7782,4.7782,4.7782,4.7782,4.784,4.8275,4.8043,4.7346,4.7404,4.7753,4.8188,4.8217,4.8217,4.8275,4.8711,4.8943,4.8972,4.9436,4.9698,4.9698,4.9698,4.9756,4.9901,4.9901,4.9988,5.0104,5.0104,5.0104,5.0162,5.0627,5.112,5.1614,5.141,5.1366,5.135,5.0509,5.0011,5.0037,5.0065,5.0065,4.996,4.9932,4.9735,4.9286,4.9258,4.9033,4.8583,4.9005,4.9258,4.9286,4.9707,4.996,4.9904,4.9511,4.9258,4.9333,4.8911,4.8629,4.8731,4.8731,4.8731,4.8731,4.8629,4.8471,4.8359,4.8499,4.8583,4.864,4.8949,4.9258,4.9286,4.9792,5.0157,5.0157,5.0297,5.055,5.1,5.1084,5.1281,5.1646,5.1787,5.1759,5.1759,5.1899,5.1983,5.2068,5.2517,5.2658,5.2461,5.263,5.2883,5.2939,5.3276,5.3557,5.3669,5.3555,5.3497,5.3323,5.2917,5.2326,5.1815,5.0922,5.0123,4.896,4.846,4.8133,4.7651,4.7572,4.7371,4.6883,4.6625,4.6175,4.7811,4.7782,4.7898,4.7782,4.7869,4.7869,4.7898,4.7869,4.7898,4.8159,4.8624,4.9146,4.9407,4.9494,4.9436,4.9436,4.9465,4.9553,4.9582,4.9611,4.964,4.9698,4.9756,4.9698,4.9988,5.0511,5.0569,5.0859,5.1323,5.1381,5.141,5.1439,5.1497,5.1556,5.1643,5.1672,5.1699,5.2012,5.188,5.1385,5.0408,5.0379,5.0275,4.996,4.996,4.9932,4.9904,4.9876,4.9848,4.9792,4.9848,4.9876,5.0009,4.9932,4.996,5.0094,4.9932,4.9981,5.019,5.0266,5.0256,5.0492,5.0435,5.0435,5.0435,5.0285,4.9851,4.9305,4.9454,4.9679,4.9792,4.9848,4.9876,4.9904,5.0438,5.0775,5.0831,5.1281,5.1646,5.1674,5.1618,5.1731,5.1759,5.1815,5.1815,5.1871,5.2349,5.263,5.2686,5.3164,5.3557,5.3473,5.3585,5.3585,5.3613,5.3613,5.3838,5.381,5.4175,5.4313,5.4338,5.4413,5.4449,5.3288,5.3025,5.1997,5.1059,5.0561,4.9977,4.9188,4.8853,4.8719,4.7987,4.752,4.7075,5.0046,5.0046,5.0046,5.0046,5.0046,5.0046,5.0046,5.0046,5.0046,5.022,5.0423,5.0714,5.0394,4.9698,4.9698,4.9872,5.0249,5.0278,5.0481,5.0801,5.083,5.083,5.083,5.083,5.0975,5.1207,5.1236,5.1352,5.1585,5.1643,5.1788,5.2165,5.2194,5.2368,5.2717,5.2746,5.2758,5.2885,5.2914,5.2588,5.2043,5.1803,5.1591,5.1378,5.1243,5.1271,5.1056,5.1056,5.1164,5.1271,5.1271,5.1378,5.1591,5.1591,5.1591,5.1563,5.1222,5.0853,5.0588,5.0663,5.0663,5.0766,5.0766,5.0766,5.0795,5.1005,5.0909,5.0501,5.015,4.996,5.0016,5.0269,5.0494,5.0578,5.1056,5.1421,5.1421,5.1618,5.1787,5.1787,5.1787,5.1787,5.1843,5.2124,5.2293,5.2405,5.2883,5.3248,5.3304,5.381,5.4175,5.4259,5.4512,5.4569,5.4344,5.454,5.4681,5.4765,5.4934,5.5102,5.5159,5.5038,5.4762,5.4433,5.3888,5.3281,5.2412,5.197,5.1596,5.0867,4.995,4.9565,4.9047,4.8289,4.7652,5.1643,5.1643,5.1643,5.1643,5.1643,5.1643,5.1643,5.1643,5.1643,5.1643,5.1643,5.1643,5.112,5.0307,5.0191,5.0481,5.0888,5.0917,5.1178,5.1614,5.1643,5.1614,5.1643,5.1643,5.1701,5.1846,5.1875,5.1962,5.2107,5.2136,5.2368,5.2775,5.2833,5.3065,5.3471,5.35,5.35,5.35,5.35,5.3424,5.3213,5.3001,5.2759,5.2358,5.2329,5.225,5.2004,5.2004,5.2113,5.2329,5.2329,5.2437,5.268,5.268,5.268,5.2652,5.2223,5.1871,5.1413,5.1413,5.1489,5.1489,5.1489,5.1489,5.1575,5.1919,5.1937,5.1726,5.1144,5.0706,5.0522,5.0859,5.1112,5.1169,5.1562,5.1787,5.1759,5.1787,5.1787,5.1787,5.1787,5.1871,5.2096,5.2574,5.2967,5.3023,5.3501,5.3922,5.4007,5.4428,5.485,5.485,5.5215,5.5271,5.4962,5.5102,5.5468,5.5496,5.5468,5.544,5.5552,5.5373,5.5277,5.5206,5.4605,5.4351,5.4051,5.3697,5.3192,5.2543,5.1534,5.051,5.0193,4.9175,4.8645,5.1643,5.1643,5.1643,5.1701,5.1643,5.1672,5.1672,5.1759,5.1701,5.1672,5.173,5.1701,5.1614,5.1556,5.1527,5.1556,5.1585,5.1585,5.1643,5.173,5.173,5.1643,5.1643,5.1643,5.1962,5.2514,5.2514,5.2804,5.3297,5.3384,5.3442,5.3442,5.3413,5.3471,5.35,5.35,5.35,5.35,5.35,5.35,5.353,5.3424,5.3213,5.2787,5.268,5.268,5.268,5.268,5.268,5.268,5.268,5.268,5.268,5.268,5.2787,5.2652,5.2652,5.2701,5.2857,5.2905,5.3011,5.325,5.3163,5.325,5.3135,5.3011,5.2857,5.2943,5.2615,5.2238,5.1807,5.1699,5.1674,5.1674,5.1731,5.1787,5.1787,5.1787,5.1787,5.1843,5.1927,5.218,5.263,5.322,5.3557,5.3726,5.4175,5.454,5.4625,5.5074,5.5327,5.5412,5.5468,5.5496,5.5468,5.558,5.558,5.5664,5.5777,5.5664,5.5749,5.5771,5.5961,5.6121,5.6159,5.611,5.5813,5.5469,5.4862,5.4027,5.2827,5.1946,5.1271,5.038,4.9683,5.2833,5.2833,5.2833,5.2833,5.2833,5.2833,5.2833,5.2833,5.2833,5.2833,5.2833,5.2804,5.2833,5.2833,5.2833,5.2601,5.2252,5.2223,5.2455,5.2775,5.2833,5.2833,5.2833,5.2833,5.292,5.3123,5.3181,5.3297,5.3471,5.35,5.35,5.35,5.35,5.35,5.35,5.35,5.35,5.35,5.35,5.35,5.35,5.35,5.3395,5.3213,5.3001,5.2894,5.268,5.268,5.2787,5.2894,5.3001,5.3001,5.3213,5.3213,5.3213,5.3213,5.3213,5.3213,5.3319,5.3319,5.3424,5.35,5.35,5.35,5.35,5.3424,5.3319,5.3107,5.3001,5.2787,5.2465,5.225,5.2004,5.1787,5.1787,5.1815,5.1787,5.1787,5.1927,5.2321,5.2714,5.3107,5.3332,5.3866,5.4231,5.4316,5.4793,5.5102,5.5187,5.5383,5.5552,5.558,5.5833,5.6086,5.6086,5.6086,5.6142,5.6254,5.6339,5.662,5.6788,5.6788,5.6893,5.6949,5.7164,5.7304,5.687,5.6596,5.61,5.5393,5.4096,5.3166,5.2385,5.1448,5.0616,5.3605,5.35,5.35,5.35,5.35,5.35,5.35,5.35,5.35,5.35,5.35,5.35,5.35,5.35,5.35,5.3297,5.2891,5.2891,5.3123,5.3471,5.35,5.35,5.35,5.35,5.35,5.35,5.35,5.35,5.35,5.35,5.35,5.35,5.35,5.35,5.35,5.35,5.35,5.35,5.35,5.35,5.353,5.3733,5.382,5.3849,5.3637,5.3308,5.3001,5.3001,5.3001,5.3213,5.3213,5.3319,5.35,5.35,5.35,5.35,5.35,5.35,5.35,5.35,5.35,5.35,5.35,5.35,5.35,5.35,5.3424,5.3319,5.3213,5.3107,5.2951,5.2744,5.2556,5.2089,5.2065,5.2068,5.2096,5.2293,5.2602,5.2995,5.3557,5.3894,5.4035,5.454,5.4821,5.4878,5.5271,5.5496,5.5496,5.5693,5.5805,5.5861,5.6367,5.6648,5.6816,5.6929,5.6873,5.6957,5.6957,5.7322,5.7575,5.7603,5.7688,5.7716,5.78,5.7912,5.7846,5.7696,5.7175,5.6526,5.5579,5.4472,5.3527,5.2521,5.174,5.371,5.35,5.35,5.35,5.35,5.35,5.35,5.35,5.35,5.35,5.35,5.35,5.35,5.35,5.35,5.3471,5.3442,5.3413,5.3442,5.35,5.35,5.35,5.35,5.35,5.35,5.35,5.35,5.35,5.35,5.35,5.35,5.35,5.35,5.3559,5.3559,5.3617,5.3588,5.3675,5.3733,5.3646,5.3617,5.4197,5.4517,5.4517,5.4517,5.4149,5.354,5.3482,5.3511,5.3588,5.3617,5.3559,5.3704,5.3675,5.3588,5.3675,5.3617,5.3588,5.3617,5.3675,5.3733,5.3733,5.3617,5.3733,5.3791,5.3733,5.3704,5.3656,5.3627,5.354,5.3366,5.3604,5.3474,5.2528,5.2569,5.2797,5.2909,5.3276,5.3669,5.3867,5.4203,5.4569,5.4709,5.5046,5.5355,5.5383,5.5524,5.5636,5.5721,5.6086,5.6395,5.6535,5.6929,5.735,5.7603,5.7828,5.7716,5.7631,5.7603,5.7772,5.7969,5.8053,5.825,5.8334,5.8502,5.8643,5.8643,5.8395,5.8133,5.7504,5.6645,5.5681,5.4654,5.3618,5.2826,5.4023,5.3815,5.3815,5.371,5.35,5.35,5.35,5.35,5.35,5.35,5.35,5.35,5.35,5.35,5.35,5.35,5.35,5.35,5.35,5.35,5.35,5.35,5.35,5.35,5.35,5.35,5.35,5.35,5.353,5.353,5.35,5.35,5.353,5.3762,5.4168,5.4197,5.4371,5.4778,5.4807,5.4836,5.4836,5.501,5.5126,5.5126,5.5126,5.501,5.4807,5.4429,5.4226,5.4197,5.4604,5.4807,5.4807,5.4807,5.4836,5.4807,5.4807,5.4807,5.4807,5.4807,5.4778,5.4807,5.4807,5.4807,5.4807,5.4778,5.4778,5.4778,5.4807,5.4728,5.4757,5.4656,5.4323,5.3286,5.366,5.403,5.4004,5.4346,5.4545,5.4686,5.4937,5.5187,5.5243,5.5496,5.5552,5.5636,5.5889,5.6142,5.6226,5.6676,5.7041,5.7154,5.7631,5.7997,5.8165,5.8362,5.8446,5.8362,5.8306,5.825,5.8418,5.8531,5.8727,5.8868,5.9093,5.9177,5.9205,5.8983,5.8606,5.8198,5.7322,5.6417,5.5419,5.4511,5.3563,5.4333,5.3993,5.3993,5.3919,5.3605,5.3605,5.3605,5.35,5.35,5.35,5.35,5.35,5.35,5.35,5.35,5.35,5.35,5.35,5.35,5.35,5.35,5.35,5.35,5.35,5.35,5.35,5.35,5.3646,5.3878,5.3907,5.3994,5.4168,5.4226,5.4429,5.4807,5.4865,5.5068,5.5358,5.5387,5.5416,5.5445,5.5649,5.5794,5.5794,5.5794,5.5794,5.5765,5.5416,5.5097,5.4952,5.5213,5.5387,5.5416,5.5387,5.5416,5.5416,5.5387,5.5387,5.5416,5.5329,5.5416,5.5416,5.5416,5.5387,5.5387,5.5416,5.5416,5.5416,5.5358,5.5416,5.5416,5.5568,5.5233,5.4696,5.4762,5.5106,5.5194,5.5452,5.5452,5.5451,5.5591,5.5697,5.5777,5.5861,5.5973,5.617,5.6535,5.6788,5.6901,5.7322,5.7575,5.7856,5.8278,5.8531,5.8643,5.8868,5.9149,5.9093,5.9008,5.8924,5.8952,5.8952,5.9064,5.9064,5.9205,5.9205,5.9233,5.9205,5.8955,5.8451,5.7816,5.6628,5.5551,5.4645,5.37,5.4671,5.4304,5.4304,5.42,5.389,5.3919,5.371,5.35,5.35,5.3559,5.3588,5.3675,5.3675,5.3646,5.382,5.382,5.3646,5.3762,5.382,5.3791,5.3791,5.382,5.382,5.3849,5.3849,5.3791,5.3762,5.4023,5.4517,5.4546,5.4836,5.5213,5.5213,5.5416,5.5445,5.5445,5.5533,5.5678,5.562,5.5649,5.5678,5.6142,5.6461,5.6461,5.6461,5.6461,5.6432,5.6374,5.6113,5.562,5.5649,5.5707,5.5591,5.5533,5.5649,5.5678,5.5562,5.562,5.5562,5.5707,5.5678,5.5707,5.5707,5.5503,5.5707,5.5765,5.5765,5.5736,5.5707,5.5649,5.5765,5.6113,5.6374,5.6321,5.5958,5.5963,5.6366,5.6337,5.6337,5.6221,5.6046,5.6156,5.6486,5.6479,5.6732,5.7069,5.7322,5.7435,5.7547,5.7884,5.825,5.8559,5.8812,5.8868,5.8952,5.898,5.9205,5.9205,5.9233,5.9233,5.9233,5.9233,5.9205,5.9205,5.9317,5.9289,5.9233,5.9233,5.8955,5.8451,5.7661,5.6601,5.5683,5.4913,5.4022,5.4905,5.4671,5.4671,5.4436,5.42,5.3993,5.3919,5.3815,5.3635,5.3849,5.4168,5.4255,5.4458,5.4865,5.4865,5.4923,5.4836,5.4836,5.4894,5.4923,5.4923,5.4923,5.4894,5.4894,5.4865,5.4836,5.4778,5.501,5.5155,5.5184,5.53,5.5387,5.5533,5.5707,5.6055,5.6142,5.6403,5.6752,5.6781,5.6752,5.6781,5.6897,5.7071,5.7071,5.7042,5.7042,5.7071,5.7071,5.7013,5.6839,5.681,5.681,5.6723,5.6723,5.6694,5.6694,5.6752,5.6781,5.6781,5.6752,5.6781,5.681,5.6665,5.6781,5.681,5.681,5.681,5.681,5.681,5.6752,5.681,5.6926,5.7042,5.7071,5.6846,5.6791,5.6964,5.688,5.691,5.7225,5.6875,5.6953,5.7259,5.7246,5.7238,5.7463,5.78,5.8053,5.8193,5.8446,5.8812,5.8924,5.9121,5.9149,5.9177,5.9177,5.9205,5.9205,5.9233,5.9261,5.9261,5.9261,5.9233,5.9205,5.9542,5.9626,5.9402,5.9261,5.8857,5.8856,5.8136,5.7418,5.6447,5.5604,5.4505,5.5078,5.5036,5.5304,5.5189,5.4983,5.5011,5.5024,5.4919,5.4738,5.4837,5.508,5.5109,5.5205,5.5387,5.5387,5.5387,5.5416,5.5416,5.5387,5.5445,5.5678,5.5649,5.5474,5.5387,5.5416,5.5416,5.5416,5.5562,5.5794,5.5823,5.5939,5.62,5.62,5.6403,5.6752,5.681,5.6926,5.7245,5.7303,5.7303,5.7303,5.7303,5.7303,5.7303,5.7303,5.7303,5.7303,5.7303,5.7303,5.7303,5.7303,5.7303,5.7303,5.7303,5.7303,5.7303,5.7303,5.7303,5.7303,5.7303,5.7303,5.7303,5.7303,5.7303,5.7274,5.7303,5.7303,5.7274,5.7303,5.7303,5.7303,5.7303,5.7448,5.7681,5.771,5.771,5.771,5.7654,5.7686,5.7887,5.7794,5.7639,5.8143,5.7987,5.7912,5.8137,5.8502,5.8643,5.8727,5.9036,5.9205,5.9205,5.9233,5.9233,5.9289,5.9289,5.9402,5.9402,5.9626,5.957,5.9486,5.9514,5.9598,5.9683,5.9851,5.9964,5.9851,5.9851,5.9878,5.9707,5.9128,5.8372,5.7273,5.6293,5.5138,5.5269,5.5359,5.5987,5.6153,5.5902,5.6407,5.6344,5.6356,5.6161,5.6035,5.5967,5.5996,5.5867,5.5591,5.5852,5.5678,5.5678,5.5794,5.5736,5.591,5.6171,5.6258,5.5881,5.5852,5.5823,5.5794,5.5649,5.5997,5.6374,5.649,5.6752,5.7013,5.7158,5.7245,5.7216,5.7245,5.7303,5.7303,5.7303,5.7303,5.7303,5.7303,5.7303,5.7303,5.7303,5.7303,5.7303,5.7303,5.7303,5.7303,5.7303,5.7303,5.7303,5.7303,5.7303,5.7303,5.7303,5.7303,5.7303,5.7303,5.7303,5.7303,5.7303,5.7303,5.7303,5.7303,5.7303,5.7303,5.7303,5.7303,5.7332,5.7361,5.771,5.8116,5.829,5.8406,5.8464,5.8435,5.8523,5.8869,5.8631,5.8589,5.8774,5.8664,5.8559,5.8643,5.8924,5.8952,5.898,5.9121,5.9205,5.9205,5.9233,5.9261,5.9317,5.9373,5.9542,5.9683,6.0104,6.0188,5.9992,6.002,6.016,6.0301,6.0413,6.0582,6.0722,6.0706,6.0818,6.0477,5.994,5.9035,5.8241,5.7006,5.5976,5.5957,5.6017,5.6645,5.6885,5.681,5.672,5.6704,5.6627,5.6415,5.6525,5.6523,5.661,5.6654,5.6839,5.6781,5.6897,5.6781,5.6781,5.6897,5.6926,5.6984,5.7071,5.6868,5.681,5.6839,5.681,5.6868,5.6955,5.7071,5.7071,5.7158,5.7274,5.7303,5.7303,5.7303,5.7303,5.7303,5.7303,5.7303,5.7303,5.7303,5.7303,5.7303,5.7303,5.7303,5.7303,5.7303,5.7303,5.7303,5.7303,5.7303,5.7303,5.7303,5.7303,5.7303,5.7303,5.7303,5.7303,5.7303,5.7303,5.7303,5.7303,5.7303,5.7303,5.7303,5.7303,5.7303,5.7303,5.7303,5.7332,5.7419,5.7826,5.8174,5.8464,5.8842,5.9277,5.9597,5.9364,5.9393,5.9682,5.9648,5.952,5.9757,5.9418,5.9313,5.9329,5.9205,5.9205,5.9205,5.9205,5.9289,5.9345,5.943,5.9542,5.9907,5.9992,6.016,6.0329,6.0666,6.1031,6.0835,6.075,6.0975,6.1003,6.0947,6.1172,6.1481,6.1312,6.1183,6.0969,6.0682,6.0006,5.9129,5.7887,5.6842,5.6346,5.6675,5.7304,5.7573,5.7633,5.7796,5.7839,5.7839,5.7732,5.7587,5.7416,5.7504,5.7459,5.7303,5.7303,5.7303,5.7303,5.7303,5.7303,5.7274,5.7303,5.7303,5.7303,5.7303,5.7303,5.7303,5.7303,5.7303,5.7303,5.7303,5.7274,5.7303,5.7303,5.7303,5.7303,5.7303,5.7303,5.7303,5.7303,5.7303,5.7303,5.7303,5.7303,5.7303,5.7303,5.7303,5.7303,5.7303,5.7303,5.7303,5.7303,5.7303,5.7303,5.7303,5.7303,5.7303,5.7303,5.7303,5.7303,5.7303,5.7303,5.7303,5.7303,5.7303,5.7303,5.7303,5.7303,5.7303,5.7332,5.739,5.7768,5.8377,5.8784,5.919,5.948,5.9974,6.038,6.0119,5.9974,6.0467,6.0283,6.0186,6.0079,5.992,5.9578,5.9329,5.9205,5.9205,5.9205,5.9261,5.9486,5.9598,5.9683,5.9907,6.0413,6.0694,6.0919,6.1116,6.1425,6.179,6.1931,6.1874,6.1874,6.1762,6.1621,6.1959,6.2183,6.1959,6.1874,6.1912,6.1705,6.0905,6.0048,5.9043,5.7878,5.6765,5.7304,5.7992,5.8291,5.8351,5.883,5.9009,5.9069,5.9099,5.8515,5.8305,5.8195,5.7804,5.7416,5.7303,5.7303,5.7303,5.7303,5.7303,5.7303,5.7303,5.7303,5.7303,5.7303,5.7303,5.7303,5.7303,5.7303,5.7303,5.7303,5.7303,5.7303,5.7303,5.7303,5.7303,5.7303,5.7303,5.7303,5.7303,5.7303,5.7303,5.7303,5.7303,5.7303,5.7303,5.7303,5.7303,5.7303,5.7303,5.7303,5.7303,5.7303,5.7303,5.7303,5.7303,5.7303,5.7303,5.7303,5.7303,5.7303,5.7303,5.7303,5.7303,5.7303,5.7303,5.7332,5.7419,5.7565,5.7681,5.7971,5.8435,5.9045,5.9597,6.0003,6.0206,6.0613,6.0903,6.0671,6.07,6.0961,6.0899,6.0595,6.0381,6.0194,5.9702,5.9358,5.9358,5.9289,5.9317,5.9458,5.9767,6.0076,6.0245,6.0554,6.1059,6.1537,6.1734,6.179,6.2099,6.2324,6.2661,6.2549,6.238,6.238,6.2408,6.2633,6.2717,6.2549,6.2605,6.2781,6.2564,6.1697,6.0973,6.0096,5.8789,5.7872,5.8022,5.868,5.8949,5.8949,5.9069,5.9099,5.9099,5.9099,5.8773,5.8305,5.8195,5.7863,5.7416,5.7303,5.7303,5.7303,5.7303,5.7303,5.7303,5.7303,5.7303,5.7303,5.7303,5.7303,5.7303,5.7303,5.7303,5.7303,5.7303,5.7303,5.7303,5.7303,5.7303,5.7303,5.7303,5.7303,5.7303,5.7303,5.7303,5.7303,5.7303,5.7303,5.7303,5.7303,5.7303,5.7303,5.7303,5.7303,5.7303,5.7303,5.7303,5.7303,5.7303,5.7303,5.7303,5.7303,5.7303,5.7303,5.7303,5.7303,5.7303,5.7303,5.7303,5.7303,5.739,5.7652,5.8174,5.861,5.8987,5.9132,5.9684,6.0032,6.0322,6.0671,6.1019,6.1106,6.1077,6.0961,6.1164,6.1073,6.0952,6.0589,6.0373,6.0185,5.9995,5.9832,5.9962,6.009,6.0202,6.0273,6.061,6.0919,6.1312,6.1734,6.224,6.2577,6.2492,6.2605,6.2605,6.283,6.2886,6.283,6.2717,6.2689,6.2802,6.2886,6.2914,6.2914,6.2942,6.2648,6.2515,6.1546,6.0591,5.9315,5.8321,5.865,5.8979,5.9099,5.9099,5.9099,5.9099,5.9099,5.9099,5.8882,5.8555,5.8305,5.7974,5.7669,5.7303,5.7303,5.7303,5.7303,5.7303,5.7303,5.7303,5.7303,5.7303,5.7303,5.7303,5.7303,5.7303,5.7303,5.7303,5.7303,5.7303,5.7303,5.7303,5.7303,5.7303,5.7303,5.7332,5.7332,5.7332,5.7332,5.7332,5.7332,5.7332,5.7332,5.7332,5.7303,5.7303,5.7303,5.7303,5.7303,5.7303,5.7303,5.7303,5.7303,5.7303,5.7303,5.7303,5.7303,5.7303,5.7303,5.7303,5.7303,5.7332,5.7303,5.7419,5.7652,5.8145,5.8755,5.9364,5.9771,5.9771,6.0322,6.0671,6.0758,6.1019,6.1164,6.1193,6.1193,6.1193,6.1222,6.1251,6.1102,6.0802,6.0646,6.0639,6.0508,6.0403,6.0552,6.078,6.0949,6.0963,6.1312,6.165,6.1959,6.2268,6.2577,6.2914,6.2914,6.2914,6.2914,6.2914,6.2914,6.2914,6.2858,6.2914,6.2914,6.2914,6.2914,6.2914,6.2914,6.2781,6.2515,6.1979,6.1002,5.9734,5.862,5.9099,5.9099,5.9099,5.9099,5.9099,5.9099,5.9099,5.9099,5.8882,5.8694,5.8445,5.8225,5.7892,5.7528,5.7416,5.7303,5.7303,5.7303,5.7303,5.7303,5.7303,5.7303,5.7303,5.7303,5.7303,5.7303,5.7303,5.7303,5.7303,5.7303,5.7303,5.7303,5.7303,5.7303,5.7303,5.7332,5.7507,5.7507,5.7536,5.7652,5.7565,5.7507,5.7448,5.739,5.7303,5.7303,5.7303,5.7303,5.7303,5.7303,5.7303,5.7303,5.7303,5.7303,5.7303,5.7303,5.7303,5.7303,5.7303,5.7303,5.7303,5.7448,5.7507,5.7768,5.829,5.8958,5.948,6.0032,6.0409,6.0467,6.0874,6.1106,6.1135,6.1135,6.1193,6.1193,6.1222,6.1338,6.1338,6.1338,6.1305,6.1299,6.1206,6.1257,6.1537,6.1432,6.1428,6.16,6.1614,6.184,6.2145,6.2408,6.2633,6.2773,6.2717,6.2914,6.2914,6.2914,6.2914,6.2914,6.2914,6.2914,6.2914,6.2914,6.2914,6.2914,6.2914,6.2914,6.2914,6.2914,6.2648,6.2113,6.1438,6.0315,5.9039,5.9099,5.9099,5.9099,5.9099,5.9099,5.9099,5.9099,5.9099,5.9021,5.8694,5.8664,5.8445,5.8114,5.7892,5.7528,5.7416,5.7303,5.7303,5.7303,5.7303,5.7303,5.7303,5.7303,5.7303,5.7361,5.7361,5.7303,5.7361,5.739,5.7361,5.7361,5.7419,5.739,5.7594,5.7623,5.7623,5.8087,5.8174,5.8435,5.8784,5.8435,5.8232,5.8058,5.7739,5.7507,5.7536,5.7507,5.7419,5.739,5.7332,5.7303,5.7303,5.7303,5.7303,5.7303,5.7303,5.7303,5.7332,5.739,5.7448,5.7565,5.7855,5.8116,5.8493,5.9161,5.9829,6.0061,6.0642,6.0932,6.0932,6.1106,6.1193,6.1193,6.1193,6.1222,6.1251,6.1454,6.1571,6.189,6.2006,6.2064,6.2029,6.2,6.2087,6.2245,6.2399,6.2492,6.2395,6.2437,6.2321,6.2568,6.2661,6.2858,6.2914,6.2914,6.2914,6.2914,6.2914,6.2914,6.2914,6.2914,6.2914,6.2914,6.2914,6.2914,6.2914,6.2914,6.2914,6.2914,6.2914,6.2648,6.2381,6.1709,6.0865,5.9099,5.9099,5.9099,5.9099,5.9099,5.9099,5.9099,5.9099,5.9099,5.8991,5.8882,5.8773,5.8555,5.8225,5.7892,5.7781,5.7557,5.7416,5.7303,5.7303,5.7303,5.7303,5.7303,5.7303,5.7303,5.7448,5.7652,5.7913,5.7797,5.7536,5.7448,5.7855,5.7913,5.8145,5.8232,5.8406,5.861,5.8813,5.89,5.9016,5.9161,5.9045,5.8871,5.8871,5.8552,5.8406,5.829,5.8029,5.7884,5.7797,5.7594,5.7303,5.7303,5.7303,5.7303,5.7332,5.771,5.771,5.7419,5.7681,5.7826,5.8029,5.8493,5.8987,5.9364,5.9829,6.0438,6.0758,6.099,6.1164,6.1193,6.1193,6.1193,6.1193,6.1251,6.1483,6.16,6.1716,6.1919,6.2325,6.2674,6.279,6.2877,6.2877,6.3022,6.3246,6.3313,6.3417,6.3379,6.3249,6.2971,6.2773,6.2858,6.2914,6.2914,6.2914,6.2914,6.2914,6.2914,6.2914,6.2914,6.2914,6.2914,6.2914,6.2914,6.2914,6.2914,6.2914,6.2914,6.2914,6.2914,6.2781,6.2648,6.2381,6.1411,5.9099,5.9099,5.9099,5.9099,5.9099,5.9099,5.9099,5.9099,5.9099,5.9099,5.9099,5.8882,5.8664,5.8335,5.8114,5.8003,5.7892,5.7528,5.7416,5.7416,5.7303,5.7303,5.739,5.7419,5.7594,5.7565,5.8261,5.8523,5.8406,5.8203,5.8203,5.8552,5.8552,5.8784,5.9132,5.919,5.9248,5.948,5.9742,5.9829,5.9829,5.9655,5.9539,5.948,5.9393,5.9306,5.9219,5.8871,5.8581,5.8464,5.8203,5.7942,5.771,5.7652,5.7652,5.771,5.8029,5.8174,5.8116,5.8319,5.8523,5.8755,5.9161,5.9742,6.0293,6.0467,6.0555,6.1106,6.1135,6.1193,6.1193,6.1193,6.1193,6.1251,6.1367,6.1687,6.2006,6.2238,6.2587,6.3051,6.3428,6.369,6.3748,6.3719,6.3864,6.4154,6.426,6.4277,6.4066,6.3777,6.3413,6.2914,6.2914,6.2914,6.2914,6.2914,6.2914,6.2914,6.2914,6.2914,6.2914,6.2914,6.2914,6.2914,6.2914,6.2914,6.2914,6.2914,6.2914,6.2914,6.2914,6.2914,6.2781,6.2515,6.1816,5.9099,5.9099,5.9099,5.9099,5.9099,5.9099,5.9099,5.9099,5.9099,5.9099,5.9099,5.8991,5.8882,5.8664,5.8555,5.8445,5.8195,5.7892,5.7781,5.764,5.7445,5.7419,5.7594,5.7913,5.8232,5.8348,5.8871,5.919,5.9248,5.9248,5.919,5.9248,5.9248,5.9277,5.9451,5.9655,5.9829,6.0148,6.0555,6.0816,6.07,6.0467,6.0177,6.0032,5.9655,5.9306,5.9335,5.9277,5.9219,5.9219,5.8987,5.8697,5.8319,5.8232,5.8232,5.829,5.8464,5.8726,5.8958,5.9103,5.9219,5.9393,5.98,6.038,6.0874,6.1048,6.1164,6.1164,6.1193,6.1193,6.1193,6.1193,6.1338,6.1483,6.1774,6.2209,6.2558,6.2877,6.3225,6.3777,6.4096,6.4299,6.4415,6.4328,6.4328,6.459,6.4648,6.4636,6.4181,6.3806,6.3442,6.3046,6.2914,6.2914,6.2914,6.2914,6.2914,6.2914,6.2914,6.2914,6.2914,6.2914,6.2914,6.2914,6.2914,6.2914,6.2914,6.2914,6.2914,6.2914,6.2914,6.2914,6.2781,6.2515,6.1681,5.9099,5.9099,5.9099,5.9099,5.9099,5.9099,5.9099,5.9099,5.9099,5.9099,5.9099,5.9099,5.8991,5.8882,5.8773,5.8664,5.8445,5.8003,5.7892,5.7844,5.7878,5.7884,5.8145,5.8493,5.8929,5.9045,5.9539,5.9858,5.9887,6.0148,6.0438,6.038,6.0032,6.0206,6.0293,6.0351,6.0555,6.07,6.1019,6.1164,6.1135,6.1019,6.0816,6.0758,6.07,6.0467,6.0438,6.0032,5.9916,5.9771,5.9539,5.9248,5.8987,5.8929,5.89,5.8958,5.9161,5.951,5.9742,5.9887,6.0003,6.0467,6.07,6.0903,6.1193,6.1193,6.1193,6.1193,6.1222,6.128,6.1222,6.1513,6.1803,6.1919,6.2238,6.2761,6.3109,6.3457,6.3806,6.4299,6.4532,6.4735,6.4822,6.4909,6.4909,6.4938,6.4996,6.4868,6.4354,6.3965,6.3573,6.3178,6.3046,6.2914,6.2914,6.2914,6.2914,6.2914,6.2914,6.2914,6.2914,6.2914,6.2914,6.2914,6.2914,6.2914,6.2914,6.2914,6.2914,6.2914,6.2914,6.2914,6.2648,6.2515,6.1816,5.9099,5.9099,5.9099,5.9099,5.9099,5.9099,5.9099,5.9099,5.9099,5.9099,5.9099,5.9099,5.9099,5.8991,5.8882,5.8773,5.8664,5.8254,5.815,5.8161,5.8286,5.8377,5.8755,5.9161,5.9568,5.9713,6.0148,6.0496,6.0526,6.099,6.1048,6.0932,6.0787,6.0845,6.099,6.1193,6.1193,6.1193,6.1193,6.1193,6.1193,6.1164,6.1135,6.1135,6.1077,6.1077,6.0961,6.07,6.0526,6.038,6.0177,5.9829,5.9655,5.9568,5.9568,5.9713,5.9945,6.0264,6.0438,6.0555,6.07,6.0961,6.1077,6.1135,6.1193,6.1193,6.1193,6.1222,6.1338,6.1454,6.1483,6.2006,6.2354,6.2529,6.2993,6.3486,6.3748,6.4067,6.4415,6.4822,6.4909,6.4938,6.4938,6.4996,6.4996,6.4996,6.4996,6.4868,6.4483,6.4224,6.3965,6.3573,6.3178,6.3046,6.2914,6.2914,6.2914,6.2914,6.2914,6.2914,6.2914,6.2914,6.2914,6.2914,6.2914,6.2914,6.2914,6.2914,6.2914,6.2914,6.2914,6.2914,6.2809,6.2648,6.2248,5.9099,5.9099,5.9099,5.9099,5.9099,5.9099,5.9099,5.9099,5.9099,5.9099,5.9099,5.9099,5.9099,5.9099,5.8991,5.8991,5.8912,5.8504,5.8438,5.8796,5.8752,5.8784,5.9306,5.9829,6.0206,6.0351,6.07,6.099,6.1077,6.1135,6.1193,6.1193,6.1077,6.1077,6.1164,6.1193,6.1193,6.1193,6.1193,6.1193,6.1193,6.1193,6.1193,6.1193,6.1193,6.1193,6.1135,6.1077,6.0961,6.0903,6.0903,6.0613,6.0264,6.0206,6.0206,6.0235,6.0235,6.0555,6.1048,6.1135,6.1135,6.1164,6.1193,6.1193,6.1193,6.1193,6.128,6.1396,6.1687,6.1977,6.2267,6.2645,6.2935,6.3225,6.369,6.4067,6.4328,6.4473,6.4793,6.4938,6.4967,6.4996,6.4996,6.4996,6.4996,6.4996,6.4996,6.4868,6.4612,6.4354,6.4095,6.3834,6.3442,6.3178,6.3046,6.2914,6.2914,6.2914,6.2914,6.2914,6.2914,6.2914,6.2914,6.2914,6.2914,6.2914,6.2914,6.2914,6.2914,6.2914,6.2914,6.2914,6.2942,6.2809,6.2381,5.9099,5.9099,5.9099,5.9099,5.9099,5.9099,5.9099,5.9099,5.9099,5.9099,5.9099,5.9099,5.9099,5.9099,5.9099,5.9129,5.905,5.9007,5.9138,5.9173,5.9392,5.9714,6.0032,6.0438,6.0816,6.0903,6.1135,6.1193,6.1164,6.1193,6.1193,6.1193,6.1193,6.1193,6.1193,6.1193,6.1193,6.1193,6.1193,6.1193,6.1193,6.1193,6.1193,6.1193,6.1193,6.1193,6.1193,6.1193,6.1193,6.1193,6.1193,6.1048,6.0816,6.0787,6.0816,6.0816,6.0845,6.0932,6.1164,6.1164,6.1164,6.1193,6.1193,6.1193,6.1193,6.1193,6.1396,6.1716,6.2064,6.2383,6.2761,6.3341,6.369,6.3835,6.4212,6.4561,6.4793,6.4851,6.4967,6.4967,6.4996,6.4996,6.4996,6.4996,6.4996,6.4996,6.4996,6.4996,6.4868,6.4612,6.4354,6.4095,6.3834,6.3573,6.331,6.3046,6.2914,6.2914,6.2914,6.2914,6.2914,6.2914,6.2914,6.2914,6.2914,6.2914,6.2914,6.2914,6.2914,6.2914,6.2914,6.2914,6.2942,6.2809,6.2676,5.9099,5.9099,5.9099,5.9099,5.9099,5.9099,5.9099,5.9099,5.9207,5.9207,5.9315,5.9315,5.9315,5.9315,5.9207,5.9099,5.9189,5.9347,5.9463,5.9497,6.0121,6.0324,6.0613,6.0932,6.1048,6.1193,6.1193,6.1193,6.1193,6.1193,6.1193,6.1193,6.1313,6.1404,6.1404,6.1404,6.1404,6.1523,6.1523,6.1404,6.1284,6.1313,6.1193,6.1193,6.1193,6.1193,6.1193,6.1193,6.1193,6.1193,6.1193,6.1193,6.1193,6.1193,6.1193,6.1193,6.1193,6.1193,6.1193,6.1193,6.1193,6.1193,6.1193,6.1193,6.1251,6.1425,6.1687,6.2035,6.2441,6.2935,6.3399,6.4038,6.4299,6.4444,6.4561,6.4909,6.4967,6.4996,6.4996,6.4996,6.4996,6.4996,6.4996,6.4996,6.4996,6.4996,6.4996,6.4996,6.4996,6.474,6.4612,6.4354,6.4095,6.3704,6.3442,6.3046,6.2914,6.2914,6.2914,6.2914,6.2914,6.2914,6.2914,6.2914,6.2914,6.2914,6.2914,6.2914,6.2914,6.2914,6.2914,6.2914,6.2914,6.2809,6.2809,5.9099,5.9099,5.9099,5.9099,5.9099,5.9099,5.9099,5.9099,5.9422,5.9529,5.9529,5.988,5.988,5.9636,5.9529,5.9422,5.9417,5.9657,6.0001,6.0284,6.0821,6.1028,6.1171,6.1255,6.1284,6.1193,6.1193,6.1193,6.1193,6.1284,6.1284,6.1284,6.1523,6.1613,6.1732,6.185,6.1969,6.188,6.1761,6.1613,6.1494,6.1404,6.1284,6.1284,6.1284,6.1313,6.1313,6.1433,6.1313,6.1313,6.1313,6.1193,6.1193,6.1193,6.1193,6.1193,6.1193,6.1193,6.1193,6.1193,6.1309,6.1367,6.1338,6.1251,6.1425,6.1832,6.2267,6.2674,6.3138,6.3632,6.4125,6.4502,6.4851,6.488,6.488,6.4996,6.4996,6.4996,6.4996,6.4996,6.4996,6.4996,6.4996,6.4996,6.4996,6.4996,6.4996,6.4996,6.4996,6.4996,6.474,6.4612,6.4224,6.3965,6.3573,6.331,6.3046,6.2914,6.2914,6.2914,6.2914,6.2914,6.2914,6.2914,6.2914,6.2914,6.2914,6.2914,6.2914,6.2914,6.2914,6.2914,6.2914,6.2914,6.2781,5.9099,5.9099,5.9099,5.9099,5.9099,5.9099,5.9207,5.9422,5.9713,5.9925,6.0167,6.0512,6.0377,6.0167,6.0167,5.9955,6.0197,6.0475,6.0937,6.1291,6.1694,6.2025,6.2057,6.1732,6.1613,6.1404,6.1404,6.1313,6.1313,6.1404,6.1494,6.1494,6.185,6.2087,6.2555,6.2788,6.2555,6.2321,6.2204,6.1969,6.1732,6.1613,6.1523,6.1523,6.1494,6.1642,6.1761,6.1761,6.1761,6.1761,6.1642,6.1523,6.1494,6.1284,6.1193,6.1193,6.1193,6.1193,6.1193,6.1193,6.1367,6.1716,6.1861,6.1832,6.2006,6.2441,6.2964,6.3341,6.3719,6.4154,6.4473,6.4793,6.4996,6.4996,6.4996,6.4996,6.4996,6.4996,6.4996,6.4996,6.4996,6.4996,6.4996,6.4996,6.4996,6.4996,6.4996,6.4996,6.4996,6.4996,6.4996,6.474,6.4483,6.4095,6.3834,6.3573,6.3178,6.2914,6.2914,6.2914,6.2914,6.2914,6.2914,6.2914,6.2914,6.2914,6.2914,6.2914,6.2914,6.2914,6.2914,6.2914,6.2914,6.2914,6.2914,5.9099,5.9099,5.9099,5.9099,5.9099,5.9207,5.9529,5.9849,6.0031,6.0346,6.0763,6.1103,6.1103,6.0897,6.0897,6.0721,6.0425,6.1446,6.1898,6.2012,6.2845,6.2924,6.2758,6.2438,6.2204,6.1969,6.1761,6.1642,6.1642,6.1642,6.185,6.185,6.2204,6.2672,6.3134,6.3592,6.3676,6.3334,6.2903,6.2555,6.2204,6.1969,6.185,6.185,6.185,6.1969,6.2321,6.2321,6.2321,6.2351,6.2087,6.185,6.1732,6.1404,6.1193,6.1193,6.1193,6.1193,6.1222,6.1483,6.1745,6.2122,6.2558,6.2877,6.2993,6.3283,6.3603,6.3893,6.4241,6.4561,6.4793,6.4996,6.4996,6.4996,6.4996,6.4996,6.4996,6.4996,6.4996,6.4996,6.4996,6.4996,6.4996,6.4996,6.4996,6.4996,6.4996,6.4996,6.4996,6.4996,6.4996,6.4868,6.4612,6.4354,6.4095,6.3704,6.331,6.3046,6.2914,6.2914,6.2914,6.2914,6.2914,6.2914,6.2914,6.2914,6.2914,6.2914,6.2914,6.2914,6.2914,6.2914,6.2914,6.2914,6.2914,5.9207,5.9207,5.9207,5.9315,5.9315,5.9529,5.9955,6.0481,6.0586,6.0897,6.1379,6.1885,6.2016,6.1784,6.1784,6.1481,6.1578,6.2359,6.2977,6.2641,6.4039,6.432,6.3902,6.3334,6.2989,6.2672,6.2351,6.2234,6.2234,6.2321,6.2438,6.2351,6.2903,6.3478,6.3932,6.4574,6.4795,6.4654,6.4127,6.3789,6.3019,6.2555,6.2234,6.2204,6.2321,6.2438,6.2788,6.2788,6.2788,6.2788,6.2555,6.2438,6.188,6.1523,6.1404,6.1313,6.1433,6.1404,6.1579,6.1899,6.2157,6.2709,6.3283,6.3719,6.3922,6.4009,6.4212,6.4328,6.4619,6.4735,6.4938,6.4996,6.4996,6.4996,6.4996,6.4996,6.4996,6.4996,6.4996,6.4996,6.4996,6.4996,6.4996,6.4996,6.4996,6.4996,6.4996,6.4996,6.4996,6.4996,6.4996,6.4996,6.4868,6.4483,6.4224,6.3965,6.3442,6.3178,6.3046,6.2914,6.2914,6.2914,6.2914,6.2914,6.2914,6.2914,6.2914,6.2914,6.2914,6.2914,6.2914,6.2914,6.2914,6.2914,6.2914,6.0061,6.0061,6.0272,6.0377,6.0377,6.0481,6.069,6.1,6.1512,6.1916,6.2513,6.2905,6.3099,6.2776,6.2776,6.2481,6.2499,6.3539,6.4208,6.4538,6.5439,6.5714,6.5204,6.4543,6.4015,6.3448,6.3134,6.2903,6.3019,6.3249,6.3478,6.3562,6.4015,6.4463,6.4826,6.5452,6.5777,6.5745,6.5638,6.4875,6.4015,6.3478,6.3134,6.3134,6.3249,6.3562,6.3902,6.4209,6.4239,6.4239,6.3592,6.2903,6.2116,6.1998,6.188,6.188,6.188,6.1909,6.2025,6.2345,6.275,6.3182,6.3727,6.4212,6.4561,6.4677,6.4764,6.4793,6.4851,6.4938,6.4996,6.4996,6.4996,6.4996,6.4996,6.4996,6.4996,6.4996,6.4996,6.4996,6.4996,6.4996,6.4996,6.4996,6.4996,6.4996,6.4996,6.4996,6.4996,6.4996,6.4996,6.4996,6.4996,6.474,6.4483,6.4224,6.3834,6.3413,6.331,6.3178,6.2914,6.2914,6.2914,6.2914,6.2914,6.2914,6.2914,6.2914,6.2914,6.2914,6.2914,6.2914,6.2914,6.2914,6.2914,6.031,6.0586,6.069,6.0794,6.0794,6.1,6.1308,6.1613,6.2383,6.2971,6.3452,6.3675,6.377,6.3643,6.3643,6.3452,6.342,6.4735,6.5215,6.5692,6.6524,6.6855,6.6385,6.5745,6.5421,6.4875,6.4432,6.4209,6.4127,6.432,6.4654,6.4654,6.5094,6.5561,6.5915,6.6311,6.6628,6.6628,6.6942,6.628,6.5125,6.4685,6.4239,6.4127,6.4239,6.4574,6.4906,6.5235,6.5235,6.4906,6.4127,6.3592,6.3019,6.2672,6.2555,6.2438,6.2351,6.2469,6.2706,6.3118,6.3524,6.4018,6.4443,6.4988,6.5047,6.5134,6.488,6.4909,6.4909,6.4996,6.4996,6.4996,6.4996,6.4996,6.4996,6.4996,6.4996,6.4996,6.4996,6.4996,6.4996,6.4996,6.4996,6.4996,6.4996,6.4996,6.4996,6.4996,6.4996,6.4996,6.4996,6.4996,6.4996,6.4868,6.4483,6.4354,6.4224,6.3834,6.3545,6.331,6.3046,6.2914,6.2914,6.2914,6.2914,6.2914,6.2914,6.2914,6.2914,6.2914,6.2914,6.2914,6.2914,6.2914,6.2914,6.0555,6.1144,6.1277,6.1175,6.1277,6.1683,6.2085,6.2383,6.3164,6.3832,6.4207,6.4146,6.424,6.4333,6.4426,6.4207,6.4536,6.5577,6.6064,6.668,6.7653,6.7806,6.7561,6.7149,6.6523,6.6098,6.5638,6.5561,6.5561,6.5669,6.5745,6.5853,6.6067,6.6417,6.6733,6.7046,6.7388,6.7388,6.7491,6.7491,6.6764,6.6023,6.5452,6.5125,6.5125,6.5344,6.5669,6.5884,6.5915,6.5561,6.5016,6.4463,6.4015,6.3676,6.3592,6.3448,6.3134,6.3348,6.3622,6.404,6.4482,6.4917,6.5375,6.5572,6.5475,6.5348,6.5124,6.5124,6.5124,6.4996,6.4996,6.4996,6.4996,6.4996,6.4996,6.4996,6.4996,6.4996,6.4996,6.4996,6.4996,6.4996,6.4996,6.4996,6.4996,6.4996,6.4996,6.4996,6.4996,6.4996,6.4996,6.4996,6.4996,6.474,6.4612,6.4483,6.4483,6.4224,6.3965,6.3442,6.3046,6.3046,6.2914,6.2914,6.2914,6.2914,6.2914,6.2914,6.2914,6.2914,6.2914,6.2914,6.2914,6.2914,6.2914,6.2301,6.3324,6.3324,6.3324,6.3324,6.342,6.3516,6.3611,6.3926,6.43,6.461,6.4826,6.4918,6.4918,6.4918,6.4826,6.4839,6.6176,6.6922,6.7316,6.8468,6.8634,6.8301,6.7765,6.7181,6.6764,6.6554,6.648,6.6554,6.6659,6.6764,6.6764,6.6974,6.7181,6.7285,6.7593,6.7695,6.7797,6.7899,6.7899,6.7491,6.6837,6.6448,6.6205,6.6205,6.6523,6.6837,6.7078,6.7078,6.6764,6.6205,6.553,6.5204,6.4906,6.4685,6.4524,6.43,6.4562,6.494,6.5139,6.5592,6.598,6.6272,6.6103,6.5978,6.5727,6.5504,6.5348,6.5222,6.5094,6.4996,6.4996,6.4996,6.4996,6.4996,6.4996,6.4996,6.4996,6.4996,6.4996,6.4996,6.4996,6.4996,6.4996,6.4996,6.4996,6.4996,6.4996,6.4996,6.4996,6.4996,6.4996,6.4996,6.4996,6.4868,6.4868,6.474,6.4483,6.4224,6.3834,6.3442,6.3046,6.2914,6.3046,6.2914,6.2914,6.2914,6.2914,6.2914,6.2914,6.2914,6.2914,6.2914,6.2914,6.2914]},{"header":{"parameterUnit":"m.s-1","parameterCategory":1,"la1":31.0,"la2":29.5877,"lo1":-88.7671,"lo2":-86.6584,"dy":0.0162,"dx":0.0185,"nx":115,"ny":88,"refTime":"2024-04-07T06:00:00:Z","depth":0,"parameterNumber":3,"parameterNumberName":"V-component_of_WINDS"},"data":[0.0,0.0,0.0,0.0,0.0,0.0,0.0,0.0,0.0,0.0,0.0,0.0,0.0,0.0,0.0,0.0,0.0,0.0,0.0,0.0,0.0,0.0,0.0,0.0,0.0,0.0,0.0,0.0,0.0,0.0,0.0,0.0,0.0,0.0,0.0,0.0,0.0,0.0,0.0,0.0,0.0,0.0,0.0,0.0,0.0,0.0,0.0,0.0,0.0,0.0,0.0,0.0,0.0,0.0,0.0,0.0,0.0,0.0,0.0,0.0,0.0,0.0,0.0,0.0,0.0,0.0,0.0,0.0,0.0,0.0,0.0,0.0,0.0,0.0,0.0,0.0,0.0,0.0,0.0,0.0,0.0,0.0,0.0,0.0,0.0,0.0,0.0,0.0,0.0,0.0,0.0,0.0,0.0,0.0,0.0,0.0,0.0,0.0,0.0,0.0,0.0,0.0,0.0,0.0,0.0,0.0,0.0,0.0,0.0,0.0,0.0,0.0,0.0,0.0,0.0,0.0,0.0,0.0,0.0,0.0,0.0,0.0,0.0,0.0,0.0,0.0,0.0,0.0,0.0,0.0,0.0,0.0,0.0,0.0,0.0,0.0,0.0,0.0,0.0,0.0,0.0,0.0,0.0,0.0,0.0,0.0,0.0,0.0,0.0,0.0,0.0,0.0,0.0,0.0,0.0,0.0,0.0,0.0,0.0,0.0,0.0,0.0,0.0,0.0,0.0,0.0,0.0,0.0,0.0,0.0,0.0,0.0,0.0,0.0,0.0,0.0,0.0,0.0,0.0,0.0,0.0,0.0,0.0,0.0,0.0,0.0,0.0,0.0,0.0,0.0,0.0,0.0,0.0,0.0,0.0,0.0,0.0,0.0,0.0,0.0,0.0,0.0,0.0,0.0,0.0,0.0,0.0,0.0,0.0,0.0,0.0,0.0,0.0,0.0,0.0,0.0,0.0,0.0,0.0,0.0,0.0,0.0,0.0,0.0,0.0,0.0,0.0,0.0,0.0,0.0,0.0,0.0,0.0,0.0,0.0,0.0,0.0,0.0,0.0,0.0,0.0,0.0,0.0,0.0,0.0,0.0,0.0,0.0,0.0,0.0,0.0,0.0,0.0,0.0,0.0,0.0,0.0,0.0,0.0,0.0,0.0,0.0,0.0,0.0,0.0,0.0,0.0,0.0,0.0,0.0,0.0,0.0,0.0,0.0,0.0,0.0,0.0,0.0,0.0,0.0,0.0,0.0,0.0,0.0,0.0,0.0,0.0,0.0,0.0,0.0,0.0,0.0,0.0,0.0,0.0,0.0,0.0,0.0,0.0,0.0,0.0,0.0,0.0,0.0,0.0,0.0,0.0,0.0,0.0,0.0,0.0,0.0,0.0,0.0,0.0,0.0,0.0,0.0,0.0,0.0,0.0,0.0,0.0,0.0,0.0,0.0,0.0,0.0,0.0,0.0,0.0,0.0,0.0,0.0,0.0,0.0,0.0,0.0,0.0,0.0,0.0,0.0,0.0,0.0,0.0,0.0,0.0,0.0,0.0,0.0,0.0,0.0,0.0,0.0,0.0,0.0,0.0,0.0,0.0,0.0,0.0,0.0,0.0,0.0,0.0,0.0,0.0,0.0,0.0,0.0,0.0,0.0,0.0,0.0,0.0,0.0,0.0,0.0,0.0,0.0,0.0,0.0,0.0,0.0,0.0,0.0,0.0,0.0,0.0,0.0,0.0,0.0,0.0,0.0,0.0,0.0,0.0,0.0,0.0,0.0,0.0,0.0,0.0,0.0,0.0,0.0,0.0,0.0,0.0,0.0,0.0,0.0,0.0,0.0,0.0,0.0,0.0,0.0,0.0,0.0,0.0,0.0,0.0,0.0,0.0,0.0,0.0,0.0,0.0,0.0,0.0,0.0,0.0,0.0,0.0,0.0,0.0,0.0,0.0,0.0,0.0,0.0,0.0,0.0,0.0,0.0,0.0,0.0,0.0,0.0,0.0,0.0,0.0,0.0,0.0,0.0,0.0,0.0,0.0,0.0,0.0,0.0,0.0,0.0,0.0,0.0,0.0,0.0,0.0,0.0,0.0,0.0,0.0,0.0,0.0,0.0,0.0,0.0,0.0,0.0,0.0,0.0,0.0,0.0,0.0,0.0,0.0,0.0,0.0,0.0,0.0,0.0,0.0,0.0,0.0,0.0,0.0,0.0,0.0,0.0,0.0,0.0,0.0,0.0,0.0,0.0,0.0,0.0,0.0,0.0,0.0,0.0,0.0,0.0,0.0,0.0,0.0,0.0,0.0,0.0,0.0,0.0,0.0,0.0,0.0,0.0,0.0,0.0,0.0,0.0,0.0,0.0,0.0,0.0,0.0,0.0,0.0,0.0,0.0,0.0,0.0,0.0,0.0,0.0,0.0,0.0,0.0,0.0,0.0,0.0,0.0,0.0,0.0,0.0,0.0,0.0,0.0,0.0,0.0,0.0,0.0,0.0,0.0,0.0,0.0,0.0,0.0,0.0,0.0,0.0,0.0,0.0,0.0,0.0,0.0,0.0,0.0,0.0,0.0,0.0,0.0,0.0,0.0,0.0,0.0,0.0,0.0,0.0,0.0,0.0,0.0,0.0,0.0,0.0,0.0,0.0,0.0,0.0,0.0,0.0,0.0,0.0,0.0,0.0,0.0,0.0,0.0,0.0,0.0,0.0,0.0,0.0,0.0,0.0,0.0,0.0,0.0,0.0,0.0,0.0,0.0,0.0,0.0,0.0,0.0,0.0,0.0,0.0,0.0,0.0,0.0,0.0,0.0,0.0,0.0,0.0,0.0,0.0,0.0,0.0,0.0,0.0,0.0,0.0,0.0,0.0,0.0,0.0,0.0,0.0,0.0,0.0,0.0,0.0,0.0,0.0,0.0,0.0,0.0,0.0,0.0,0.0,0.0,0.0,0.0,0.0,0.0,0.0,0.0,0.0,0.0,0.0,0.0,0.0,0.0,0.0,0.0,0.0,0.0,0.0,0.0,0.0,0.0,0.0,0.0,0.0,0.0,0.0,0.0,0.0,0.0,0.0,0.0,0.0,0.0,0.0,0.0,0.0,0.0,0.0,0.0,0.0,0.0,0.0,0.0,0.0,0.0,0.0,0.0,0.0,0.0,0.0,0.0,0.0,0.0,0.0,0.0,0.0,0.0,0.0,0.0,0.0,0.0,0.0,0.0,0.0,0.0,0.0,0.0,0.0,0.0,0.0,0.0,0.0,0.0,0.0,0.0,0.0,0.0,0.0,0.0,0.0,0.0,0.0,0.0,0.0,0.0,0.0,0.0,0.0,0.0,0.0,0.0,0.0,0.0,0.0,0.0,0.0,0.0,0.0,0.0,0.0,0.0,0.0,0.0,0.0,0.0,0.0,0.0,0.0,0.0,0.0,0.0,0.0,0.0,0.0,0.0,0.0,0.0,0.0,0.0,0.0,0.0,0.0,0.0,0.0,0.0,0.0,0.0,0.0,0.0,0.0,0.0,0.0,0.0,0.0,0.0,0.0,0.0,0.0,0.0,0.0,0.0,0.0,0.0,0.0,0.0,0.0,0.0,0.0,0.0,0.0,0.0,0.0,0.0,0.0,0.0,0.0,0.0,0.0,0.0,0.0,0.0,0.0,0.0,0.0,0.0,0.0,0.0,0.0,0.0,0.0,0.0,0.0,0.0,0.0,0.0,0.0,0.0,0.0,0.0,0.0,0.0,0.0,0.0,0.0,0.0,0.0,0.0,0.0,0.0,0.0,0.0,0.0,0.0,0.0,0.0,0.0,0.0,0.0,0.0,0.0,0.0,0.0,0.0,0.0,0.0,0.0,0.0,0.0,0.0,0.0,0.0,0.0,0.0,0.0,0.0,0.0,0.0,0.0,0.0,0.0,0.0,0.0,0.0,0.0,0.0,0.0,0.0,0.0,0.0,0.0,0.0,0.0,0.0,0.0,0.0,0.0,0.0,0.0,0.0,0.0,0.0,0.0,0.0,0.0,0.0,0.0,0.0,0.0,0.0,0.0,0.0,0.0,0.0,0.0,0.0,0.0,0.0,0.0,0.0,0.0,0.0,0.0,0.0,0.0,0.0,0.0,0.0,0.0,0.0,0.0,0.0,0.0,0.0,0.0,0.0,0.0,0.0,0.0,0.0,0.0,0.0,0.0,0.0,0.0,0.0,0.0,0.0,0.0,0.0,0.0,0.0,0.0,0.0,0.0,0.0,0.0,0.0,0.0,0.0,0.0,0.0,0.0,0.0,0.0,-3.0248,0.0,0.0,0.0,0.0,0.0,0.0,0.0,0.0,0.0,0.0,0.0,0.0,0.0,0.0,0.0,0.0,0.0,0.0,0.0,0.0,0.0,0.0,0.0,0.0,0.0,0.0,0.0,0.0,0.0,0.0,0.0,0.0,0.0,0.0,0.0,0.0,0.0,0.0,0.0,0.0,0.0,0.0,0.0,0.0,0.0,0.0,0.0,0.0,0.0,0.0,0.0,0.0,0.0,0.0,0.0,0.0,0.0,0.0,0.0,0.0,0.0,0.0,0.0,0.0,0.0,0.0,0.0,0.0,0.0,0.0,0.0,0.0,0.0,0.0,0.0,0.0,0.0,0.0,0.0,0.0,0.0,0.0,0.0,0.0,0.0,0.0,0.0,0.0,0.0,0.0,0.0,0.0,0.0,0.0,0.0,0.0,0.0,0.0,0.0,0.0,0.0,0.0,0.0,0.0,0.0,0.0,0.0,0.0,0.0,0.0,-3.0076,-3.0033,-2.9946,-2.9902,-2.9814,0.0,0.0,0.0,0.0,0.0,0.0,0.0,0.0,0.0,0.0,0.0,0.0,0.0,0.0,0.0,0.0,0.0,0.0,0.0,0.0,0.0,0.0,0.0,0.0,0.0,0.0,0.0,0.0,0.0,0.0,0.0,0.0,0.0,0.0,0.0,0.0,0.0,0.0,0.0,0.0,0.0,0.0,0.0,0.0,0.0,0.0,0.0,0.0,0.0,0.0,0.0,0.0,0.0,0.0,0.0,0.0,0.0,0.0,0.0,0.0,0.0,0.0,0.0,0.0,0.0,0.0,0.0,0.0,0.0,0.0,0.0,0.0,0.0,0.0,0.0,0.0,0.0,0.0,0.0,0.0,0.0,0.0,0.0,0.0,0.0,0.0,0.0,0.0,0.0,0.0,0.0,0.0,0.0,0.0,0.0,0.0,0.0,0.0,0.0,0.0,0.0,0.0,0.0,0.0,0.0,0.0,0.0,0.0,0.0,0.0,0.0,0.0,-2.9489,-2.9444,-2.9412,0.0,0.0,0.0,0.0,0.0,0.0,0.0,0.0,0.0,0.0,0.0,0.0,0.0,0.0,0.0,0.0,0.0,0.0,0.0,0.0,0.0,0.0,0.0,0.0,0.0,0.0,0.0,0.0,0.0,0.0,0.0,0.0,0.0,0.0,0.0,0.0,0.0,0.0,0.0,0.0,0.0,0.0,0.0,0.0,0.0,0.0,0.0,0.0,0.0,0.0,0.0,0.0,0.0,0.0,0.0,0.0,0.0,0.0,0.0,0.0,0.0,0.0,0.0,0.0,0.0,0.0,0.0,0.0,0.0,0.0,0.0,0.0,0.0,0.0,0.0,0.0,0.0,0.0,0.0,0.0,0.0,0.0,0.0,0.0,0.0,0.0,0.0,0.0,0.0,0.0,0.0,0.0,0.0,0.0,0.0,0.0,0.0,0.0,0.0,0.0,0.0,0.0,0.0,0.0,0.0,0.0,0.0,0.0,0.0,0.0,-2.9183,-2.9137,-2.9137,0.0,-2.9137,0.0,0.0,0.0,0.0,0.0,0.0,0.0,0.0,0.0,0.0,0.0,0.0,0.0,0.0,0.0,0.0,0.0,0.0,0.0,0.0,0.0,0.0,0.0,0.0,0.0,0.0,0.0,0.0,0.0,0.0,0.0,0.0,0.0,0.0,0.0,0.0,0.0,0.0,0.0,0.0,0.0,0.0,0.0,0.0,0.0,0.0,0.0,0.0,0.0,0.0,0.0,0.0,0.0,0.0,0.0,0.0,0.0,0.0,0.0,0.0,0.0,0.0,0.0,0.0,0.0,0.0,0.0,0.0,0.0,0.0,0.0,0.0,0.0,0.0,0.0,0.0,0.0,0.0,0.0,0.0,0.0,0.0,0.0,0.0,0.0,0.0,0.0,0.0,0.0,0.0,0.0,0.0,0.0,0.0,0.0,0.0,0.0,0.0,0.0,0.0,0.0,0.0,0.0,0.0,0.0,0.0,0.0,0.0,0.0,0.0,-2.8936,-2.8905,-2.8905,-2.8905,0.0,0.0,0.0,0.0,0.0,0.0,0.0,0.0,0.0,0.0,0.0,0.0,0.0,0.0,0.0,0.0,0.0,0.0,0.0,0.0,0.0,0.0,0.0,0.0,0.0,0.0,0.0,0.0,0.0,0.0,0.0,0.0,0.0,0.0,0.0,0.0,0.0,0.0,0.0,0.0,0.0,0.0,0.0,0.0,0.0,0.0,0.0,0.0,0.0,0.0,0.0,0.0,0.0,0.0,0.0,0.0,0.0,0.0,0.0,0.0,0.0,0.0,0.0,0.0,0.0,0.0,0.0,0.0,0.0,0.0,0.0,0.0,0.0,0.0,0.0,0.0,0.0,0.0,0.0,0.0,0.0,0.0,0.0,0.0,0.0,0.0,0.0,0.0,0.0,0.0,0.0,0.0,0.0,0.0,0.0,0.0,0.0,0.0,0.0,0.0,0.0,0.0,0.0,0.0,0.0,0.0,0.0,0.0,0.0,0.0,-2.8716,-2.87,-2.87,-2.87,-2.87,-2.87,0.0,0.0,0.0,0.0,0.0,0.0,0.0,0.0,0.0,0.0,0.0,0.0,0.0,0.0,0.0,0.0,0.0,0.0,0.0,0.0,0.0,0.0,0.0,0.0,0.0,0.0,0.0,0.0,0.0,0.0,0.0,0.0,0.0,0.0,0.0,0.0,0.0,0.0,0.0,0.0,0.0,0.0,0.0,0.0,0.0,0.0,0.0,0.0,0.0,0.0,0.0,0.0,0.0,0.0,0.0,0.0,0.0,0.0,0.0,0.0,0.0,0.0,0.0,0.0,0.0,0.0,0.0,0.0,0.0,0.0,0.0,0.0,0.0,0.0,0.0,0.0,0.0,0.0,0.0,0.0,0.0,0.0,0.0,0.0,0.0,0.0,0.0,0.0,0.0,0.0,0.0,0.0,0.0,0.0,0.0,0.0,0.0,0.0,0.0,0.0,0.0,0.0,0.0,0.0,0.0,0.0,0.0,0.0,-2.8621,-2.8477,-2.8411,-2.846,-2.8411,-2.8411,0.0,0.0,0.0,0.0,0.0,0.0,0.0,0.0,0.0,0.0,0.0,0.0,0.0,0.0,0.0,0.0,0.0,0.0,0.0,0.0,0.0,0.0,0.0,0.0,0.0,0.0,0.0,0.0,0.0,0.0,0.0,0.0,0.0,0.0,0.0,0.0,0.0,0.0,0.0,0.0,0.0,0.0,0.0,0.0,0.0,0.0,0.0,0.0,0.0,0.0,0.0,0.0,0.0,0.0,0.0,0.0,0.0,0.0,0.0,0.0,0.0,0.0,0.0,0.0,0.0,0.0,0.0,0.0,0.0,0.0,0.0,0.0,0.0,0.0,0.0,0.0,0.0,0.0,0.0,0.0,0.0,0.0,0.0,0.0,0.0,0.0,0.0,0.0,0.0,0.0,0.0,0.0,0.0,0.0,0.0,0.0,0.0,0.0,0.0,0.0,0.0,0.0,0.0,0.0,0.0,0.0,0.0,0.0,0.0,-2.8508,-2.8381,-2.8411,-2.8411,-2.8411,-2.8411,0.0,0.0,0.0,0.0,0.0,0.0,0.0,0.0,0.0,0.0,0.0,0.0,0.0,0.0,0.0,0.0,0.0,0.0,0.0,0.0,0.0,0.0,0.0,0.0,0.0,0.0,0.0,0.0,0.0,0.0,0.0,0.0,0.0,0.0,0.0,0.0,0.0,0.0,0.0,0.0,0.0,0.0,0.0,0.0,0.0,0.0,0.0,0.0,0.0,0.0,0.0,0.0,0.0,0.0,0.0,0.0,0.0,0.0,0.0,0.0,0.0,0.0,0.0,0.0,0.0,0.0,0.0,0.0,0.0,0.0,0.0,0.0,0.0,0.0,0.0,0.0,0.0,0.0,0.0,0.0,0.0,0.0,0.0,0.0,0.0,0.0,0.0,0.0,0.0,0.0,0.0,0.0,0.0,0.0,0.0,0.0,0.0,0.0,0.0,0.0,0.0,0.0,0.0,0.0,0.0,0.0,0.0,0.0,0.0,-2.8719,0.0,-2.875,-2.8719,-2.8719,-2.8627,0.0,0.0,0.0,0.0,0.0,0.0,0.0,0.0,0.0,0.0,0.0,0.0,0.0,0.0,0.0,0.0,0.0,0.0,0.0,0.0,0.0,0.0,0.0,0.0,0.0,0.0,0.0,0.0,0.0,0.0,0.0,0.0,0.0,0.0,0.0,0.0,0.0,0.0,0.0,0.0,0.0,0.0,0.0,0.0,0.0,0.0,0.0,0.0,0.0,0.0,0.0,0.0,0.0,0.0,0.0,0.0,0.0,0.0,0.0,0.0,0.0,0.0,0.0,0.0,0.0,0.0,0.0,0.0,0.0,0.0,0.0,0.0,0.0,0.0,0.0,0.0,0.0,0.0,0.0,0.0,0.0,0.0,0.0,0.0,0.0,0.0,0.0,0.0,0.0,0.0,0.0,0.0,0.0,0.0,0.0,0.0,0.0,0.0,0.0,0.0,0.0,0.0,0.0,0.0,0.0,0.0,0.0,0.0,-2.875,-2.9366,-2.9396,-2.9427,-2.9427,-2.9427,-2.9119,0.0,0.0,0.0,0.0,0.0,0.0,0.0,0.0,0.0,0.0,0.0,0.0,0.0,0.0,0.0,0.0,0.0,0.0,0.0,0.0,0.0,0.0,0.0,0.0,0.0,0.0,0.0,0.0,0.0,0.0,0.0,0.0,0.0,0.0,0.0,0.0,0.0,0.0,0.0,0.0,0.0,0.0,0.0,0.0,0.0,0.0,0.0,0.0,0.0,0.0,0.0,0.0,0.0,0.0,0.0,0.0,0.0,0.0,0.0,0.0,0.0,0.0,0.0,0.0,0.0,0.0,0.0,0.0,0.0,0.0,0.0,0.0,0.0,0.0,0.0,0.0,0.0,0.0,0.0,0.0,0.0,0.0,0.0,0.0,0.0,0.0,0.0,0.0,0.0,0.0,0.0,0.0,0.0,0.0,0.0,0.0,0.0,0.0,0.0,0.0,0.0,0.0,0.0,0.0,0.0,0.0,0.0,0.0,0.0,-2.9427,-2.9858,-3.0104,-3.0104,-3.0104,-2.9797,0.0,0.0,0.0,0.0,0.0,0.0,0.0,0.0,0.0,0.0,0.0,0.0,0.0,0.0,0.0,0.0,0.0,0.0,0.0,0.0,0.0,0.0,0.0,0.0,0.0,0.0,0.0,0.0,0.0,0.0,0.0,0.0,0.0,0.0,0.0,0.0,0.0,0.0,0.0,0.0,0.0,0.0,0.0,0.0,0.0,0.0,0.0,0.0,0.0,0.0,0.0,0.0,0.0,0.0,0.0,0.0,0.0,0.0,0.0,0.0,0.0,0.0,0.0,0.0,0.0,0.0,0.0,0.0,0.0,0.0,0.0,0.0,0.0,0.0,0.0,0.0,0.0,0.0,0.0,0.0,0.0,0.0,0.0,0.0,0.0,0.0,0.0,0.0,0.0,0.0,0.0,0.0,0.0,0.0,0.0,0.0,0.0,0.0,0.0,0.0,0.0,0.0,0.0,0.0,0.0,0.0,0.0,0.0,0.0,-3.0535,-3.0936,-3.1151,-3.1151,-3.1151,-3.072,-2.9827,0.0,0.0,0.0,0.0,0.0,0.0,0.0,0.0,0.0,0.0,0.0,0.0,0.0,0.0,0.0,0.0,0.0,0.0,0.0,0.0,0.0,0.0,0.0,0.0,0.0,0.0,0.0,0.0,0.0,0.0,0.0,0.0,0.0,0.0,0.0,0.0,0.0,0.0,0.0,0.0,0.0,0.0,0.0,0.0,0.0,0.0,0.0,0.0,0.0,0.0,0.0,0.0,0.0,0.0,0.0,0.0,0.0,0.0,0.0,0.0,0.0,0.0,0.0,0.0,0.0,0.0,0.0,0.0,0.0,0.0,0.0,0.0,0.0,0.0,0.0,0.0,0.0,0.0,0.0,0.0,0.0,0.0,0.0,0.0,0.0,0.0,0.0,0.0,0.0,0.0,0.0,0.0,0.0,0.0,0.0,0.0,0.0,0.0,0.0,0.0,0.0,0.0,0.0,0.0,0.0,0.0,0.0,0.0,-3.2567,-3.2598,-3.2598,-3.2505,-3.2475,-3.1828,0.0,0.0,0.0,0.0,0.0,0.0,0.0,0.0,0.0,0.0,0.0,0.0,0.0,0.0,0.0,0.0,0.0,0.0,0.0,0.0,0.0,0.0,0.0,0.0,0.0,0.0,0.0,0.0,0.0,0.0,0.0,0.0,0.0,0.0,0.0,0.0,0.0,0.0,0.0,0.0,0.0,0.0,0.0,0.0,0.0,0.0,0.0,0.0,0.0,0.0,0.0,0.0,0.0,0.0,0.0,0.0,0.0,0.0,0.0,0.0,0.0,0.0,0.0,0.0,0.0,0.0,0.0,0.0,0.0,0.0,0.0,0.0,0.0,0.0,0.0,0.0,0.0,0.0,0.0,0.0,0.0,0.0,0.0,0.0,0.0,0.0,0.0,0.0,0.0,0.0,0.0,0.0,0.0,0.0,0.0,0.0,0.0,0.0,0.0,0.0,0.0,0.0,0.0,0.0,0.0,0.0,0.0,0.0,0.0,-3.4599,-3.5153,-3.4937,-3.3983,-3.3429,-3.2721,0.0,0.0,0.0,0.0,0.0,0.0,0.0,0.0,0.0,0.0,0.0,0.0,0.0,0.0,0.0,0.0,0.0,0.0,0.0,0.0,0.0,0.0,0.0,0.0,0.0,0.0,0.0,0.0,0.0,0.0,0.0,0.0,0.0,0.0,0.0,0.0,0.0,0.0,0.0,0.0,0.0,0.0,0.0,0.0,0.0,0.0,0.0,0.0,0.0,0.0,0.0,0.0,0.0,0.0,0.0,0.0,0.0,0.0,0.0,0.0,0.0,0.0,0.0,0.0,0.0,0.0,0.0,0.0,0.0,0.0,0.0,0.0,0.0,0.0,0.0,0.0,0.0,0.0,0.0,0.0,0.0,0.0,0.0,0.0,0.0,0.0,0.0,0.0,0.0,0.0,0.0,0.0,0.0,0.0,0.0,0.0,0.0,0.0,0.0,0.0,0.0,0.0,0.0,0.0,0.0,0.0,0.0,0.0,-3.4414,-3.5891,-3.6846,-3.6969,-3.6199,-3.5214,-3.4106,0.0,0.0,0.0,0.0,0.0,0.0,0.0,0.0,0.0,0.0,0.0,0.0,0.0,0.0,0.0,0.0,0.0,0.0,0.0,0.0,0.0,0.0,0.0,0.0,0.0,0.0,0.0,0.0,0.0,0.0,0.0,0.0,0.0,0.0,0.0,0.0,0.0,0.0,0.0,0.0,0.0,0.0,0.0,0.0,0.0,0.0,0.0,0.0,0.0,0.0,0.0,0.0,0.0,0.0,0.0,0.0,0.0,0.0,0.0,0.0,0.0,0.0,0.0,0.0,0.0,0.0,0.0,0.0,0.0,0.0,0.0,0.0,0.0,0.0,0.0,0.0,0.0,0.0,0.0,0.0,0.0,0.0,0.0,0.0,0.0,0.0,0.0,0.0,0.0,0.0,0.0,0.0,0.0,0.0,0.0,0.0,0.0,0.0,0.0,0.0,0.0,0.0,0.0,0.0,0.0,0.0,0.0,0.0,-3.583,-3.6599,-3.7923,-3.86,-3.8569,-3.7246,-3.5584,0.0,0.0,0.0,0.0,0.0,0.0,0.0,0.0,0.0,0.0,0.0,0.0,0.0,0.0,0.0,0.0,0.0,0.0,0.0,0.0,0.0,0.0,0.0,0.0,0.0,0.0,0.0,0.0,0.0,0.0,0.0,0.0,0.0,0.0,0.0,0.0,0.0,0.0,0.0,0.0,0.0,0.0,0.0,0.0,0.0,0.0,0.0,0.0,0.0,0.0,0.0,0.0,0.0,0.0,0.0,0.0,0.0,0.0,0.0,0.0,0.0,0.0,0.0,0.0,0.0,0.0,0.0,0.0,0.0,0.0,0.0,0.0,0.0,0.0,0.0,0.0,0.0,0.0,0.0,0.0,0.0,0.0,0.0,0.0,0.0,0.0,0.0,0.0,0.0,0.0,0.0,0.0,0.0,0.0,0.0,0.0,0.0,0.0,0.0,0.0,0.0,0.0,0.0,0.0,0.0,0.0,0.0,0.0,-3.6076,-3.7277,-3.86,-3.9308,-3.9277,-3.7492,-3.6014,0.0,0.0,0.0,0.0,0.0,0.0,0.0,0.0,0.0,0.0,0.0,0.0,0.0,0.0,0.0,0.0,0.0,0.0,0.0,0.0,0.0,0.0,0.0,0.0,0.0,0.0,0.0,0.0,0.0,0.0,0.0,0.0,0.0,0.0,0.0,0.0,0.0,0.0,0.0,0.0,0.0,0.0,0.0,0.0,0.0,0.0,0.0,0.0,-3.3129,0.0,0.0,0.0,0.0,0.0,0.0,0.0,0.0,0.0,0.0,0.0,0.0,0.0,0.0,0.0,0.0,0.0,0.0,0.0,0.0,0.0,0.0,0.0,0.0,0.0,0.0,0.0,0.0,0.0,0.0,0.0,0.0,0.0,0.0,0.0,0.0,0.0,0.0,0.0,0.0,0.0,0.0,0.0,0.0,0.0,0.0,0.0,0.0,0.0,0.0,0.0,0.0,0.0,0.0,0.0,0.0,0.0,0.0,0.0,-3.7246,-3.8877,-3.9955,-4.0509,-4.0447,-3.9123,-3.7615,0.0,0.0,0.0,0.0,0.0,0.0,0.0,0.0,0.0,0.0,0.0,0.0,0.0,0.0,0.0,0.0,0.0,0.0,0.0,0.0,0.0,0.0,0.0,0.0,0.0,0.0,0.0,0.0,0.0,0.0,0.0,0.0,0.0,0.0,0.0,0.0,0.0,0.0,0.0,0.0,0.0,0.0,0.0,0.0,0.0,0.0,0.0,0.0,0.0,0.0,0.0,0.0,0.0,0.0,0.0,0.0,0.0,0.0,0.0,0.0,0.0,0.0,0.0,0.0,0.0,0.0,0.0,0.0,0.0,0.0,0.0,0.0,0.0,0.0,0.0,0.0,0.0,0.0,0.0,0.0,0.0,0.0,0.0,0.0,0.0,0.0,0.0,0.0,0.0,0.0,0.0,0.0,0.0,0.0,0.0,0.0,0.0,0.0,0.0,0.0,0.0,0.0,0.0,0.0,0.0,0.0,0.0,-3.663,-3.86,-4.0447,-4.134,-4.1709,-4.1586,-4.0816,-3.9247,-3.6907,0.0,0.0,0.0,0.0,0.0,0.0,0.0,0.0,0.0,0.0,0.0,0.0,0.0,0.0,0.0,0.0,0.0,0.0,0.0,0.0,0.0,0.0,0.0,0.0,0.0,0.0,0.0,0.0,0.0,0.0,0.0,0.0,0.0,0.0,0.0,0.0,0.0,0.0,-2.9827,-3.152,0.0,0.0,0.0,0.0,0.0,0.0,0.0,0.0,-3.45,0.0,0.0,0.0,0.0,0.0,0.0,0.0,0.0,0.0,0.0,0.0,0.0,0.0,0.0,0.0,0.0,0.0,0.0,0.0,0.0,0.0,0.0,0.0,0.0,0.0,0.0,0.0,0.0,0.0,0.0,0.0,0.0,0.0,0.0,0.0,0.0,0.0,0.0,0.0,0.0,0.0,0.0,0.0,0.0,0.0,0.0,0.0,0.0,0.0,0.0,0.0,0.0,0.0,0.0,0.0,0.0,-3.5306,-3.7307,-3.9062,-4.0509,-4.1771,-4.2171,-4.1617,-4.0355,-3.9216,-3.8169,0.0,0.0,0.0,0.0,0.0,0.0,0.0,0.0,0.0,0.0,0.0,0.0,0.0,0.0,0.0,0.0,0.0,0.0,0.0,0.0,0.0,0.0,0.0,0.0,0.0,0.0,0.0,0.0,0.0,0.0,0.0,0.0,0.0,0.0,0.0,0.0,0.0,0.0,0.0,-3.3183,-3.4168,0.0,0.0,0.0,0.0,0.0,0.0,0.0,0.0,-3.6044,0.0,0.0,0.0,0.0,0.0,0.0,0.0,0.0,0.0,0.0,0.0,0.0,0.0,0.0,0.0,0.0,0.0,0.0,0.0,0.0,0.0,0.0,0.0,0.0,0.0,0.0,0.0,0.0,0.0,0.0,0.0,0.0,0.0,0.0,0.0,0.0,0.0,0.0,0.0,0.0,0.0,0.0,0.0,0.0,0.0,0.0,0.0,0.0,0.0,0.0,0.0,0.0,0.0,0.0,0.0,-3.6476,-3.8508,-4.0232,-4.1586,-4.2602,-4.2713,-4.1965,-4.0984,-3.9566,0.0,0.0,0.0,0.0,0.0,0.0,0.0,0.0,0.0,0.0,0.0,0.0,0.0,0.0,0.0,0.0,0.0,0.0,0.0,0.0,0.0,0.0,0.0,0.0,0.0,0.0,0.0,0.0,0.0,0.0,0.0,0.0,0.0,0.0,0.0,0.0,0.0,0.0,0.0,0.0,-3.466,-3.5522,-3.5522,0.0,0.0,0.0,0.0,0.0,0.0,-3.7307,-3.7184,0.0,0.0,0.0,0.0,0.0,0.0,0.0,0.0,0.0,0.0,0.0,0.0,0.0,0.0,0.0,0.0,0.0,0.0,0.0,0.0,0.0,0.0,0.0,0.0,0.0,0.0,0.0,0.0,0.0,0.0,0.0,0.0,0.0,0.0,0.0,0.0,0.0,0.0,0.0,0.0,0.0,0.0,0.0,0.0,0.0,0.0,0.0,0.0,0.0,0.0,0.0,0.0,0.0,0.0,0.0,-3.7646,-3.9708,-4.1432,-4.2756,-4.3433,-4.3328,-4.231,-4.1515,-3.9795,0.0,0.0,0.0,0.0,0.0,0.0,0.0,0.0,0.0,0.0,0.0,0.0,0.0,0.0,0.0,0.0,0.0,0.0,0.0,0.0,0.0,0.0,0.0,0.0,0.0,0.0,0.0,0.0,0.0,0.0,0.0,0.0,0.0,0.0,0.0,0.0,0.0,0.0,0.0,0.0,0.0,-3.6692,-3.6692,-3.6815,0.0,0.0,0.0,0.0,-3.8015,-3.8569,0.0,0.0,0.0,0.0,0.0,0.0,0.0,0.0,0.0,0.0,0.0,0.0,0.0,0.0,0.0,0.0,0.0,0.0,0.0,0.0,0.0,0.0,0.0,0.0,0.0,0.0,0.0,0.0,0.0,0.0,0.0,0.0,0.0,0.0,0.0,0.0,0.0,0.0,0.0,0.0,0.0,0.0,0.0,0.0,0.0,0.0,0.0,0.0,0.0,0.0,0.0,0.0,0.0,0.0,0.0,0.0,-3.8354,-4.0416,-4.2109,-4.3402,-4.3959,-4.3639,-4.231,-4.0913,-3.913,0.0,0.0,0.0,0.0,0.0,0.0,0.0,0.0,0.0,0.0,0.0,0.0,0.0,0.0,0.0,0.0,0.0,0.0,0.0,0.0,0.0,0.0,0.0,0.0,0.0,0.0,0.0,0.0,0.0,0.0,0.0,0.0,0.0,0.0,0.0,0.0,0.0,0.0,0.0,0.0,0.0,-3.74,-3.7369,-3.7892,-3.8262,0.0,0.0,-4.0078,-4.017,-4.0262,0.0,0.0,0.0,0.0,0.0,0.0,0.0,0.0,0.0,0.0,0.0,0.0,0.0,0.0,0.0,0.0,0.0,0.0,0.0,0.0,0.0,0.0,0.0,0.0,0.0,0.0,0.0,0.0,0.0,0.0,0.0,0.0,0.0,0.0,0.0,0.0,0.0,0.0,0.0,0.0,0.0,0.0,0.0,0.0,0.0,0.0,0.0,0.0,0.0,0.0,0.0,0.0,0.0,0.0,0.0,-3.6384,-3.9031,-4.0984,-4.2456,-4.3407,-4.3854,-4.3609,-4.2591,-4.1036,-3.9163,0.0,0.0,0.0,0.0,0.0,0.0,0.0,0.0,0.0,0.0,0.0,0.0,0.0,0.0,0.0,0.0,0.0,0.0,0.0,0.0,0.0,0.0,0.0,0.0,0.0,0.0,0.0,0.0,0.0,0.0,0.0,0.0,0.0,0.0,0.0,0.0,0.0,0.0,0.0,0.0,0.0,0.0,-3.9154,-3.9831,0.0,0.0,0.0,-4.1278,-4.1648,0.0,0.0,0.0,0.0,0.0,0.0,0.0,0.0,0.0,0.0,0.0,0.0,0.0,0.0,0.0,0.0,0.0,0.0,0.0,0.0,0.0,0.0,0.0,0.0,0.0,0.0,0.0,0.0,0.0,0.0,0.0,0.0,0.0,0.0,0.0,0.0,0.0,0.0,0.0,0.0,0.0,0.0,0.0,0.0,0.0,0.0,0.0,0.0,0.0,0.0,0.0,0.0,0.0,0.0,0.0,0.0,0.0,-3.9671,-4.1331,-4.2602,-4.3426,-4.3714,-4.3421,-4.2526,-4.098,0.0,0.0,0.0,0.0,0.0,0.0,0.0,0.0,0.0,0.0,0.0,0.0,0.0,0.0,0.0,0.0,0.0,0.0,0.0,0.0,0.0,0.0,0.0,0.0,0.0,0.0,0.0,-2.8319,0.0,0.0,0.0,0.0,0.0,0.0,0.0,0.0,0.0,0.0,0.0,0.0,0.0,0.0,-3.9739,-4.0416,-4.1278,-4.2017,0.0,0.0,-4.2263,-4.2786,-4.2417,-4.1801,0.0,0.0,0.0,0.0,0.0,0.0,0.0,0.0,0.0,0.0,0.0,0.0,0.0,0.0,0.0,0.0,0.0,0.0,0.0,0.0,0.0,0.0,0.0,0.0,0.0,0.0,0.0,0.0,0.0,0.0,0.0,0.0,0.0,0.0,0.0,0.0,0.0,0.0,0.0,0.0,0.0,0.0,0.0,0.0,0.0,0.0,0.0,0.0,0.0,0.0,0.0,0.0,0.0,0.0,0.0,-4.0069,-4.1359,-4.2622,-4.3866,-4.3566,-4.2951,-4.203,-4.0448,-3.8702,0.0,0.0,0.0,0.0,0.0,0.0,0.0,0.0,0.0,0.0,0.0,0.0,0.0,0.0,0.0,0.0,0.0,0.0,0.0,0.0,0.0,0.0,0.0,0.0,0.0,0.0,0.0,0.0,0.0,0.0,0.0,0.0,0.0,0.0,0.0,0.0,0.0,0.0,0.0,0.0,0.0,-3.977,-4.0447,-4.1678,-4.2571,0.0,0.0,-4.3464,-4.3494,-4.3464,-4.3002,-4.174,0.0,0.0,0.0,0.0,0.0,0.0,0.0,0.0,0.0,0.0,0.0,0.0,0.0,0.0,0.0,0.0,0.0,0.0,0.0,0.0,0.0,0.0,0.0,0.0,0.0,0.0,0.0,0.0,0.0,0.0,0.0,0.0,0.0,0.0,0.0,0.0,0.0,0.0,0.0,0.0,0.0,0.0,0.0,0.0,0.0,0.0,0.0,0.0,0.0,0.0,0.0,0.0,0.0,-3.7147,-3.9748,-4.0815,-4.1983,-4.3111,-4.2739,-4.2379,-4.2034,-4.0706,-3.9521,0.0,0.0,0.0,0.0,0.0,0.0,0.0,0.0,0.0,0.0,0.0,0.0,0.0,0.0,0.0,0.0,0.0,0.0,0.0,0.0,0.0,0.0,0.0,0.0,0.0,0.0,0.0,0.0,-3.4537,-3.5029,-3.4876,0.0,0.0,0.0,0.0,0.0,0.0,0.0,0.0,0.0,0.0,-4.1186,-4.2263,-4.3217,0.0,0.0,-4.4018,-4.4202,-4.4202,-4.3833,-4.3371,-4.291,-4.1925,0.0,0.0,0.0,0.0,0.0,0.0,0.0,0.0,0.0,0.0,0.0,0.0,0.0,0.0,0.0,0.0,0.0,0.0,0.0,0.0,0.0,0.0,0.0,0.0,0.0,0.0,0.0,0.0,0.0,0.0,0.0,0.0,0.0,0.0,0.0,0.0,0.0,0.0,0.0,0.0,0.0,0.0,0.0,0.0,0.0,0.0,0.0,0.0,0.0,0.0,0.0,0.0,-3.6858,-3.932,-4.0394,-4.141,-4.2333,-4.2096,-4.1933,-4.1849,-4.1112,-4.0265,0.0,0.0,0.0,0.0,0.0,0.0,0.0,0.0,0.0,0.0,0.0,0.0,0.0,0.0,0.0,0.0,0.0,0.0,0.0,0.0,0.0,0.0,0.0,0.0,0.0,0.0,0.0,0.0,-3.5491,-3.5522,-3.4845,0.0,0.0,0.0,0.0,0.0,0.0,0.0,0.0,0.0,0.0,-4.2325,-4.3433,-4.4326,-4.488,-4.488,-4.5064,-4.5187,-4.5187,-4.4633,-4.4172,-4.4172,0.0,0.0,0.0,0.0,0.0,0.0,0.0,0.0,0.0,0.0,0.0,0.0,0.0,0.0,0.0,0.0,0.0,0.0,0.0,0.0,0.0,0.0,0.0,0.0,0.0,0.0,0.0,0.0,0.0,0.0,-2.2402,0.0,0.0,0.0,0.0,0.0,0.0,0.0,0.0,0.0,0.0,0.0,0.0,0.0,0.0,0.0,0.0,0.0,0.0,0.0,0.0,0.0,0.0,-3.6641,-3.8723,-4.001,-4.104,-4.1702,-4.1853,-4.182,-4.1587,-4.1295,-4.0664,-3.976,0.0,0.0,0.0,0.0,0.0,0.0,0.0,0.0,0.0,0.0,0.0,0.0,0.0,0.0,0.0,0.0,0.0,0.0,0.0,0.0,0.0,0.0,0.0,0.0,0.0,0.0,-3.6261,-3.6445,-3.6168,0.0,0.0,0.0,0.0,0.0,0.0,0.0,0.0,0.0,0.0,-4.1309,-4.2848,-4.3525,-4.4726,-4.5557,-4.5557,-4.6111,-4.6542,-4.6511,-4.5957,-4.5557,0.0,0.0,0.0,0.0,0.0,0.0,0.0,0.0,0.0,0.0,0.0,0.0,0.0,0.0,0.0,0.0,0.0,0.0,0.0,0.0,0.0,0.0,0.0,0.0,0.0,0.0,0.0,-2.3759,-2.4105,0.0,0.0,0.0,0.0,0.0,0.0,0.0,0.0,0.0,0.0,0.0,-2.9823,-2.9823,0.0,0.0,0.0,0.0,0.0,0.0,0.0,0.0,0.0,0.0,0.0,0.0,-3.6613,-3.8846,-4.0063,-4.1056,-4.1956,-4.1854,-4.1786,-4.1723,-4.1424,-4.094,-4.0006,0.0,0.0,0.0,0.0,0.0,0.0,0.0,0.0,0.0,0.0,0.0,0.0,0.0,0.0,0.0,0.0,0.0,0.0,0.0,0.0,0.0,0.0,0.0,0.0,0.0,-3.5984,0.0,0.0,0.0,0.0,0.0,0.0,0.0,0.0,0.0,0.0,0.0,-3.9677,-4.1925,-4.3187,-4.4326,-4.5434,-4.5957,-4.6265,0.0,0.0,0.0,0.0,0.0,0.0,0.0,0.0,0.0,0.0,0.0,0.0,0.0,0.0,-4.4202,-4.1986,-4.1586,-4.1494,-4.1278,0.0,0.0,0.0,0.0,0.0,0.0,0.0,0.0,0.0,0.0,0.0,0.0,0.0,0.0,0.0,0.0,-2.5563,0.0,0.0,0.0,0.0,0.0,0.0,0.0,0.0,-3.0451,-3.1078,-3.2176,-3.2176,-3.2176,0.0,-3.2176,-3.1468,0.0,0.0,0.0,0.0,0.0,0.0,0.0,0.0,-3.6894,-3.9003,-4.0037,-4.1002,-4.1854,-4.1856,-4.1901,-4.1873,-4.1688,-4.1404,-4.0838,-3.9671,-3.8288,0.0,0.0,0.0,0.0,0.0,0.0,0.0,0.0,0.0,0.0,0.0,0.0,0.0,0.0,0.0,0.0,0.0,0.0,0.0,0.0,0.0,0.0,0.0,-3.7269,0.0,0.0,0.0,0.0,0.0,0.0,0.0,0.0,0.0,-3.8908,-4.0078,-4.174,-4.3987,-4.4849,-4.5618,-4.648,0.0,0.0,0.0,0.0,0.0,0.0,0.0,-4.7465,-4.7927,-4.7835,-4.7588,-4.7404,-4.7373,-4.765,-4.8543,0.0,0.0,-4.5187,-4.4695,-4.4695,-4.4695,-4.4695,-4.4818,-4.5249,-4.5311,-4.5526,0.0,0.0,0.0,0.0,0.0,0.0,0.0,0.0,-2.7889,-2.7941,0.0,-2.7889,0.0,0.0,0.0,0.0,0.0,-2.9405,0.0,0.0,-3.2751,-3.3352,-3.4397,-3.4424,-3.4424,-3.445,-3.4424,-3.4424,-3.4293,-3.2384,0.0,0.0,0.0,0.0,0.0,0.0,-3.756,-3.931,-4.0233,-4.0932,-4.1415,-4.1828,-4.2032,-4.2032,-4.2032,-4.2032,-4.1978,-4.0865,-3.9699,-3.8532,-3.6768,0.0,0.0,0.0,0.0,0.0,0.0,0.0,0.0,0.0,0.0,0.0,0.0,0.0,0.0,0.0,0.0,0.0,0.0,0.0,0.0,-3.8546,0.0,0.0,0.0,0.0,0.0,0.0,0.0,0.0,0.0,0.0,-4.174,-4.2848,-4.411,-4.5464,0.0,0.0,0.0,0.0,-4.7681,-4.7711,-4.8266,-4.8912,-4.9589,-4.9127,-4.9127,-5.042,0.0,0.0,-5.0574,-5.0697,-5.0636,-5.0728,-5.0728,-5.0328,-4.8974,-4.8573,-4.8543,-4.8573,-4.8512,-4.8635,-4.8635,-4.8481,-4.8727,-3.0398,0.0,0.0,0.0,0.0,-2.964,-3.032,-3.0817,-3.0241,-3.032,-3.0817,-3.0241,0.0,0.0,0.0,0.0,0.0,0.0,-3.2725,-3.4528,-3.4554,-3.4946,-3.56,-3.5626,-3.56,-3.5626,-3.5626,-3.5835,-3.6201,-3.56,-3.462,-3.3325,0.0,0.0,0.0,0.0,-3.8574,-3.9912,-4.105,-4.1882,-4.2453,-4.2548,-4.2629,-4.2629,-4.2629,-4.2629,-4.2629,-4.1896,-4.1137,-4.035,-3.864,0.0,0.0,0.0,0.0,0.0,0.0,0.0,0.0,0.0,0.0,0.0,0.0,0.0,0.0,0.0,0.0,0.0,0.0,0.0,-3.932,-3.9474,-3.9194,0.0,0.0,0.0,0.0,0.0,0.0,0.0,0.0,0.0,-4.5649,-4.5372,-4.5495,0.0,0.0,-4.7681,-4.8666,-4.8974,-4.9251,-4.9743,0.0,0.0,0.0,-5.0236,-5.0236,-5.0636,-5.0513,-5.0636,-5.1313,-5.1436,-5.1559,-5.2052,-5.2144,-5.199,-5.159,-5.0728,-5.0143,-5.0112,-5.0112,-5.0082,-5.0112,-5.0082,-5.0174,-3.2437,-3.1026,-3.147,-3.1261,-3.0712,-3.1365,-3.1993,-3.2515,-3.2176,-3.2333,-3.2829,-3.2489,-3.2333,-3.2333,-3.2333,0.0,0.0,0.0,-3.4528,-3.5966,-3.5966,-3.6279,-3.6802,-3.7037,-3.7142,-3.7142,-3.7377,-3.7691,-3.8031,-3.8057,-3.7532,-3.6485,0.0,0.0,-3.7034,-3.8363,-3.9699,-4.0865,-4.1625,-4.2385,-4.3226,-4.347,-4.3497,-4.3253,-4.3226,-4.3145,-4.29,-4.2548,-4.2086,-4.1489,-4.0214,-3.8667,0.0,0.0,0.0,0.0,0.0,0.0,0.0,0.0,0.0,0.0,0.0,-3.0984,-3.293,0.0,0.0,0.0,-3.7123,-3.8522,-3.9912,-4.0005,0.0,0.0,0.0,0.0,0.0,0.0,0.0,-4.3533,-4.4816,-4.6211,-4.7812,-4.7598,-4.765,-4.8727,-4.882,-4.9127,-4.9959,0.0,-5.0236,-5.0636,-5.0697,-5.079,-5.1036,-5.1097,-5.1282,-5.1805,-5.2144,-5.2421,-5.2821,-5.2914,-5.3037,-5.3406,-5.3529,-5.3498,-5.3498,-5.2821,-5.2082,-5.1621,-5.1498,-5.1498,-5.1498,-5.1498,-5.1498,-3.4241,-3.3744,-3.3195,-3.2908,-3.2829,-3.2934,-3.3273,-3.377,-3.3796,-3.4084,-3.4528,-3.4528,-3.4502,-3.4476,-3.4476,0.0,-3.5365,-3.5365,-3.5992,-3.7142,-3.7142,-3.7456,-3.8057,-3.8527,-3.8789,-3.8789,-3.9337,-3.9625,-3.9651,-3.9651,-3.98,-4.0017,-3.9243,-3.8933,-3.9123,-3.9961,-4.0892,-4.1978,-4.2086,-4.2711,-4.3823,-4.442,-4.442,-4.3877,-4.3796,-4.3497,-4.2982,-4.29,-4.2629,-4.2086,-4.1517,-4.0404,-3.8722,0.0,0.0,0.0,0.0,0.0,0.0,0.0,0.0,0.0,0.0,0.0,0.0,0.0,0.0,0.0,-3.947,0.0,-3.9957,-4.0416,0.0,0.0,0.0,-4.0695,-4.1115,-4.2079,-4.3528,-4.5746,0.0,0.0,-4.8849,0.0,-5.0147,-5.0677,-5.0672,-5.0611,-5.0672,-5.0703,-5.0703,-5.0949,-5.0887,-5.1102,-5.1871,-5.1963,-5.2332,-5.3407,-5.4237,-5.4483,-5.4513,-5.4513,-5.4606,-5.4637,-5.4699,-5.4668,-5.4699,-5.4576,-5.436,-5.3067,-5.2883,-5.2883,-5.2883,-5.2852,-5.2883,-3.5626,-3.5495,-3.5365,-3.4789,-3.4084,-3.492,-3.5365,-3.5495,-3.5521,-3.5574,-3.5704,-3.5704,-3.5469,-3.5103,-3.5077,-3.5391,-3.5913,-3.5913,-3.6776,-3.8266,-3.8318,-3.8632,-3.9207,-3.9337,-3.939,-3.9416,-3.9547,-3.9808,-4.02,-4.0226,-4.0671,-4.1555,-4.1221,-4.0718,-4.036,-4.1179,-4.1707,-4.2005,-4.29,-4.3715,-4.4447,-4.4637,-4.4637,-4.4474,-4.4013,-4.3715,-4.3579,-4.3118,-4.2819,-4.2656,-4.2114,-4.1381,-4.0513,-3.8776,0.0,0.0,0.0,0.0,0.0,0.0,0.0,0.0,0.0,-3.3957,-3.5668,0.0,-3.7593,0.0,-4.0178,-4.1191,-4.179,-4.1681,0.0,0.0,-4.1791,-4.2247,-4.2794,-4.4438,-4.5957,-4.6992,-4.8205,-4.9191,-4.9854,-5.0155,-5.0547,-5.103,-5.0516,-5.0327,-5.0845,-5.0936,-5.1302,-5.2216,-5.2398,-5.2673,-5.3221,-5.3404,-5.3495,-5.383,-5.4043,-5.4104,-5.4418,-5.4418,-5.4418,-5.4636,-5.473,-5.473,-5.476,-5.473,-5.4668,-5.433,-5.4237,-5.4268,-5.4237,-5.4206,-5.4237,-3.6096,-3.6123,-3.6384,-3.6149,-3.56,-3.594,-3.6096,-3.6123,-3.6384,-3.6515,-3.6515,-3.6776,-3.6724,-3.6488,-3.6698,-3.6985,-3.7273,-3.7534,-3.8187,-3.9102,-3.9102,-3.9285,-3.9625,-3.986,-3.9965,-3.9991,-4.0488,-4.0906,-4.1193,-4.1455,-4.1899,-4.2552,-4.2519,-4.2319,-4.2101,-4.2205,-4.2424,-4.2792,-4.3959,-4.4746,-4.5098,-4.537,-4.5234,-4.4719,-4.4366,-4.3932,-4.3389,-4.3063,-4.29,-4.2873,-4.2575,-4.2114,-4.1544,-4.0323,-3.8803,0.0,0.0,0.0,0.0,0.0,0.0,0.0,0.0,0.0,0.0,0.0,-3.8929,-3.9891,-4.0666,-4.1369,-4.1945,-4.2008,-4.2133,-4.234,-4.3088,-4.3749,-4.4152,-4.5705,-4.7003,-4.7765,-4.861,-4.936,-4.9917,-5.0337,-5.0632,-5.0921,-5.0787,-5.0896,-5.1574,-5.2001,-5.2486,-5.3088,-5.3304,-5.352,-5.3884,-5.3996,-5.408,-5.4304,-5.4546,-5.4728,-5.5018,-5.5114,-5.5337,-5.5432,-5.5558,-5.5622,-5.5622,-5.5622,-5.5622,-5.5622,-5.5622,-5.5407,-5.4853,-5.473,-5.473,-3.6541,-3.6593,-3.7116,-3.7351,-3.7299,-3.6776,-3.6462,-3.6358,-3.6907,-3.7116,-3.7142,-3.7665,-3.7874,-3.7821,-3.837,-3.8606,-3.8658,-3.9233,-3.9573,-3.9703,-3.9703,-3.9782,-3.9965,-4.0409,-4.0671,-4.0775,-4.1794,-4.2265,-4.2291,-4.2762,-4.3049,-4.3127,-4.3257,-4.3568,-4.3774,-4.3065,-4.3121,-4.4013,-4.5044,-4.5641,-4.5723,-4.6211,-4.594,-4.4881,-4.4746,-4.4176,-4.3063,-4.2928,-4.29,-4.29,-4.29,-4.2656,-4.2141,-4.1544,-4.0485,0.0,-3.8288,0.0,0.0,0.0,0.0,0.0,0.0,0.0,0.0,-3.9617,-4.0241,-4.1354,-4.1544,-4.1665,-4.1824,-4.2289,-4.2712,-4.2928,-4.4124,-4.4983,-4.5328,-4.6288,-4.727,-4.8064,-4.8441,-4.8895,-4.9502,-5.008,-5.0427,-5.0572,-5.1006,-5.1524,-5.2286,-5.2948,-5.3248,-5.3361,-5.3646,-5.3796,-5.3856,-5.3922,-5.4152,-5.4608,-5.4969,-5.5451,-5.569,-5.6017,-5.6213,-5.6311,-5.6378,-5.6603,-5.6761,-5.673,-5.673,-5.6669,-5.6638,-5.633,-5.5407,-5.5099,-5.4976,-3.8945,-3.8945,-3.9076,-3.9128,-3.9102,-3.8998,-3.8423,-3.7586,-3.7691,-3.7717,-3.7743,-3.7848,-3.7639,-3.7246,-3.7795,-3.8057,-3.8083,-3.8632,-3.9364,-4.0252,-4.0252,-4.0775,-4.1664,-4.1794,-4.2082,-4.2526,-4.2762,-4.2866,-4.2866,-4.2971,-4.3258,-4.3676,-4.3232,-4.3467,-4.4203,0.0,0.0,0.0,-4.5478,-4.5831,-4.6292,-4.6428,-4.613,-4.5451,-4.4963,0.0,-4.3633,-4.3145,-4.29,-4.29,-4.29,0.0,0.0,0.0,0.0,0.0,0.0,0.0,0.0,0.0,0.0,0.0,-4.1435,-4.111,-4.016,-4.1354,-4.2521,-4.3199,-4.3715,-4.4013,-4.4112,-4.4221,-4.4276,-4.4303,-4.4792,-4.5321,-4.5761,-4.6456,-4.7035,-4.7752,-4.8211,-4.8666,-4.9059,-4.9461,-4.9717,-5.002,-5.0691,-5.1318,-5.1413,-5.1817,-5.2193,-5.2632,-5.3231,-5.3509,-5.3568,-5.3626,-5.3552,-5.3743,-5.4009,-5.4436,-5.4815,-5.525,-5.5581,-5.5979,-5.6077,-5.6274,-5.647,-5.647,-5.6567,-5.6761,-5.6761,-5.67,-5.6423,-5.6361,-5.6392,-3.9625,0.0,-3.9625,-3.9625,0.0,-3.9625,-3.9285,-3.8736,-3.8736,-3.8762,-3.8736,-3.8736,-3.8579,-3.8318,-3.8893,-3.9155,-3.9181,-4.0017,-4.0723,-4.1272,-4.1559,-4.2004,-4.2579,-4.2605,-4.2735,-4.3023,-4.331,-4.3441,-4.3467,-4.3729,-4.4016,-4.4278,-4.399,-4.4123,-4.4731,-4.4836,-4.5119,-4.5587,-4.5885,-4.6184,-4.6455,-4.6482,-4.6211,-4.5614,0.0,0.0,0.0,0.0,0.0,0.0,0.0,0.0,0.0,0.0,0.0,-4.2466,-4.2412,-4.2304,-4.2005,-4.2548,-4.3009,-4.3308,-4.3606,-4.328,-4.2059,-4.309,-4.3904,-4.4203,-4.4529,-4.4719,-4.4719,-4.4963,-4.5153,-4.5153,-4.5499,-4.5901,-4.6277,-4.6641,-4.7094,-4.7619,-4.8144,-4.8471,-4.898,-4.9448,-4.9699,-4.9955,-5.0593,-5.1064,-5.1173,-5.1669,-5.2243,-5.2531,-5.2501,-5.273,-5.2972,-5.2759,-5.2759,-5.2972,-5.3184,-5.3366,-5.3756,-5.4406,-5.4845,-5.525,-5.5551,-5.588,-5.6274,-5.6372,-5.647,-5.6761,-5.6761,-5.6761,-5.6761,-5.6761,-5.6761,-3.9913,-3.9913,-3.9913,-3.9913,-3.9913,-3.9913,-3.9913,-3.9913,0.0,0.0,0.0,-3.986,-3.9913,-3.9939,-4.0488,-4.0723,-4.0801,-4.1847,-4.2317,-4.2343,-4.2814,-4.3075,-4.318,-4.318,-4.3232,-4.3363,-4.3807,-4.4016,-4.4042,-4.4513,-4.4748,-4.4748,-4.4748,-4.483,-4.518,-4.5582,-4.5845,-4.5836,-4.6292,-4.6482,-4.6482,-4.6482,-4.6184,-4.5614,-4.5587,-4.5071,-4.3986,-4.3932,-4.3715,-4.3253,-4.366,-4.3932,-4.3959,-4.442,-4.4474,-4.3986,-4.404,-4.4094,-4.4094,-4.4203,-4.4474,-4.499,-4.5017,-4.4746,-4.4149,-4.4556,-4.4908,-4.5017,-4.5017,-4.5017,-4.5017,-4.5451,-4.575,-4.575,-4.6265,-4.6618,-4.6645,-4.6937,-4.7315,-4.7831,-4.8047,-4.8373,-4.9086,-4.9446,-4.994,-5.0078,-5.0437,-5.0795,-5.0906,-5.1565,-5.2079,-5.2136,-5.1868,-5.1759,-5.2085,-5.1976,-5.1868,-5.2193,-5.2414,-5.2687,-5.3009,-5.3704,-5.442,-5.4849,-5.5275,-5.5943,-5.6442,-5.6701,-5.6807,-5.7131,-5.7131,-5.7131,-5.7131,-5.7131,-5.7069,-4.1089,-4.1089,-4.1063,-4.1063,-4.1089,-4.1063,-4.1089,-4.1036,-4.054,-4.0305,-4.0331,-4.0853,-4.1089,-4.1115,-4.1664,-4.1925,-4.1951,-4.2605,-4.2892,0.0,-4.2997,-4.3284,-4.3729,-4.3755,-4.4016,-4.446,-4.4565,-4.4617,-4.4617,-4.4696,-4.4748,-4.4748,-4.4748,-4.4856,-4.518,-4.5287,-4.5795,-4.6625,-4.6567,-4.6482,-4.6482,-4.6482,-4.6184,-4.5641,-4.5614,-4.5288,-4.461,-4.4583,-4.4529,-4.4447,-4.4529,-4.4583,-4.4583,-4.4691,-4.4664,-4.461,-4.5044,-4.5343,-4.5343,-4.5804,-4.613,-4.6211,-4.6238,-4.5967,-4.5397,-4.5424,-4.5668,-4.6157,-4.6157,-4.6211,-4.6238,-4.6292,-4.6347,-4.6401,-4.6889,-4.7242,-4.7242,-4.7649,-4.7975,-4.8083,-4.811,-4.8464,-4.9008,-4.9198,-4.947,-4.9878,-5.0154,-5.0123,-5.0235,-5.0683,-5.11,-5.1128,-5.1128,-5.0989,-5.1183,-5.1128,-5.1211,-5.11,-5.1822,-5.2351,-5.2684,-5.3685,-5.4489,-5.5039,-5.5595,-5.6392,-5.7118,-5.7546,-5.776,-5.8132,-5.8232,-5.8362,-5.8331,-5.8362,-5.8085,-4.2239,-4.2239,-4.2239,-4.2239,-4.2239,-4.2239,-4.2239,-4.2265,-4.2291,-4.1925,-4.1402,-4.1664,-4.1951,-4.2265,-4.2526,-4.2631,-4.2657,-4.3232,-4.3493,-4.352,-4.3807,-4.4095,-4.433,-4.433,-4.4487,-4.4722,-4.4748,-4.4748,-4.4748,-4.4748,-4.4748,-4.4748,-4.5036,-4.5375,-4.5884,-4.602,-4.6372,-4.6914,-4.6786,-4.7,-4.7405,-4.7432,-4.7296,-4.7025,-4.7025,-4.6754,-4.6184,-4.613,-4.5994,-4.5668,-4.5967,-4.6157,-4.6157,-4.6428,-4.6618,-4.6618,-4.6591,-4.6564,-4.6537,-4.6509,-4.6482,-4.6482,-4.6482,-4.6374,-4.6102,-4.6075,-4.6184,-4.6455,-4.6482,-4.6482,-4.6482,-4.6754,-4.6944,-4.6944,-4.7486,-4.7839,-4.7866,-4.8056,-4.8355,-4.8653,-4.8735,-4.8952,-4.9521,-4.9603,-4.9684,-4.9983,-5.001,-5.001,-5.0037,-5.0535,-5.0816,-5.0569,-5.0734,-5.0925,-5.0953,-5.1254,-5.1304,-5.1331,-5.1893,-5.2287,-5.2542,-5.3388,-5.4146,-5.473,-5.5496,-5.6249,-5.7124,-5.754,-5.7849,-5.8156,-5.8258,-5.8359,-5.846,-5.8662,-5.8547,-4.3023,-4.3023,-4.3023,-4.3023,-4.3023,-4.3023,-4.3023,-4.3075,-4.3467,-4.3258,-4.2631,-4.2683,-4.2997,-4.3389,-4.3415,-4.3415,-4.3467,-4.3859,-4.4068,-4.4095,-4.4513,-4.4748,-4.4748,-4.4748,-4.48,-4.4931,-4.4931,-4.5009,-4.5114,-4.5114,-4.5114,-4.5166,-4.5584,-4.6029,-4.6473,-4.6698,-4.6863,-4.7054,-4.71,-4.7459,-4.811,-4.8137,-4.8137,-4.8246,-4.8219,-4.8029,-4.7595,-4.7568,-4.7351,-4.6916,-4.7323,-4.7568,-4.7595,-4.8002,-4.8246,-4.8192,-4.7812,-4.7568,-4.7433,-4.7027,-4.6756,-4.665,-4.665,-4.665,-4.665,-4.6756,-4.6808,-4.6699,-4.6835,-4.6916,-4.6971,-4.7269,-4.7568,-4.7595,-4.8083,-4.8436,-4.8436,-4.8572,-4.8816,-4.925,-4.9331,-4.9521,-4.9874,-5.001,-4.9983,-4.9983,-5.0118,-5.02,-5.0281,-5.0715,-5.0851,-5.0661,-5.0824,-5.1068,-5.1122,-5.1448,-5.1719,-5.1828,-5.2171,-5.2342,-5.263,-5.3148,-5.3949,-5.4601,-5.5329,-5.6158,-5.7072,-5.7497,-5.7873,-5.8321,-5.8486,-5.8498,-5.894,-5.9144,-5.9101,-4.3049,-4.3023,-4.3127,-4.3023,-4.3101,-4.3101,-4.3127,-4.3101,-4.3127,-4.3363,-4.3781,-4.4251,-4.4487,-4.4565,-4.4513,-4.4513,-4.4539,-4.4617,-4.4643,-4.467,-4.4696,-4.4748,-4.48,-4.4748,-4.5009,-4.548,-4.5532,-4.5794,-4.6212,-4.6264,-4.629,-4.6316,-4.6369,-4.6421,-4.6499,-4.6525,-4.6961,-4.7661,-4.7748,-4.7708,-4.7835,-4.7808,-4.7918,-4.8246,-4.8246,-4.8219,-4.8192,-4.8165,-4.8138,-4.8083,-4.8138,-4.8165,-4.8083,-4.8219,-4.8246,-4.8164,-4.8219,-4.8056,-4.7837,-4.7701,-4.7484,-4.7291,-4.7237,-4.7237,-4.7237,-4.751,-4.7514,-4.7406,-4.7758,-4.7975,-4.8083,-4.8138,-4.8165,-4.8192,-4.8707,-4.9033,-4.9087,-4.9521,-4.9874,-4.9901,-4.9847,-4.9956,-4.9983,-5.0037,-5.0037,-5.0091,-5.0553,-5.0824,-5.0878,-5.1339,-5.1719,-5.1638,-5.1747,-5.1747,-5.1774,-5.1774,-5.1991,-5.1964,-5.2316,-5.2679,-5.2934,-5.3472,-5.4212,-5.4702,-5.5391,-5.625,-5.7207,-5.7908,-5.8258,-5.862,-5.9001,-5.9365,-6.0058,-6.0279,-5.9983,-4.5062,-4.5062,-4.5062,-4.5062,-4.5062,-4.5062,-4.5062,-4.5062,-4.5062,-4.5218,-4.5401,-4.5663,-4.5375,-4.4748,-4.4748,-4.4905,-4.5245,-4.5271,-4.5454,-4.5741,-4.5767,-4.5767,-4.5767,-4.5767,-4.5898,-4.6107,-4.6133,-4.6238,-4.6447,-4.6499,-4.663,-4.697,-4.6996,-4.7153,-4.7466,-4.7492,-4.7712,-4.8037,-4.8064,-4.8188,-4.8319,-4.8519,-4.8744,-4.8969,-4.9054,-4.9081,-4.9304,-4.9304,-4.9193,-4.9081,-4.9081,-4.8969,-4.8744,-4.8744,-4.8744,-4.8718,-4.8396,-4.8047,-4.7588,-4.7451,-4.7451,-4.734,-4.734,-4.734,-4.7367,-4.7771,-4.8101,-4.8134,-4.8218,-4.8246,-4.83,-4.8545,-4.8762,-4.8843,-4.9304,-4.9657,-4.9657,-4.9847,-5.001,-5.001,-5.001,-5.001,-5.0064,-5.0335,-5.0498,-5.0607,-5.1068,-5.1421,-5.1475,-5.1964,-5.2316,-5.2398,-5.2642,-5.2696,-5.2479,-5.2669,-5.2805,-5.2886,-5.3049,-5.3212,-5.3266,-5.3615,-5.4286,-5.4671,-5.5317,-5.5902,-5.6451,-5.6964,-5.7303,-5.8003,-5.8743,-5.9069,-5.9499,-6.0167,-6.0175,-4.6499,-4.6499,-4.6499,-4.6499,-4.6499,-4.6499,-4.6499,-4.6499,-4.6499,-4.6499,-4.6499,-4.6499,-4.6029,-4.5297,-4.5192,-4.5454,-4.582,-4.5846,-4.6081,-4.6473,-4.6499,-4.6473,-4.6499,-4.6499,-4.6552,-4.6682,-4.6708,-4.6787,-4.6917,-4.6944,-4.7153,-4.7519,-4.7571,-4.778,-4.8146,-4.8172,-4.8172,-4.8172,-4.8172,-4.8315,-4.8548,-4.8779,-4.8983,-4.9469,-4.9442,-4.9583,-4.9783,-4.9783,-4.967,-4.9442,-4.9442,-4.9328,-4.9125,-4.9125,-4.9125,-4.9098,-4.8699,-4.816,-4.7734,-4.7734,-4.7595,-4.7595,-4.7595,-4.7595,-4.7675,-4.7993,-4.8432,-4.8659,-4.8534,-4.8541,-4.8789,-4.9114,-4.9359,-4.9413,-4.9793,-5.001,-4.9983,-5.001,-5.001,-5.001,-5.001,-5.0091,-5.0308,-5.077,-5.115,-5.1204,-5.1665,-5.2072,-5.2154,-5.2561,-5.2968,-5.2968,-5.332,-5.3375,-5.3076,-5.3212,-5.3565,-5.3592,-5.3565,-5.3537,-5.3646,-5.3942,-5.432,-5.4726,-5.5325,-5.5793,-5.6463,-5.6585,-5.6792,-5.734,-5.8249,-5.9139,-5.9817,-6.0455,-6.0882,-4.6499,-4.6499,-4.6499,-4.6552,-4.6499,-4.6525,-4.6525,-4.6604,-4.6552,-4.6525,-4.6578,-4.6552,-4.6473,-4.6421,-4.6395,-4.6421,-4.6447,-4.6447,-4.6499,-4.6578,-4.6578,-4.6499,-4.6499,-4.6499,-4.6787,-4.7283,-4.7283,-4.7545,-4.7989,-4.8068,-4.812,-4.812,-4.8094,-4.8146,-4.8172,-4.8172,-4.8172,-4.8172,-4.8172,-4.8172,-4.8198,-4.8315,-4.8548,-4.901,-4.9125,-4.9125,-4.9125,-4.9125,-4.9125,-4.9125,-4.9125,-4.9125,-4.9125,-4.9125,-4.901,-4.9098,-4.9098,-4.893,-4.8647,-4.8479,-4.8363,-4.8158,-4.8079,-4.8158,-4.8053,-4.8363,-4.8647,-4.8726,-4.8851,-4.914,-4.9594,-4.9707,-4.9901,-4.9901,-4.9956,-5.001,-5.001,-5.001,-5.001,-5.0064,-5.0146,-5.039,-5.0824,-5.1394,-5.1719,-5.1882,-5.2316,-5.2669,-5.275,-5.3185,-5.3429,-5.351,-5.3565,-5.3592,-5.3565,-5.3673,-5.3673,-5.3754,-5.3863,-5.3754,-5.3836,-5.4093,-5.4515,-5.491,-5.5429,-5.5866,-5.6548,-5.694,-5.7309,-5.7937,-5.8928,-5.9758,-6.003,-6.1388,-6.1903,-4.7571,-4.7571,-4.7571,-4.7571,-4.7571,-4.7571,-4.7571,-4.7571,-4.7571,-4.7571,-4.7571,-4.7545,-4.7571,-4.7571,-4.7571,-4.7362,-4.7048,-4.7022,-4.7231,-4.7519,-4.7571,-4.7571,-4.7571,-4.7571,-4.7649,-4.7832,-4.7885,-4.7989,-4.8146,-4.8172,-4.8172,-4.8172,-4.8172,-4.8172,-4.8172,-4.8172,-4.8172,-4.8172,-4.8172,-4.8172,-4.8172,-4.8172,-4.8289,-4.8548,-4.8779,-4.8895,-4.9125,-4.9125,-4.901,-4.8895,-4.8779,-4.8779,-4.8548,-4.8548,-4.8548,-4.8548,-4.8548,-4.8548,-4.8431,-4.8431,-4.8315,-4.8172,-4.8172,-4.8172,-4.8172,-4.8315,-4.8431,-4.8663,-4.8779,-4.901,-4.9354,-4.9583,-4.9783,-5.001,-5.001,-5.0037,-5.001,-5.001,-5.0146,-5.0525,-5.0905,-5.1285,-5.1502,-5.2018,-5.2371,-5.2452,-5.2913,-5.3212,-5.3293,-5.3483,-5.3646,-5.3673,-5.3917,-5.4162,-5.4162,-5.4162,-5.4216,-5.4324,-5.4406,-5.4677,-5.484,-5.484,-5.5181,-5.5236,-5.5687,-5.5823,-5.6376,-5.6596,-5.7088,-5.7612,-5.8778,-5.983,-5.9997,-6.1313,-6.1951,-4.8055,-4.8172,-4.8172,-4.8172,-4.8172,-4.8172,-4.8172,-4.8172,-4.8172,-4.8172,-4.8172,-4.8172,-4.8172,-4.8172,-4.8172,-4.7989,-4.7623,-4.7623,-4.7832,-4.8146,-4.8172,-4.8172,-4.8172,-4.8172,-4.8172,-4.8172,-4.8172,-4.8172,-4.8172,-4.8172,-4.8172,-4.8172,-4.8172,-4.8172,-4.8172,-4.8172,-4.8172,-4.8172,-4.8172,-4.8172,-4.8198,-4.8381,-4.846,-4.8486,-4.872,-4.8848,-4.8779,-4.8779,-4.8779,-4.8548,-4.8548,-4.8431,-4.8172,-4.8172,-4.8172,-4.8172,-4.8172,-4.8172,-4.8172,-4.8172,-4.8172,-4.8172,-4.8172,-4.8172,-4.8172,-4.8172,-4.8315,-4.8431,-4.8548,-4.8663,-4.8948,-4.94,-4.9657,-4.9864,-5.0059,-5.0281,-5.0308,-5.0498,-5.0797,-5.1177,-5.1719,-5.2045,-5.2181,-5.2669,-5.294,-5.2995,-5.3375,-5.3592,-5.3592,-5.3782,-5.389,-5.3944,-5.4433,-5.4704,-5.4867,-5.4976,-5.4921,-5.5003,-5.5003,-5.5355,-5.56,-5.5627,-5.5708,-5.5735,-5.5817,-5.5925,-5.6106,-5.6205,-5.6679,-5.7271,-5.8568,-5.9969,-6.0501,-6.1223,-6.1935,-4.7938,-4.8172,-4.8172,-4.8172,-4.8172,-4.8172,-4.8172,-4.8172,-4.8172,-4.8172,-4.8172,-4.8172,-4.8172,-4.8172,-4.8172,-4.8146,-4.812,-4.8094,-4.812,-4.8172,-4.8172,-4.8172,-4.8172,-4.8172,-4.8172,-4.8172,-4.8172,-4.8172,-4.8172,-4.8172,-4.8172,-4.8172,-4.8172,-4.8224,-4.8224,-4.8277,-4.825,-4.8329,-4.8381,-4.8303,-4.8277,-4.8799,-4.9087,-4.9087,-4.9087,-4.897,-4.842,-4.8367,-4.8393,-4.825,-4.8277,-4.8224,-4.8355,-4.8329,-4.825,-4.8329,-4.8277,-4.825,-4.8277,-4.8329,-4.8381,-4.8381,-4.8277,-4.8381,-4.8433,-4.8381,-4.8355,-4.8524,-4.8498,-4.842,-4.8901,-4.9335,-4.9648,-4.963,-5.0324,-5.0763,-5.0871,-5.1448,-5.1828,-5.1792,-5.2343,-5.2696,-5.2832,-5.3158,-5.3456,-5.3483,-5.3619,-5.3727,-5.3809,-5.4162,-5.446,-5.4596,-5.4976,-5.5383,-5.5627,-5.5844,-5.5735,-5.5654,-5.5627,-5.579,-5.598,-5.6061,-5.6251,-5.6332,-5.6495,-5.6631,-5.6631,-5.6886,-5.7377,-5.8008,-5.9172,-5.9972,-6.07,-6.141,-6.24,-4.7586,-4.7821,-4.7821,-4.7938,-4.8172,-4.8172,-4.8172,-4.8172,-4.8172,-4.8172,-4.8172,-4.8172,-4.8172,-4.8172,-4.8172,-4.8172,-4.8172,-4.8172,-4.8172,-4.8172,-4.8172,-4.8172,-4.8172,-4.8172,-4.8172,-4.8172,-4.8172,-4.8172,-4.8198,-4.8198,-4.8172,-4.8172,-4.8198,-4.8407,-4.8773,-4.8799,-4.8956,-4.9322,-4.9348,-4.9374,-4.9374,-4.9531,-4.9636,-4.9636,-4.9636,-4.9531,-4.9348,-4.9008,-4.8826,-4.8799,-4.9165,-4.9348,-4.9348,-4.9348,-4.9374,-4.9348,-4.9348,-4.9348,-4.9348,-4.9348,-4.9322,-4.9348,-4.9348,-4.9348,-4.9348,-4.9322,-4.9322,-4.9322,-4.9348,-4.9494,-4.952,-4.9864,-4.9996,-4.9907,-5.0479,-5.0827,-5.1025,-5.1573,-5.1988,-5.2122,-5.2821,-5.3293,-5.3347,-5.3592,-5.3646,-5.3727,-5.3972,-5.4216,-5.4297,-5.4731,-5.5084,-5.5193,-5.5654,-5.6007,-5.617,-5.6359,-5.6441,-5.6359,-5.6305,-5.6251,-5.6414,-5.6522,-5.6712,-5.6848,-5.7065,-5.7146,-5.7174,-5.7459,-5.7843,-5.8198,-5.8843,-5.9711,-6.0745,-6.1613,-6.2438,-4.7231,-4.756,-4.756,-4.7703,-4.8055,-4.8055,-4.8055,-4.8172,-4.8172,-4.8172,-4.8172,-4.8172,-4.8172,-4.8172,-4.8172,-4.8172,-4.8172,-4.8172,-4.8172,-4.8172,-4.8172,-4.8172,-4.8172,-4.8172,-4.8172,-4.8172,-4.8172,-4.8303,-4.8512,-4.8538,-4.8616,-4.8773,-4.8826,-4.9008,-4.9348,-4.9401,-4.9584,-4.9845,-4.9871,-4.9897,-4.9923,-5.0106,-5.0237,-5.0237,-5.0237,-5.0237,-5.0211,-4.9897,-4.961,-4.9479,-4.9714,-4.9871,-4.9897,-4.9871,-4.9897,-4.9897,-4.9871,-4.9871,-4.9897,-4.9819,-4.9897,-4.9897,-4.9897,-4.9871,-4.9871,-4.9897,-4.9897,-4.9897,-4.9845,-4.9897,-4.9897,-5.0254,-5.039,-5.034,-5.0844,-5.1163,-5.1469,-5.1937,-5.2393,-5.2621,-5.2985,-5.3552,-5.3863,-5.3944,-5.4053,-5.4243,-5.4596,-5.484,-5.4948,-5.5355,-5.56,-5.5871,-5.6278,-5.6522,-5.6631,-5.6848,-5.7119,-5.7065,-5.6984,-5.6902,-5.6929,-5.6929,-5.7038,-5.7038,-5.7174,-5.7174,-5.7201,-5.7174,-5.7431,-5.7944,-5.8578,-5.9673,-6.0624,-6.1494,-6.2321,-4.69,-4.7205,-4.7205,-4.7324,-4.7677,-4.7703,-4.7938,-4.8172,-4.8172,-4.8224,-4.825,-4.8329,-4.8329,-4.8303,-4.846,-4.846,-4.8303,-4.8407,-4.846,-4.8433,-4.8433,-4.846,-4.846,-4.8486,-4.8486,-4.8433,-4.8407,-4.8643,-4.9087,-4.9113,-4.9374,-4.9714,-4.9714,-4.9897,-4.9923,-4.9923,-5.0002,-5.0132,-5.008,-5.0106,-5.0132,-5.0551,-5.0838,-5.0838,-5.0838,-5.0838,-5.0812,-5.076,-5.0524,-5.008,-5.0106,-5.0159,-5.0054,-5.0002,-5.0106,-5.0132,-5.0028,-5.008,-5.0028,-5.0159,-5.0132,-5.0159,-5.0159,-4.9976,-5.0159,-5.0211,-5.0211,-5.0185,-5.0159,-5.0106,-5.0211,-5.0524,-5.076,-5.0935,-5.1276,-5.1732,-5.2332,-5.2535,-5.2535,-5.2887,-5.3186,-5.3524,-5.431,-5.4541,-5.4786,-5.5111,-5.5355,-5.5464,-5.5573,-5.5898,-5.6251,-5.6549,-5.6794,-5.6848,-5.6929,-5.6956,-5.7174,-5.7174,-5.7201,-5.7201,-5.7201,-5.7201,-5.7174,-5.7174,-5.7282,-5.7255,-5.7201,-5.7201,-5.7431,-5.7944,-5.8676,-5.9645,-6.0502,-6.1255,-6.2145,-4.6686,-4.69,-4.69,-4.7112,-4.7324,-4.756,-4.7703,-4.7821,-4.8081,-4.8486,-4.8773,-4.8852,-4.9035,-4.9401,-4.9401,-4.9453,-4.9374,-4.9374,-4.9427,-4.9453,-4.9453,-4.9453,-4.9427,-4.9427,-4.9401,-4.9374,-4.9322,-4.9531,-4.9662,-4.9688,-4.9793,-4.9871,-5.0002,-5.0159,-5.0472,-5.0551,-5.0786,-5.11,-5.1126,-5.11,-5.1126,-5.123,-5.1387,-5.1387,-5.1361,-5.1361,-5.1387,-5.1387,-5.1335,-5.1178,-5.1152,-5.1152,-5.1073,-5.1073,-5.1047,-5.1047,-5.11,-5.1126,-5.1126,-5.11,-5.1126,-5.1152,-5.1021,-5.1126,-5.1152,-5.1152,-5.1152,-5.1152,-5.1152,-5.11,-5.1152,-5.1256,-5.1361,-5.1387,-5.1636,-5.1812,-5.197,-5.2121,-5.2377,-5.2899,-5.3503,-5.4046,-5.4575,-5.5041,-5.5274,-5.5491,-5.5817,-5.6061,-5.6197,-5.6441,-5.6794,-5.6902,-5.7092,-5.7119,-5.7146,-5.7146,-5.7174,-5.7174,-5.7201,-5.7228,-5.7228,-5.7228,-5.7201,-5.7174,-5.7499,-5.7581,-5.7363,-5.7228,-5.7587,-5.809,-5.8646,-5.9458,-6.0005,-6.0681,-6.1879,-4.6421,-4.6591,-4.6819,-4.7136,-4.7376,-4.782,-4.8043,-4.8163,-4.8428,-4.8729,-4.9161,-4.9187,-4.9489,-4.9871,-4.9871,-4.9871,-4.9897,-4.9897,-4.9871,-4.9923,-5.0132,-5.0106,-4.9949,-4.9871,-4.9897,-4.9897,-4.9897,-5.0028,-5.0237,-5.0263,-5.0368,-5.0603,-5.0603,-5.0786,-5.11,-5.1152,-5.1256,-5.1544,-5.1596,-5.1596,-5.1596,-5.1596,-5.1596,-5.1596,-5.1596,-5.1596,-5.1596,-5.1596,-5.1596,-5.1596,-5.1596,-5.1596,-5.1596,-5.1596,-5.1596,-5.1596,-5.1596,-5.1596,-5.1596,-5.1596,-5.1596,-5.1596,-5.1596,-5.1596,-5.157,-5.1596,-5.1596,-5.157,-5.1596,-5.1596,-5.1596,-5.1596,-5.1727,-5.1936,-5.1962,-5.1962,-5.1962,-5.214,-5.2628,-5.3276,-5.3894,-5.4459,-5.5176,-5.551,-5.5925,-5.6142,-5.6495,-5.6631,-5.6712,-5.7011,-5.7174,-5.7174,-5.7201,-5.7201,-5.7255,-5.7255,-5.7363,-5.7363,-5.7581,-5.7526,-5.7445,-5.7472,-5.7553,-5.7635,-5.7798,-5.7906,-5.7798,-5.7798,-5.8331,-5.8674,-5.887,-5.94,-6.0353,-6.0897,-6.2049,-4.6376,-4.6451,-4.6979,-4.7327,-4.7744,-4.8176,-4.8549,-4.8774,-4.882,-4.9142,-4.9515,-4.9541,-4.9863,-5.0054,-5.0289,-5.0132,-5.0132,-5.0237,-5.0185,-5.0342,-5.0577,-5.0655,-5.0315,-5.0289,-5.0263,-5.0237,-5.0106,-5.042,-5.076,-5.0864,-5.11,-5.1335,-5.1465,-5.1544,-5.1518,-5.1544,-5.1596,-5.1596,-5.1596,-5.1596,-5.1596,-5.1596,-5.1596,-5.1596,-5.1596,-5.1596,-5.1596,-5.1596,-5.1596,-5.1596,-5.1596,-5.1596,-5.1596,-5.1596,-5.1596,-5.1596,-5.1596,-5.1596,-5.1596,-5.1596,-5.1596,-5.1596,-5.1596,-5.1596,-5.1596,-5.1596,-5.1596,-5.1596,-5.1596,-5.1596,-5.1622,-5.1648,-5.1962,-5.2328,-5.2485,-5.2589,-5.2642,-5.2616,-5.2926,-5.3708,-5.4198,-5.4874,-5.5532,-5.6158,-5.6549,-5.6631,-5.6902,-5.6929,-5.6956,-5.7092,-5.7174,-5.7174,-5.7201,-5.7228,-5.7282,-5.7336,-5.7499,-5.7635,-5.8042,-5.8123,-5.7933,-5.796,-5.8096,-5.8232,-5.834,-5.8503,-5.8639,-5.888,-5.8989,-5.9172,-5.916,-6.0337,-6.1373,-6.1939,-6.2715,-4.6954,-4.7004,-4.7531,-4.7732,-4.7881,-4.823,-4.8429,-4.8578,-4.8825,-4.9353,-5.0007,-5.0085,-5.0565,-5.1178,-5.1126,-5.123,-5.1126,-5.1126,-5.123,-5.1256,-5.1309,-5.1387,-5.1204,-5.1152,-5.1178,-5.1152,-5.1204,-5.1282,-5.1387,-5.1387,-5.1465,-5.157,-5.1596,-5.1596,-5.1596,-5.1596,-5.1596,-5.1596,-5.1596,-5.1596,-5.1596,-5.1596,-5.1596,-5.1596,-5.1596,-5.1596,-5.1596,-5.1596,-5.1596,-5.1596,-5.1596,-5.1596,-5.1596,-5.1596,-5.1596,-5.1596,-5.1596,-5.1596,-5.1596,-5.1596,-5.1596,-5.1596,-5.1596,-5.1596,-5.1596,-5.1596,-5.1596,-5.1596,-5.1596,-5.1622,-5.1701,-5.2067,-5.238,-5.2642,-5.2981,-5.3373,-5.3661,-5.3452,-5.3478,-5.3974,-5.4419,-5.502,-5.5969,-5.6386,-5.678,-5.7044,-5.7174,-5.7174,-5.7174,-5.7174,-5.7255,-5.7309,-5.7391,-5.7499,-5.7852,-5.7933,-5.8096,-5.8259,-5.8585,-5.8937,-5.8747,-5.8666,-5.8883,-5.891,-5.8856,-5.9073,-5.9371,-5.9209,-5.9342,-5.9394,-5.9632,-6.0532,-6.1498,-6.2348,-6.3407,-4.728,-4.7556,-4.8083,-4.8309,-4.836,-4.8712,-4.8964,-4.8964,-4.909,-4.962,-5.0352,-5.043,-5.0835,-5.1596,-5.1596,-5.1596,-5.1596,-5.1596,-5.1596,-5.157,-5.1596,-5.1596,-5.1596,-5.1596,-5.1596,-5.1596,-5.1596,-5.1596,-5.1596,-5.1596,-5.157,-5.1596,-5.1596,-5.1596,-5.1596,-5.1596,-5.1596,-5.1596,-5.1596,-5.1596,-5.1596,-5.1596,-5.1596,-5.1596,-5.1596,-5.1596,-5.1596,-5.1596,-5.1596,-5.1596,-5.1596,-5.1596,-5.1596,-5.1596,-5.1596,-5.1596,-5.1596,-5.1596,-5.1596,-5.1596,-5.1596,-5.1596,-5.1596,-5.1596,-5.1596,-5.1596,-5.1596,-5.1596,-5.1622,-5.1675,-5.2014,-5.2563,-5.2929,-5.3295,-5.3556,-5.4001,-5.4367,-5.4131,-5.4001,-5.4445,-5.4998,-5.5392,-5.6025,-5.6367,-5.6785,-5.7044,-5.7174,-5.7174,-5.7174,-5.7228,-5.7445,-5.7553,-5.7635,-5.7852,-5.834,-5.8612,-5.8829,-5.9019,-5.9317,-5.967,-5.9806,-5.9751,-5.9751,-5.9643,-5.9507,-5.9833,-6.005,-5.9833,-5.9751,-6.0049,-6.0374,-6.0905,-6.1641,-6.2765,-6.3999,-4.7631,-4.8083,-4.8661,-4.8912,-4.8962,-4.9364,-4.9515,-4.9565,-4.959,-4.9977,-5.0461,-5.0588,-5.0916,-5.1471,-5.1596,-5.1596,-5.1596,-5.1596,-5.1596,-5.1596,-5.1596,-5.1596,-5.1596,-5.1596,-5.1596,-5.1596,-5.1596,-5.1596,-5.1596,-5.1596,-5.1596,-5.1596,-5.1596,-5.1596,-5.1596,-5.1596,-5.1596,-5.1596,-5.1596,-5.1596,-5.1596,-5.1596,-5.1596,-5.1596,-5.1596,-5.1596,-5.1596,-5.1596,-5.1596,-5.1596,-5.1596,-5.1596,-5.1596,-5.1596,-5.1596,-5.1596,-5.1596,-5.1596,-5.1596,-5.1596,-5.1596,-5.1596,-5.1596,-5.1596,-5.1596,-5.1622,-5.1701,-5.1831,-5.1936,-5.2197,-5.2616,-5.3164,-5.3661,-5.4027,-5.421,-5.4576,-5.4837,-5.4628,-5.4654,-5.4889,-5.5075,-5.5525,-5.5815,-5.6132,-5.6655,-5.7071,-5.7071,-5.7255,-5.7282,-5.7418,-5.7716,-5.8015,-5.8178,-5.8476,-5.8964,-5.9426,-5.9616,-5.967,-5.9968,-6.0185,-6.0511,-6.0403,-6.024,-6.024,-6.0267,-6.0484,-6.0565,-6.0403,-6.0457,-6.0892,-6.0947,-6.1161,-6.2047,-6.3328,-6.4438,-4.856,-4.8686,-4.9238,-4.9464,-4.9464,-4.9565,-4.959,-4.959,-4.959,-4.9976,-5.0461,-5.0588,-5.0968,-5.1471,-5.1596,-5.1596,-5.1596,-5.1596,-5.1596,-5.1596,-5.1596,-5.1596,-5.1596,-5.1596,-5.1596,-5.1596,-5.1596,-5.1596,-5.1596,-5.1596,-5.1596,-5.1596,-5.1596,-5.1596,-5.1596,-5.1596,-5.1596,-5.1596,-5.1596,-5.1596,-5.1596,-5.1596,-5.1596,-5.1596,-5.1596,-5.1596,-5.1596,-5.1596,-5.1596,-5.1596,-5.1596,-5.1596,-5.1596,-5.1596,-5.1596,-5.1596,-5.1596,-5.1596,-5.1596,-5.1596,-5.1596,-5.1596,-5.1596,-5.1596,-5.1596,-5.1675,-5.191,-5.238,-5.2772,-5.3112,-5.3243,-5.3739,-5.4053,-5.4314,-5.4628,-5.4942,-5.502,-5.4994,-5.4889,-5.5072,-5.5232,-5.5365,-5.5763,-5.6053,-5.637,-5.6685,-5.7027,-5.7401,-5.7775,-5.7883,-5.8205,-5.853,-5.8829,-5.9209,-5.9616,-6.0104,-6.043,-6.0348,-6.0457,-6.0457,-6.0674,-6.0728,-6.0674,-6.0565,-6.0538,-6.0647,-6.0728,-6.0755,-6.0755,-6.0782,-6.1029,-6.1166,-6.2086,-6.3018,-6.4167,-4.8937,-4.9213,-4.949,-4.959,-4.959,-4.959,-4.959,-4.959,-4.959,-4.9847,-5.0232,-5.0461,-5.0842,-5.1246,-5.1596,-5.1596,-5.1596,-5.1596,-5.1596,-5.1596,-5.1596,-5.1596,-5.1596,-5.1596,-5.1596,-5.1596,-5.1596,-5.1596,-5.1596,-5.1596,-5.1596,-5.1596,-5.1596,-5.1596,-5.1596,-5.1596,-5.1622,-5.1622,-5.1622,-5.1622,-5.1622,-5.1622,-5.1622,-5.1622,-5.1622,-5.1596,-5.1596,-5.1596,-5.1596,-5.1596,-5.1596,-5.1596,-5.1596,-5.1596,-5.1596,-5.1596,-5.1596,-5.1596,-5.1596,-5.1596,-5.1596,-5.1596,-5.1622,-5.1596,-5.1701,-5.191,-5.2354,-5.2903,-5.3452,-5.3818,-5.3818,-5.4314,-5.4628,-5.4707,-5.4942,-5.5072,-5.5099,-5.5099,-5.5099,-5.5125,-5.5151,-5.5258,-5.5472,-5.5816,-5.6054,-5.6425,-5.6822,-5.7461,-5.8184,-5.8346,-5.8614,-5.9209,-5.9534,-5.9833,-6.0131,-6.043,-6.0755,-6.0755,-6.0755,-6.0755,-6.0755,-6.0755,-6.0755,-6.0701,-6.0755,-6.0755,-6.0755,-6.0755,-6.0755,-6.0755,-6.0892,-6.1166,-6.1709,-6.262,-6.3777,-4.9188,-4.959,-4.959,-4.959,-4.959,-4.959,-4.959,-4.959,-4.959,-4.9847,-5.0129,-5.0359,-5.0614,-5.0994,-5.1346,-5.1471,-5.1596,-5.1596,-5.1596,-5.1596,-5.1596,-5.1596,-5.1596,-5.1596,-5.1596,-5.1596,-5.1596,-5.1596,-5.1596,-5.1596,-5.1596,-5.1596,-5.1596,-5.1596,-5.1596,-5.1596,-5.1622,-5.1779,-5.1779,-5.1805,-5.191,-5.1831,-5.1779,-5.1727,-5.1675,-5.1596,-5.1596,-5.1596,-5.1596,-5.1596,-5.1596,-5.1596,-5.1596,-5.1596,-5.1596,-5.1596,-5.1596,-5.1596,-5.1596,-5.1596,-5.1596,-5.1596,-5.1727,-5.1779,-5.2014,-5.2485,-5.3086,-5.3556,-5.4053,-5.4393,-5.4445,-5.4811,-5.502,-5.5046,-5.5046,-5.5099,-5.5099,-5.5125,-5.5229,-5.5229,-5.5229,-5.5442,-5.568,-5.584,-5.6132,-5.6636,-5.7037,-5.7785,-5.8456,-5.8725,-5.8941,-5.9752,-6.0267,-6.0484,-6.062,-6.0565,-6.0755,-6.0755,-6.0755,-6.0755,-6.0755,-6.0755,-6.0755,-6.0755,-6.0755,-6.0755,-6.0755,-6.0755,-6.0755,-6.0755,-6.0755,-6.1029,-6.1574,-6.2248,-6.3282,-4.954,-4.959,-4.959,-4.959,-4.959,-4.959,-4.959,-4.959,-4.959,-4.9744,-5.0129,-5.0104,-5.0359,-5.0741,-5.0994,-5.1346,-5.1471,-5.1596,-5.1596,-5.1596,-5.1596,-5.1596,-5.1596,-5.1596,-5.1596,-5.1648,-5.1648,-5.1596,-5.1648,-5.1675,-5.1648,-5.1648,-5.1701,-5.1675,-5.1858,-5.1884,-5.1884,-5.2302,-5.238,-5.2616,-5.2929,-5.2616,-5.2433,-5.2276,-5.1988,-5.1779,-5.1805,-5.1779,-5.1701,-5.1675,-5.1622,-5.1596,-5.1596,-5.1596,-5.1596,-5.1596,-5.1596,-5.1596,-5.1622,-5.1675,-5.1727,-5.1831,-5.2093,-5.2328,-5.2668,-5.3269,-5.387,-5.4079,-5.4602,-5.4863,-5.4863,-5.502,-5.5099,-5.5099,-5.5099,-5.5125,-5.5151,-5.5334,-5.5438,-5.5726,-5.583,-5.5883,-5.6097,-5.607,-5.6149,-5.6788,-5.7429,-5.802,-5.8695,-5.8992,-5.9399,-6.0158,-6.0511,-6.0701,-6.0755,-6.0755,-6.0755,-6.0755,-6.0755,-6.0755,-6.0755,-6.0755,-6.0755,-6.0755,-6.0755,-6.0755,-6.0755,-6.0755,-6.0755,-6.0755,-6.0755,-6.1029,-6.1302,-6.1979,-6.2753,-4.959,-4.959,-4.959,-4.959,-4.959,-4.959,-4.959,-4.959,-4.959,-4.9719,-4.9847,-4.9976,-5.0232,-5.0614,-5.0994,-5.112,-5.1372,-5.1471,-5.1596,-5.1596,-5.1596,-5.1596,-5.1596,-5.1596,-5.1596,-5.1727,-5.191,-5.2145,-5.204,-5.1805,-5.1727,-5.2093,-5.2145,-5.2354,-5.2433,-5.2589,-5.2772,-5.2955,-5.3034,-5.3138,-5.3269,-5.3164,-5.3008,-5.3008,-5.272,-5.2589,-5.2485,-5.225,-5.2119,-5.204,-5.1858,-5.1596,-5.1596,-5.1596,-5.1596,-5.1622,-5.1962,-5.1962,-5.1701,-5.1936,-5.2067,-5.225,-5.2668,-5.3112,-5.3452,-5.387,-5.4419,-5.4707,-5.4916,-5.5072,-5.5099,-5.5099,-5.5099,-5.5099,-5.5151,-5.536,-5.5465,-5.5569,-5.5752,-5.6118,-5.6432,-5.6536,-5.6615,-5.6615,-5.6745,-5.7197,-5.7762,-5.8111,-5.8844,-5.9498,-6.0019,-6.062,-6.0701,-6.0755,-6.0755,-6.0755,-6.0755,-6.0755,-6.0755,-6.0755,-6.0755,-6.0755,-6.0755,-6.0755,-6.0755,-6.0755,-6.0755,-6.0755,-6.0755,-6.0755,-6.0755,-6.0892,-6.1029,-6.1302,-6.222,-4.959,-4.959,-4.959,-4.959,-4.959,-4.959,-4.959,-4.959,-4.959,-4.959,-4.959,-4.9847,-5.0104,-5.0487,-5.0741,-5.0867,-5.0994,-5.1346,-5.1471,-5.1471,-5.1596,-5.1596,-5.1675,-5.1701,-5.1858,-5.1831,-5.2459,-5.2694,-5.2589,-5.2406,-5.2406,-5.272,-5.272,-5.2929,-5.3243,-5.3295,-5.3347,-5.3556,-5.3792,-5.387,-5.387,-5.3713,-5.3609,-5.3556,-5.3478,-5.34,-5.3321,-5.3008,-5.2746,-5.2642,-5.2406,-5.2171,-5.1962,-5.191,-5.191,-5.1962,-5.225,-5.238,-5.2328,-5.2511,-5.2694,-5.2903,-5.3269,-5.3792,-5.4288,-5.4445,-5.4524,-5.502,-5.5046,-5.5099,-5.5099,-5.5099,-5.5099,-5.5151,-5.5255,-5.5543,-5.583,-5.604,-5.6353,-5.6771,-5.7111,-5.7346,-5.7399,-5.7373,-5.7503,-5.7765,-5.8114,-5.8385,-5.8964,-5.9734,-6.0177,-6.0755,-6.0755,-6.0755,-6.0755,-6.0755,-6.0755,-6.0755,-6.0755,-6.0755,-6.0755,-6.0755,-6.0755,-6.0755,-6.0755,-6.0755,-6.0755,-6.0755,-6.0755,-6.0755,-6.0755,-6.0755,-6.0892,-6.1166,-6.1816,-4.959,-4.959,-4.959,-4.959,-4.959,-4.959,-4.959,-4.959,-4.959,-4.959,-4.959,-4.9719,-4.9847,-5.0104,-5.0232,-5.0359,-5.0588,-5.0994,-5.112,-5.122,-5.1497,-5.1701,-5.1858,-5.2145,-5.2433,-5.2537,-5.3008,-5.3295,-5.3347,-5.3347,-5.3295,-5.3347,-5.3347,-5.3373,-5.353,-5.3713,-5.387,-5.4158,-5.4524,-5.4759,-5.4654,-5.4445,-5.4184,-5.4053,-5.3713,-5.34,-5.3426,-5.3373,-5.3321,-5.3321,-5.3112,-5.2851,-5.2511,-5.2433,-5.2433,-5.2485,-5.2642,-5.2877,-5.3086,-5.3217,-5.3321,-5.3478,-5.3844,-5.4367,-5.4811,-5.4968,-5.5072,-5.5072,-5.5099,-5.5099,-5.5099,-5.5099,-5.5229,-5.536,-5.5621,-5.6013,-5.6327,-5.6615,-5.6928,-5.7425,-5.7712,-5.7895,-5.8,-5.7921,-5.7921,-5.8157,-5.8209,-5.8455,-5.9069,-5.9761,-6.0204,-6.0618,-6.0755,-6.0755,-6.0755,-6.0755,-6.0755,-6.0755,-6.0755,-6.0755,-6.0755,-6.0755,-6.0755,-6.0755,-6.0755,-6.0755,-6.0755,-6.0755,-6.0755,-6.0755,-6.0755,-6.0755,-6.0892,-6.1166,-6.1951,-4.959,-4.959,-4.959,-4.959,-4.959,-4.959,-4.959,-4.959,-4.959,-4.959,-4.959,-4.959,-4.9719,-4.9847,-4.9976,-5.0104,-5.0359,-5.0867,-5.0994,-5.1402,-5.1658,-5.2119,-5.2354,-5.2668,-5.306,-5.3164,-5.3609,-5.3896,-5.3922,-5.4158,-5.4419,-5.4367,-5.4053,-5.421,-5.4288,-5.4341,-5.4524,-5.4654,-5.4942,-5.5072,-5.5046,-5.4942,-5.4759,-5.4707,-5.4654,-5.4445,-5.4419,-5.4053,-5.3949,-5.3818,-5.3609,-5.3347,-5.3112,-5.306,-5.3034,-5.3086,-5.3269,-5.3583,-5.3792,-5.3922,-5.4027,-5.4445,-5.4654,-5.4837,-5.5099,-5.5099,-5.5099,-5.5099,-5.5125,-5.5177,-5.5125,-5.5386,-5.5647,-5.5752,-5.604,-5.651,-5.6824,-5.7137,-5.7451,-5.7895,-5.8104,-5.8287,-5.8366,-5.8444,-5.8444,-5.847,-5.8523,-5.8664,-5.9228,-5.9648,-6.0065,-6.048,-6.0618,-6.0755,-6.0755,-6.0755,-6.0755,-6.0755,-6.0755,-6.0755,-6.0755,-6.0755,-6.0755,-6.0755,-6.0755,-6.0755,-6.0755,-6.0755,-6.0755,-6.0755,-6.0755,-6.0755,-6.1029,-6.1166,-6.1816,-4.959,-4.959,-4.959,-4.959,-4.959,-4.959,-4.959,-4.959,-4.959,-4.959,-4.959,-4.959,-4.959,-4.9719,-4.9847,-4.9976,-5.0104,-5.0639,-5.0996,-5.1456,-5.2022,-5.2563,-5.2903,-5.3269,-5.3635,-5.3766,-5.4158,-5.4471,-5.4497,-5.4916,-5.4968,-5.4863,-5.4733,-5.4785,-5.4916,-5.5099,-5.5099,-5.5099,-5.5099,-5.5099,-5.5099,-5.5072,-5.5046,-5.5046,-5.4994,-5.4994,-5.4889,-5.4654,-5.4497,-5.4367,-5.4184,-5.387,-5.3713,-5.3635,-5.3635,-5.3766,-5.3975,-5.4262,-5.4419,-5.4524,-5.4654,-5.4889,-5.4994,-5.5046,-5.5099,-5.5099,-5.5099,-5.5125,-5.5229,-5.5334,-5.536,-5.583,-5.6144,-5.6301,-5.6719,-5.7163,-5.7399,-5.7686,-5.8,-5.8366,-5.8444,-5.847,-5.847,-5.8523,-5.8523,-5.8523,-5.8523,-5.8664,-5.9088,-5.9368,-5.9648,-6.0065,-6.048,-6.0618,-6.0755,-6.0755,-6.0755,-6.0755,-6.0755,-6.0755,-6.0755,-6.0755,-6.0755,-6.0755,-6.0755,-6.0755,-6.0755,-6.0755,-6.0755,-6.0755,-6.0755,-6.0755,-6.092,-6.1029,-6.1438,-4.959,-4.959,-4.959,-4.959,-4.959,-4.959,-4.959,-4.959,-4.959,-4.959,-4.959,-4.959,-4.959,-4.959,-4.9719,-4.9719,-4.9873,-5.041,-5.1023,-5.1563,-5.2438,-5.2929,-5.34,-5.387,-5.421,-5.4341,-5.4654,-5.4916,-5.4994,-5.5046,-5.5099,-5.5099,-5.4994,-5.4994,-5.5072,-5.5099,-5.5099,-5.5099,-5.5099,-5.5099,-5.5099,-5.5099,-5.5099,-5.5099,-5.5099,-5.5099,-5.5046,-5.4994,-5.4889,-5.4837,-5.4837,-5.4576,-5.4262,-5.421,-5.421,-5.4236,-5.4236,-5.4524,-5.4968,-5.5046,-5.5046,-5.5072,-5.5099,-5.5099,-5.5099,-5.5099,-5.5177,-5.5282,-5.5543,-5.5804,-5.6066,-5.6405,-5.6667,-5.6928,-5.7346,-5.7686,-5.7921,-5.8052,-5.834,-5.847,-5.8497,-5.8523,-5.8523,-5.8523,-5.8523,-5.8523,-5.8523,-5.8664,-5.8947,-5.9228,-5.9508,-5.9787,-6.0204,-6.048,-6.0618,-6.0755,-6.0755,-6.0755,-6.0755,-6.0755,-6.0755,-6.0755,-6.0755,-6.0755,-6.0755,-6.0755,-6.0755,-6.0755,-6.0755,-6.0755,-6.0755,-6.0755,-6.0782,-6.092,-6.1302,-4.959,-4.959,-4.959,-4.959,-4.959,-4.959,-4.959,-4.959,-4.959,-4.959,-4.959,-4.959,-4.959,-4.959,-4.959,-4.9615,-4.9769,-5.0844,-5.1408,-5.1666,-5.2777,-5.3531,-5.4053,-5.4419,-5.4759,-5.4837,-5.5046,-5.5099,-5.5072,-5.5099,-5.5099,-5.5099,-5.5099,-5.5099,-5.5099,-5.5099,-5.5099,-5.5099,-5.5099,-5.5099,-5.5099,-5.5099,-5.5099,-5.5099,-5.5099,-5.5099,-5.5099,-5.5099,-5.5099,-5.5099,-5.5099,-5.4968,-5.4759,-5.4733,-5.4759,-5.4759,-5.4785,-5.4863,-5.5072,-5.5072,-5.5072,-5.5099,-5.5099,-5.5099,-5.5099,-5.5099,-5.5282,-5.5569,-5.5883,-5.617,-5.651,-5.7033,-5.7346,-5.7477,-5.7817,-5.8131,-5.834,-5.8392,-5.8497,-5.8497,-5.8523,-5.8523,-5.8523,-5.8523,-5.8523,-5.8523,-5.8523,-5.8523,-5.8664,-5.8947,-5.9228,-5.9508,-5.9787,-6.0065,-6.0342,-6.0618,-6.0755,-6.0755,-6.0755,-6.0755,-6.0755,-6.0755,-6.0755,-6.0755,-6.0755,-6.0755,-6.0755,-6.0755,-6.0755,-6.0755,-6.0755,-6.0755,-6.0782,-6.092,-6.1057,-4.959,-4.959,-4.959,-4.959,-4.959,-4.959,-4.959,-4.959,-4.9461,-4.9461,-4.9332,-4.9332,-4.9332,-4.9332,-4.9461,-4.959,-4.9665,-5.0687,-5.169,-5.1948,-5.3191,-5.4078,-5.4576,-5.4863,-5.4968,-5.5099,-5.5099,-5.5099,-5.5099,-5.5099,-5.5099,-5.5099,-5.4965,-5.4805,-5.4805,-5.4805,-5.4805,-5.4671,-5.4671,-5.4805,-5.4939,-5.4965,-5.5099,-5.5099,-5.5099,-5.5099,-5.5099,-5.5099,-5.5099,-5.5099,-5.5099,-5.5099,-5.5099,-5.5099,-5.5099,-5.5099,-5.5099,-5.5099,-5.5099,-5.5099,-5.5099,-5.5099,-5.5099,-5.5099,-5.5151,-5.5308,-5.5543,-5.5857,-5.6223,-5.6667,-5.7085,-5.766,-5.7895,-5.8026,-5.8131,-5.8444,-5.8497,-5.8523,-5.8523,-5.8523,-5.8523,-5.8523,-5.8523,-5.8523,-5.8523,-5.8523,-5.8523,-5.8523,-5.8523,-5.8806,-5.8947,-5.9228,-5.9508,-5.9927,-6.0204,-6.0618,-6.0755,-6.0755,-6.0755,-6.0755,-6.0755,-6.0755,-6.0755,-6.0755,-6.0755,-6.0755,-6.0755,-6.0755,-6.0755,-6.0755,-6.0755,-6.0755,-6.0755,-6.092,-6.092,-4.959,-4.959,-4.959,-4.959,-4.959,-4.959,-4.959,-4.959,-4.9202,-4.9072,-4.9072,-4.8706,-4.8706,-4.8942,-4.9072,-4.9202,-4.9636,-5.0504,-5.1245,-5.2174,-5.3104,-5.3993,-5.4597,-5.4913,-5.4939,-5.5099,-5.5099,-5.5099,-5.5099,-5.4939,-5.4939,-5.4939,-5.4671,-5.4511,-5.4376,-5.4241,-5.4106,-5.4267,-5.4402,-5.4511,-5.4645,-5.4805,-5.4939,-5.4939,-5.4939,-5.4965,-5.4965,-5.4831,-5.4965,-5.4965,-5.4965,-5.5099,-5.5099,-5.5099,-5.5099,-5.5099,-5.5099,-5.5099,-5.5099,-5.5099,-5.5203,-5.5255,-5.5229,-5.5151,-5.5308,-5.5674,-5.6066,-5.6432,-5.685,-5.7294,-5.7739,-5.8078,-5.8392,-5.8418,-5.8418,-5.8523,-5.8523,-5.8523,-5.8523,-5.8523,-5.8523,-5.8523,-5.8523,-5.8523,-5.8523,-5.8523,-5.8523,-5.8523,-5.8523,-5.8523,-5.8806,-5.8947,-5.9368,-5.9648,-6.0065,-6.0342,-6.0618,-6.0755,-6.0755,-6.0755,-6.0755,-6.0755,-6.0755,-6.0755,-6.0755,-6.0755,-6.0755,-6.0755,-6.0755,-6.0755,-6.0755,-6.0755,-6.0755,-6.0755,-6.0892,-4.959,-4.959,-4.959,-4.959,-4.959,-4.959,-4.9461,-4.9202,-4.8787,-4.8526,-4.8289,-4.7918,-4.8026,-4.8289,-4.8289,-4.8551,-4.9183,-5.0074,-5.068,-5.1657,-5.2691,-5.3445,-5.3945,-5.4376,-5.4511,-5.4805,-5.4805,-5.4965,-5.4965,-5.4805,-5.4645,-5.4645,-5.4241,-5.3971,-5.3427,-5.3154,-5.3427,-5.37,-5.3835,-5.4106,-5.4376,-5.4511,-5.4671,-5.4671,-5.4645,-5.4537,-5.4402,-5.4402,-5.4402,-5.4402,-5.4537,-5.4671,-5.4645,-5.4939,-5.5099,-5.5099,-5.5099,-5.5099,-5.5099,-5.5099,-5.5255,-5.5569,-5.57,-5.5674,-5.583,-5.6223,-5.6693,-5.7033,-5.7373,-5.7765,-5.8052,-5.834,-5.8523,-5.8523,-5.8523,-5.8523,-5.8523,-5.8523,-5.8523,-5.8523,-5.8523,-5.8523,-5.8523,-5.8523,-5.8523,-5.8523,-5.8523,-5.8523,-5.8523,-5.8523,-5.8523,-5.8806,-5.9088,-5.9508,-5.9787,-6.0065,-6.048,-6.0755,-6.0755,-6.0755,-6.0755,-6.0755,-6.0755,-6.0755,-6.0755,-6.0755,-6.0755,-6.0755,-6.0755,-6.0755,-6.0755,-6.0755,-6.0755,-6.0755,-6.0755,-4.959,-4.959,-4.959,-4.959,-4.959,-4.9461,-4.9072,-4.8682,-4.8396,-4.8002,-4.7473,-4.7098,-4.7098,-4.7364,-4.7364,-4.7654,-4.8279,-4.9316,-5.0124,-5.0666,-5.1805,-5.2566,-5.3128,-5.3563,-5.3835,-5.4106,-5.4402,-5.4537,-5.4537,-5.4537,-5.4241,-5.4241,-5.3835,-5.3291,-5.2742,-5.2189,-5.2025,-5.2441,-5.3017,-5.3427,-5.3835,-5.4106,-5.4241,-5.4241,-5.4241,-5.4106,-5.37,-5.37,-5.37,-5.3725,-5.3971,-5.4241,-5.4376,-5.4805,-5.5099,-5.5099,-5.5099,-5.5099,-5.5125,-5.536,-5.5595,-5.5935,-5.6327,-5.6615,-5.6719,-5.6981,-5.7268,-5.7529,-5.7843,-5.8131,-5.834,-5.8523,-5.8523,-5.8523,-5.8523,-5.8523,-5.8523,-5.8523,-5.8523,-5.8523,-5.8523,-5.8523,-5.8523,-5.8523,-5.8523,-5.8523,-5.8523,-5.8523,-5.8523,-5.8523,-5.8523,-5.8664,-5.8947,-5.9228,-5.9508,-5.9927,-6.0342,-6.0618,-6.0755,-6.0755,-6.0755,-6.0755,-6.0755,-6.0755,-6.0755,-6.0755,-6.0755,-6.0755,-6.0755,-6.0755,-6.0755,-6.0755,-6.0755,-6.0755,-6.0755,-4.9461,-4.9461,-4.9461,-4.9332,-4.9332,-4.9072,-4.8551,-4.7894,-4.7762,-4.7364,-4.6674,-4.6001,-4.589,-4.6136,-4.6136,-4.654,-4.725,-4.8284,-4.8762,-4.9382,-5.0258,-5.1163,-5.1747,-5.2441,-5.2854,-5.3291,-5.3725,-5.3861,-5.3861,-5.37,-5.3563,-5.3725,-5.3017,-5.2327,-5.1771,-5.0906,-5.0624,-5.0741,-5.1467,-5.1886,-5.2879,-5.3427,-5.3861,-5.3835,-5.37,-5.3563,-5.3154,-5.3154,-5.3154,-5.3154,-5.3427,-5.3563,-5.4267,-5.4671,-5.4805,-5.4965,-5.4831,-5.4805,-5.4961,-5.5247,-5.5721,-5.6217,-5.6981,-5.7373,-5.7556,-5.7634,-5.7817,-5.7921,-5.8183,-5.8287,-5.847,-5.8523,-5.8523,-5.8523,-5.8523,-5.8523,-5.8523,-5.8523,-5.8523,-5.8523,-5.8523,-5.8523,-5.8523,-5.8523,-5.8523,-5.8523,-5.8523,-5.8523,-5.8523,-5.8523,-5.8523,-5.8523,-5.8664,-5.9088,-5.9368,-5.9648,-6.0204,-6.048,-6.0618,-6.0755,-6.0755,-6.0755,-6.0755,-6.0755,-6.0755,-6.0755,-6.0755,-6.0755,-6.0755,-6.0755,-6.0755,-6.0755,-6.0755,-6.0755,-6.0755,-4.842,-4.842,-4.8158,-4.8026,-4.8026,-4.7894,-4.763,-4.7232,-4.6563,-4.6025,-4.521,-4.4663,-4.4388,-4.4778,-4.4778,-4.5187,-4.5826,-4.6589,-4.6864,-4.7538,-4.8422,-4.9295,-5.0032,-5.0882,-5.1607,-5.2302,-5.2742,-5.3017,-5.2879,-5.2604,-5.2327,-5.2164,-5.1607,-5.1047,-5.0648,-4.9771,-4.9342,-4.9318,-4.9462,-5.0458,-5.1607,-5.2327,-5.2742,-5.2742,-5.2604,-5.2164,-5.1747,-5.1303,-5.1327,-5.1327,-5.2189,-5.3017,-5.3997,-5.4132,-5.4267,-5.4267,-5.4267,-5.4293,-5.4634,-5.5158,-5.5761,-5.6392,-5.7129,-5.7817,-5.8131,-5.8235,-5.8314,-5.834,-5.8392,-5.847,-5.8523,-5.8523,-5.8523,-5.8523,-5.8523,-5.8523,-5.8523,-5.8523,-5.8523,-5.8523,-5.8523,-5.8523,-5.8523,-5.8523,-5.8523,-5.8523,-5.8523,-5.8523,-5.8523,-5.8523,-5.8523,-5.8523,-5.8523,-5.8806,-5.9088,-5.9368,-5.9787,-6.0177,-6.0342,-6.048,-6.0755,-6.0755,-6.0755,-6.0755,-6.0755,-6.0755,-6.0755,-6.0755,-6.0755,-6.0755,-6.0755,-6.0755,-6.0755,-6.0755,-6.0755,-4.7544,-4.7762,-4.763,-4.7497,-4.7497,-4.7232,-4.6831,-4.6429,-4.5324,-4.4503,-4.3814,-4.3558,-4.3419,-4.3536,-4.3536,-4.3814,-4.4407,-4.5118,-4.5453,-4.5998,-4.6581,-4.7467,-4.8453,-4.9318,-4.9747,-5.0458,-5.1022,-5.1303,-5.1467,-5.1163,-5.0741,-5.0741,-5.0175,-4.9628,-4.9221,-4.8621,-4.8186,-4.8186,-4.7749,-4.8598,-5.0198,-5.0765,-5.1327,-5.1467,-5.1327,-5.0906,-5.0482,-5.0056,-5.0056,-5.0482,-5.1467,-5.2189,-5.2879,-5.3291,-5.3427,-5.3563,-5.3725,-5.3827,-5.427,-5.4868,-5.5709,-5.639,-5.7266,-5.8004,-5.8056,-5.8134,-5.8418,-5.8444,-5.8444,-5.8523,-5.8523,-5.8523,-5.8523,-5.8523,-5.8523,-5.8523,-5.8523,-5.8523,-5.8523,-5.8523,-5.8523,-5.8523,-5.8523,-5.8523,-5.8523,-5.8523,-5.8523,-5.8523,-5.8523,-5.8523,-5.8523,-5.8523,-5.8523,-5.8664,-5.9088,-5.9228,-5.9368,-5.9787,-6.0039,-6.0342,-6.0618,-6.0755,-6.0755,-6.0755,-6.0755,-6.0755,-6.0755,-6.0755,-6.0755,-6.0755,-6.0755,-6.0755,-6.0755,-6.0755,-6.0755,-4.6466,-4.6917,-4.6808,-4.6941,-4.6808,-4.6271,-4.5731,-4.5324,-4.4228,-4.3258,-4.27,-4.2861,-4.2721,-4.2581,-4.2441,-4.27,-4.3122,-4.4024,-4.4351,-4.4554,-4.5418,-4.6167,-4.6869,-4.7457,-4.8331,-4.891,-4.9462,-4.9628,-4.9628,-4.9485,-4.9318,-4.9175,-4.8887,-4.8476,-4.8041,-4.7603,-4.7186,-4.7186,-4.7038,-4.7038,-4.8064,-4.9078,-4.9771,-5.0198,-5.0198,-4.9914,-4.9485,-4.9198,-4.9221,-4.9628,-5.034,-5.1047,-5.1607,-5.2025,-5.2189,-5.2302,-5.2742,-5.3155,-5.386,-5.4696,-5.5561,-5.6431,-5.7332,-5.7759,-5.7927,-5.807,-5.8381,-5.8381,-5.8381,-5.8523,-5.8523,-5.8523,-5.8523,-5.8523,-5.8523,-5.8523,-5.8523,-5.8523,-5.8523,-5.8523,-5.8523,-5.8523,-5.8523,-5.8523,-5.8523,-5.8523,-5.8523,-5.8523,-5.8523,-5.8523,-5.8523,-5.8523,-5.8523,-5.8806,-5.8947,-5.9088,-5.9088,-5.9368,-5.9648,-6.0204,-6.0618,-6.0618,-6.0755,-6.0755,-6.0755,-6.0755,-6.0755,-6.0755,-6.0755,-6.0755,-6.0755,-6.0755,-6.0755,-6.0755,-6.0755,-4.403,-4.393,-4.393,-4.393,-4.393,-4.3791,-4.3653,-4.3514,-4.3119,-4.2559,-4.2159,-4.1898,-4.1756,-4.1756,-4.1756,-4.1898,-4.2308,-4.2975,-4.3045,-4.3299,-4.4251,-4.4998,-4.5853,-4.6574,-4.7479,-4.8064,-4.8354,-4.8523,-4.8354,-4.8209,-4.8064,-4.8064,-4.7772,-4.7479,-4.7332,-4.6891,-4.6743,-4.6596,-4.6448,-4.6448,-4.7038,-4.7895,-4.8499,-4.8766,-4.8766,-4.8331,-4.7895,-4.7626,-4.7626,-4.8064,-4.8766,-4.9605,-5.0032,-5.0482,-5.0765,-5.1095,-5.1376,-5.2048,-5.2823,-5.3935,-5.4795,-5.5609,-5.6352,-5.721,-5.7354,-5.7641,-5.7953,-5.807,-5.8212,-5.8355,-5.8523,-5.8523,-5.8523,-5.8523,-5.8523,-5.8523,-5.8523,-5.8523,-5.8523,-5.8523,-5.8523,-5.8523,-5.8523,-5.8523,-5.8523,-5.8523,-5.8523,-5.8523,-5.8523,-5.8523,-5.8523,-5.8523,-5.8523,-5.8523,-5.8664,-5.8664,-5.8806,-5.9088,-5.9368,-5.9787,-6.0204,-6.0618,-6.0755,-6.0618,-6.0755,-6.0755,-6.0755,-6.0755,-6.0755,-6.0755,-6.0755,-6.0755,-6.0755,-6.0755,-6.0755]}]]